[[{"header":{"parameterUnit":"m.s-1","parameterCategory":1,"la1":30.6,"la2":29.2853,"lo1":-89.7004,"lo2":-87.6739,"dy":0.0162,"dx":0.0183,"nx":112,"ny":82,"refTime":"2023-11-10T18:00:00:Z","depth":0,"parameterNumber":2,"parameterNumberName":"U-component_of_WINDS"},"data":[0.0,0.0,0.0,0.0,0.0,0.0,0.0,0.0,0.0,0.0,0.0,0.0,0.0,0.0,0.0,0.0,0.0,0.0,0.0,0.0,0.0,0.0,0.0,0.0,0.0,0.0,0.0,0.0,0.0,0.0,0.0,0.0,0.0,0.0,0.0,0.0,0.0,0.0,0.0,0.0,0.0,0.0,0.0,0.0,0.0,0.0,0.0,0.0,0.0,0.0,0.0,0.0,0.0,0.0,0.0,0.0,0.0,0.0,0.0,0.0,0.0,0.0,0.0,0.0,0.0,0.0,0.0,0.0,0.0,0.0,0.0,0.0,0.0,0.0,0.0,0.0,0.0,0.0,0.0,0.0,0.0,0.0,0.0,0.0,0.0,0.0,0.0,0.0,0.0,0.0,3.0282,3.1709,3.3451,3.3488,3.1038,3.066,2.8804,2.4698,0.0,0.0,0.0,0.0,0.0,0.0,0.0,0.0,0.0,0.0,0.0,0.0,0.0,0.0,0.0,0.0,0.0,0.0,0.0,0.0,0.0,0.0,0.0,0.0,0.0,0.0,0.0,0.0,0.0,0.0,0.0,0.0,0.0,0.0,0.0,0.0,0.0,0.0,0.0,0.0,0.0,0.0,0.0,0.0,0.0,0.0,0.0,0.0,0.0,0.0,0.0,0.0,0.0,0.0,0.0,0.0,0.0,0.0,0.0,0.0,0.0,0.0,0.0,0.0,0.0,0.0,0.0,0.0,0.0,0.0,0.0,0.0,0.0,0.0,0.0,0.0,0.0,0.0,0.0,0.0,0.0,0.0,0.0,0.0,0.0,0.0,0.0,0.0,0.0,0.0,0.0,0.0,0.0,0.0,0.0,0.0,0.0,0.0,0.0,0.0,0.0,0.0,0.0,0.0,3.1076,3.293,3.3952,3.3309,3.0315,2.9432,2.7902,2.5222,0.0,0.0,0.0,0.0,0.0,0.0,0.0,0.0,0.0,0.0,0.0,0.0,0.0,0.0,0.0,0.0,0.0,0.0,0.0,0.0,0.0,0.0,0.0,0.0,0.0,0.0,0.0,0.0,0.0,0.0,0.0,0.0,0.0,0.0,0.0,0.0,0.0,0.0,0.0,0.0,0.0,0.0,0.0,0.0,0.0,0.0,0.0,0.0,0.0,0.0,0.0,0.0,0.0,0.0,0.0,0.0,0.0,0.0,0.0,0.0,0.0,0.0,0.0,0.0,0.0,0.0,0.0,0.0,0.0,0.0,0.0,0.0,0.0,0.0,0.0,0.0,0.0,0.0,0.0,0.0,0.0,0.0,0.0,0.0,0.0,0.0,0.0,0.0,0.0,0.0,0.0,0.0,0.0,0.0,0.0,0.0,0.0,0.0,0.0,0.0,0.0,0.0,0.0,3.1252,3.197,3.3254,3.4066,3.3259,3.0152,2.9172,2.7668,2.5236,2.4218,0.0,0.0,0.0,0.0,0.0,0.0,0.0,0.0,0.0,0.0,0.0,0.0,0.0,0.0,0.0,0.0,0.0,0.0,0.0,0.0,0.0,0.0,0.0,0.0,0.0,0.0,0.0,0.0,0.0,0.0,0.0,0.0,0.0,0.0,0.0,0.0,0.0,0.0,0.0,0.0,0.0,0.0,0.0,0.0,0.0,0.0,0.0,0.0,0.0,0.0,0.0,0.0,0.0,0.0,0.0,0.0,0.0,0.0,0.0,0.0,0.0,0.0,0.0,0.0,0.0,0.0,0.0,0.0,0.0,0.0,0.0,0.0,0.0,0.0,0.0,0.0,0.0,0.0,0.0,0.0,0.0,0.0,0.0,0.0,0.0,0.0,0.0,0.0,0.0,0.0,0.0,0.0,0.0,0.0,0.0,0.0,0.0,0.0,0.0,0.0,0.0,0.0,3.2551,3.2696,3.3322,3.3592,3.2555,2.9647,2.8362,2.6845,2.4889,2.3455,0.0,0.0,0.0,0.0,0.0,0.0,0.0,0.0,0.0,0.0,0.0,0.0,0.0,0.0,0.0,0.0,0.0,0.0,0.0,0.0,0.0,0.0,0.0,0.0,0.0,0.0,0.0,0.0,0.0,0.0,0.0,0.0,0.0,0.0,0.0,0.0,0.0,0.0,0.0,0.0,0.0,0.0,0.0,0.0,0.0,0.0,0.0,0.0,0.0,0.0,0.0,0.0,0.0,0.0,0.0,0.0,0.0,0.0,0.0,0.0,0.0,0.0,0.0,0.0,0.0,0.0,0.0,0.0,0.0,0.0,0.0,0.0,0.0,0.0,0.0,0.0,0.0,0.0,0.0,0.0,0.0,0.0,0.0,0.0,0.0,0.0,0.0,0.0,0.0,0.0,0.0,0.0,0.0,0.0,0.0,0.0,0.0,0.0,0.0,0.0,0.0,0.0,3.275,3.3002,3.3363,3.2222,3.049,2.8148,2.5962,2.4519,2.4097,2.2575,0.0,0.0,0.0,0.0,0.0,0.0,0.0,0.0,0.0,0.0,0.0,0.0,0.0,0.0,0.0,0.0,0.0,0.0,0.0,0.0,0.0,0.0,0.0,0.0,0.0,0.0,0.0,0.0,0.0,0.0,0.0,0.0,0.0,0.0,0.0,0.0,0.0,0.0,0.0,0.0,0.0,0.0,0.0,0.0,0.0,0.0,0.0,0.0,0.0,0.0,0.0,0.0,0.0,0.0,0.0,0.0,0.0,0.0,0.0,0.0,0.0,0.0,0.0,0.0,0.0,0.0,0.0,0.0,0.0,0.0,0.0,0.0,0.0,0.0,0.0,0.0,0.0,0.0,0.0,0.0,0.0,0.0,0.0,0.0,0.0,0.0,0.0,0.0,0.0,0.0,0.0,0.0,0.0,0.0,0.0,0.0,0.0,0.0,0.0,0.0,0.0,0.0,3.2471,3.2306,3.2056,3.1529,3.0068,2.723,2.5731,2.4622,2.3809,0.0,0.0,0.0,0.0,0.0,0.0,0.0,0.0,0.0,0.0,0.0,0.0,0.0,0.0,0.0,0.0,0.0,0.0,0.0,0.0,0.0,0.0,0.0,0.0,0.0,0.0,0.0,0.0,0.0,0.0,0.0,0.0,0.0,0.0,0.0,0.0,0.0,0.0,0.0,0.0,0.0,0.0,0.0,0.0,0.0,0.0,0.0,0.0,0.0,0.0,0.0,0.0,0.0,0.0,0.0,0.0,0.0,0.0,0.0,0.0,0.0,0.0,0.0,0.0,0.0,0.0,0.0,0.0,0.0,0.0,0.0,0.0,0.0,0.0,0.0,0.0,0.0,0.0,0.0,0.0,0.0,0.0,0.0,0.0,0.0,0.0,0.0,0.0,0.0,0.0,0.0,0.0,0.0,0.0,0.0,0.0,0.0,0.0,0.0,0.0,0.0,0.0,3.2137,3.1864,3.1398,3.1224,3.067,2.9276,2.671,2.4874,2.3821,2.3721,0.0,0.0,0.0,0.0,0.0,0.0,0.0,0.0,0.0,0.0,0.0,0.0,0.0,0.0,0.0,0.0,0.0,0.0,0.0,0.0,0.0,0.0,0.0,0.0,0.0,0.0,0.0,0.0,0.0,0.0,0.0,0.0,0.0,0.0,0.0,0.0,0.0,0.0,0.0,0.0,0.0,0.0,0.0,0.0,0.0,0.0,0.0,0.0,0.0,0.0,0.0,0.0,0.0,0.0,0.0,0.0,0.0,0.0,0.0,0.0,0.0,0.0,0.0,0.0,0.0,0.0,0.0,0.0,0.0,0.0,0.0,0.0,0.0,0.0,0.0,0.0,0.0,0.0,0.0,0.0,0.0,0.0,0.0,0.0,0.0,0.0,0.0,0.0,0.0,0.0,0.0,0.0,0.0,0.0,0.0,0.0,0.0,0.0,0.0,0.0,0.0,0.0,3.2009,3.1004,3.0378,3.1106,2.9496,2.7874,2.6577,2.3,2.1731,0.0,0.0,0.0,0.0,0.0,0.0,0.0,0.0,0.0,0.0,0.0,0.0,0.0,0.0,0.0,0.0,0.0,0.0,0.0,0.0,0.0,0.0,0.0,0.0,0.0,0.0,0.0,0.0,0.0,0.0,0.0,0.0,0.0,0.0,0.0,0.0,0.0,0.0,0.0,0.0,0.0,0.0,0.0,0.0,0.0,0.0,0.0,0.0,0.0,0.0,0.0,0.0,0.0,0.0,0.0,0.0,0.0,0.0,0.0,0.0,0.0,0.0,0.0,0.0,0.0,0.0,0.0,0.0,0.0,0.0,0.0,0.0,0.0,0.0,0.0,0.0,0.0,0.0,0.0,0.0,0.0,0.0,0.0,0.0,0.0,0.0,0.0,0.0,0.0,0.0,0.0,0.0,0.0,0.0,0.0,0.0,0.0,0.0,0.0,0.0,0.0,0.0,0.0,3.1312,3.0245,2.9379,2.9488,2.8296,2.6751,2.4954,2.2641,2.1972,2.3548,0.0,0.0,0.0,0.0,0.0,0.0,0.0,0.0,0.0,0.0,0.0,0.0,0.0,0.0,0.0,0.0,0.0,0.0,0.0,0.0,0.0,0.0,0.0,0.0,0.0,0.0,0.0,0.0,0.0,0.0,0.0,0.0,0.0,0.0,0.0,0.0,0.0,0.0,0.0,0.0,0.0,0.0,0.0,0.0,0.0,0.0,0.0,0.0,0.0,0.0,0.0,0.0,0.0,0.0,0.0,0.0,0.0,0.0,0.0,0.0,0.0,0.0,0.0,0.0,0.0,0.0,0.0,0.0,0.0,0.0,0.0,0.0,0.0,0.0,0.0,0.0,0.0,0.0,0.0,0.0,0.0,0.0,0.0,0.0,0.0,0.0,0.0,0.0,0.0,0.0,0.0,0.0,0.0,0.0,0.0,0.0,0.0,0.0,0.0,0.0,0.0,0.0,3.0873,2.9559,2.8474,2.8481,2.7454,2.5985,2.3989,2.2002,2.1316,2.2383,0.0,0.0,0.0,0.0,0.0,0.0,0.0,0.0,0.0,0.0,0.0,0.0,0.0,0.0,0.0,0.0,0.0,0.0,0.0,0.0,0.0,0.0,0.0,0.0,0.0,0.0,0.0,0.0,0.0,0.0,0.0,0.0,0.0,0.0,0.0,0.0,0.0,0.0,0.0,0.0,0.0,0.0,0.0,0.0,0.0,0.0,0.0,0.0,0.0,0.0,0.0,0.0,0.0,0.0,0.0,0.0,0.0,0.0,0.0,0.0,0.0,0.0,0.0,0.0,0.0,0.0,0.0,0.0,0.0,0.0,0.0,0.0,0.0,0.0,0.0,0.0,0.0,0.0,0.0,0.0,0.0,0.0,0.0,0.0,0.0,0.0,0.0,0.0,0.0,0.0,0.0,0.0,0.0,0.0,0.0,0.0,0.0,0.0,0.0,0.0,0.0,0.0,3.0727,2.8969,2.7633,2.7958,2.6868,2.535,2.3456,2.1259,2.0228,2.0843,0.0,0.0,0.0,0.0,0.0,0.0,0.0,0.0,0.0,0.0,0.0,0.0,0.0,0.0,0.0,0.0,0.0,0.0,0.0,0.0,0.0,0.0,0.0,0.0,0.0,0.0,0.0,0.0,0.0,0.0,0.0,0.0,0.0,0.0,0.0,0.0,0.0,0.0,0.0,0.0,0.0,0.0,0.0,0.0,0.0,0.0,0.0,0.0,0.0,0.0,0.0,0.0,0.0,0.0,0.0,0.0,0.0,0.0,0.0,0.0,3.5206,0.0,0.0,0.0,0.0,0.0,0.0,0.0,0.0,0.0,0.0,0.0,0.0,0.0,0.0,0.0,0.0,0.0,0.0,0.0,0.0,0.0,0.0,0.0,0.0,0.0,0.0,0.0,0.0,0.0,0.0,0.0,0.0,0.0,0.0,0.0,0.0,0.0,0.0,0.0,0.0,0.0,3.1478,2.8497,2.6646,2.7807,2.6058,2.4204,2.2659,2.1292,2.0576,2.0726,1.9756,0.0,0.0,0.0,0.0,0.0,0.0,0.0,0.0,0.0,0.0,0.0,0.0,0.0,0.0,0.0,0.0,0.0,0.0,0.0,0.0,0.0,0.0,0.0,0.0,0.0,0.0,0.0,0.0,0.0,0.0,0.0,0.0,0.0,0.0,0.0,0.0,0.0,0.0,0.0,0.0,0.0,0.0,0.0,0.0,0.0,0.0,0.0,0.0,0.0,0.0,0.0,0.0,0.0,0.0,0.0,0.0,0.0,0.0,0.0,0.0,3.5706,0.0,0.0,0.0,0.0,0.0,0.0,0.0,0.0,0.0,0.0,0.0,0.0,0.0,0.0,0.0,0.0,0.0,0.0,0.0,0.0,0.0,0.0,0.0,0.0,0.0,0.0,0.0,0.0,0.0,0.0,0.0,0.0,0.0,0.0,0.0,0.0,0.0,0.0,0.0,0.0,3.1317,2.8155,2.6124,2.7078,2.5472,2.3717,2.2143,2.1216,2.0419,1.9776,1.9388,0.0,0.0,0.0,0.0,0.0,0.0,0.0,0.0,0.0,0.0,0.0,0.0,0.0,0.0,0.0,0.0,0.0,0.0,0.0,0.0,0.0,0.0,0.0,0.0,0.0,0.0,0.0,0.0,0.0,0.0,0.0,0.0,0.0,0.0,0.0,0.0,0.0,0.0,0.0,0.0,0.0,0.0,0.0,0.0,0.0,0.0,0.0,0.0,0.0,0.0,0.0,0.0,0.0,4.263,4.3483,4.454,4.4572,4.3547,4.1748,4.0078,3.7642,3.5004,3.6396,0.0,0.0,0.0,0.0,0.0,0.0,0.0,0.0,0.0,0.0,0.0,0.0,0.0,0.0,0.0,0.0,0.0,0.0,0.0,0.0,0.0,0.0,0.0,0.0,2.9414,2.8558,0.0,0.0,0.0,0.0,0.0,0.0,0.0,0.0,0.0,0.0,0.0,0.0,3.0538,2.7806,2.5918,2.6351,2.5075,2.3518,2.1839,2.1201,2.0258,1.8792,1.9016,1.9348,0.0,0.0,0.0,0.0,0.0,0.0,0.0,0.0,0.0,0.0,0.0,0.0,0.0,0.0,0.0,0.0,0.0,0.0,0.0,0.0,0.0,0.0,0.0,0.0,0.0,0.0,0.0,0.0,0.0,0.0,0.0,0.0,3.4621,3.7037,0.0,0.0,0.0,0.0,0.0,0.0,0.0,0.0,0.0,0.0,0.0,0.0,0.0,4.1904,4.3748,4.3875,4.4027,4.4202,4.4919,4.5336,4.5539,4.6181,4.5962,4.5066,4.479,0.0,3.7151,3.5747,0.0,0.0,0.0,0.0,0.0,0.0,0.0,0.0,0.0,0.0,0.0,0.0,0.0,0.0,0.0,0.0,0.0,0.0,0.0,0.0,0.0,0.0,2.9021,2.8902,2.8325,2.7761,0.0,2.8138,2.849,2.7445,2.6733,0.0,0.0,0.0,0.0,0.0,0.0,0.0,2.9202,2.7249,2.6057,2.6368,2.4778,2.3149,2.1799,2.162,2.0752,1.8822,1.822,1.8522,1.9822,1.9115,0.0,0.0,0.0,0.0,0.0,0.0,0.0,0.0,0.0,0.0,0.0,0.0,0.0,0.0,0.0,0.0,0.0,0.0,0.0,0.0,0.0,0.0,0.0,0.0,0.0,0.0,0.0,0.0,0.0,3.558,3.7476,3.7057,3.8557,3.9259,0.0,0.0,0.0,0.0,0.0,0.0,0.0,0.0,0.0,4.2954,4.3919,4.4529,4.4731,4.5879,4.6667,4.7073,4.7817,4.8392,4.8785,4.8647,4.8662,4.8717,4.7426,4.5324,4.2582,3.9544,3.7607,3.6483,0.0,0.0,0.0,0.0,3.4697,3.4926,3.4472,3.4297,0.0,3.3652,0.0,0.0,0.0,0.0,0.0,0.0,0.0,0.0,0.0,0.0,3.1589,3.0734,3.0142,2.9505,2.844,2.7967,2.7467,0.0,2.7044,2.8054,2.9383,0.0,0.0,0.0,0.0,2.797,2.8003,2.66,2.554,2.5401,2.3995,2.2733,2.1784,2.135,2.0602,1.9331,1.8625,1.8701,1.9688,1.9157,1.9343,0.0,0.0,0.0,0.0,0.0,0.0,0.0,0.0,0.0,0.0,0.0,0.0,0.0,0.0,0.0,0.0,0.0,0.0,0.0,0.0,0.0,0.0,0.0,0.0,0.0,0.0,0.0,0.0,3.7719,3.9625,3.7617,4.0179,4.1358,0.0,0.0,0.0,0.0,0.0,0.0,4.2482,4.4063,4.4877,4.4791,4.6646,4.7288,4.6569,4.8419,4.9712,5.0439,5.098,5.1539,5.2047,5.1463,5.1178,5.106,4.921,4.777,4.6486,4.2717,3.9707,3.7455,3.7106,3.6403,3.5619,3.6099,3.6451,3.6686,3.6398,3.6433,3.6368,3.4866,3.4147,3.3521,3.1638,0.0,0.0,0.0,0.0,3.3209,3.3355,3.3429,3.3261,3.2541,3.1778,3.0848,2.9442,2.8384,2.7267,0.0,2.6749,2.804,2.9017,0.0,0.0,0.0,0.0,2.7101,2.7095,2.6217,2.5404,2.4904,2.355,2.2433,2.1754,2.1096,2.0404,1.9717,1.9041,1.8894,1.938,1.8953,1.8802,1.8982,0.0,0.0,0.0,0.0,0.0,0.0,0.0,0.0,0.0,0.0,0.0,0.0,0.0,0.0,0.0,0.0,0.0,0.0,0.0,0.0,0.0,0.0,0.0,0.0,0.0,0.0,0.0,0.0,0.0,4.029,4.2193,0.0,0.0,0.0,0.0,4.1211,4.3186,4.4393,4.4284,4.5078,4.6126,4.7386,4.9059,5.054,5.1792,5.2757,5.3585,5.4313,5.4346,5.438,5.4431,5.438,5.3176,5.1067,5.0304,4.8755,4.6437,4.2987,4.114,4.0293,3.8388,3.8105,3.859,3.7204,3.7064,3.7499,3.6627,3.5109,3.3992,3.635,3.6209,3.4988,3.4445,3.4241,0.0,0.0,3.3011,3.3413,3.229,3.1959,3.2159,3.3106,3.1872,3.042,3.0336,3.0208,2.91,0.0,2.4655,2.4998,2.7073,0.0,2.7669,2.7868,2.9084,2.9116,2.6679,2.6341,2.6153,2.5601,2.3856,2.2433,2.1754,2.1096,2.04,1.9656,1.8983,1.8682,1.8831,1.7732,1.753,1.842,1.8491,0.0,0.0,0.0,0.0,0.0,0.0,0.0,0.0,0.0,0.0,0.0,0.0,0.0,0.0,0.0,0.0,0.0,0.0,0.0,0.0,0.0,0.0,0.0,0.0,0.0,0.0,0.0,0.0,4.3146,4.5575,0.0,4.4364,4.4521,4.4744,4.4712,4.5474,4.6274,4.7068,4.832,4.9426,5.0397,5.2026,5.3102,5.3592,5.4957,5.5277,5.46,5.5091,5.482,5.3856,5.2815,5.2178,5.1756,4.9507,4.8118,4.7239,4.5123,4.3329,4.1745,4.0122,3.9686,3.9908,3.9362,3.9591,4.0026,3.88,3.8177,3.7786,3.6538,3.5194,3.3911,3.3336,3.3429,3.3767,3.3737,3.3934,3.4106,3.3995,3.3542,3.3048,3.2844,3.1848,3.0802,3.0412,2.9663,2.8694,2.7419,2.7314,2.7707,2.8507,2.7739,2.7522,2.9143,2.89,2.803,2.6665,2.6892,2.6594,2.5121,2.3595,2.2433,2.1754,2.065,1.9882,1.9608,1.9298,1.9123,1.9105,1.8418,1.8174,1.8465,1.8244,1.8861,0.0,0.0,0.0,0.0,0.0,0.0,0.0,0.0,0.0,0.0,0.0,0.0,0.0,0.0,0.0,0.0,0.0,0.0,0.0,0.0,0.0,0.0,0.0,0.0,0.0,4.3161,4.5597,4.5892,4.871,4.9743,4.7396,4.7429,4.7611,4.7582,4.8064,4.8727,4.9605,5.1088,5.1917,5.1875,5.3977,5.4984,5.47,5.6322,5.6681,5.57,5.6207,5.5801,5.4566,5.2957,5.2269,5.2101,4.9234,4.7705,4.7176,4.5975,4.4512,4.298,4.1959,4.1417,4.1197,4.1197,4.1524,4.174,4.0339,3.9967,3.9751,3.7307,3.5876,3.5045,3.4599,3.4768,3.5214,3.5707,3.5578,3.5326,3.5577,3.4764,3.3677,3.2884,3.1889,3.0976,3.0378,2.9442,2.8686,2.8686,2.8871,2.9038,2.908,2.8252,2.8287,3.0314,2.9262,2.8158,2.7846,2.7699,2.6926,2.5128,2.3774,2.2637,2.1695,2.131,2.0643,1.9579,2.0165,2.0148,1.9261,1.9218,1.9188,1.9148,1.9168,1.9506,2.0133,0.0,0.0,0.0,0.0,0.0,0.0,0.0,0.0,0.0,0.0,0.0,0.0,0.0,0.0,0.0,0.0,0.0,0.0,0.0,0.0,0.0,0.0,0.0,4.175,4.609,4.9073,4.8528,5.1496,5.2152,4.8497,5.0003,5.0733,4.9749,5.1045,5.1894,5.1803,5.3153,5.3271,5.1894,5.4883,5.6162,5.5369,5.7067,5.7898,5.7865,5.7865,5.7459,5.6626,5.5112,5.3572,5.1987,4.9534,4.7636,4.6238,4.5367,4.458,4.395,4.3714,4.3217,4.2627,4.2627,4.2648,4.2432,4.1028,4.012,3.9428,3.8736,3.8506,3.8506,3.849,3.8475,3.8475,3.8475,3.7748,3.6951,3.6713,3.5378,3.3892,3.3173,3.1984,3.0882,3.027,2.9732,2.9362,2.9314,2.8892,2.8557,2.8547,2.9096,2.99,3.1028,3.0335,0.0,3.0152,2.8711,2.7165,2.5815,2.4485,2.3142,2.1723,2.3103,2.2717,1.956,2.1471,2.1645,1.9232,1.9945,2.0379,2.0372,2.1098,2.1113,2.0397,0.0,0.0,0.0,0.0,0.0,0.0,0.0,0.0,0.0,0.0,0.0,0.0,0.0,0.0,0.0,0.0,0.0,0.0,0.0,0.0,0.0,4.3861,4.5461,4.549,4.848,5.0994,5.1958,5.433,5.5213,5.35,5.4332,5.4564,5.3465,5.3805,5.4006,5.3852,5.4236,5.4585,5.4888,5.6343,5.7111,5.7061,5.8119,5.8169,5.7103,5.7103,5.6124,5.4309,5.3288,5.1872,5.0161,4.8373,4.7042,4.6037,4.5287,4.458,4.3996,4.3929,4.3861,4.3822,4.3822,4.3613,4.3187,4.2165,4.1357,4.0591,3.9397,3.8928,3.8766,3.8214,3.8162,3.8279,3.8279,3.7379,3.6341,3.5992,3.4729,3.3403,3.2907,3.2489,3.2071,3.1458,3.0921,3.0348,2.9785,2.9719,2.9826,2.9875,3.0068,3.0513,3.1292,3.1168,0.0,2.9856,2.9343,2.8618,2.7469,2.6587,2.5497,2.4078,2.3471,2.2453,2.0786,2.0783,2.0587,2.0004,2.0204,2.0147,1.976,2.0278,2.0457,0.0,0.0,0.0,0.0,0.0,0.0,0.0,0.0,0.0,0.0,0.0,0.0,0.0,0.0,0.0,0.0,0.0,0.0,0.0,0.0,0.0,0.0,4.7556,4.9786,5.1363,5.2705,5.4126,5.5632,5.7222,5.7653,5.6336,5.6634,5.642,5.5336,5.5218,5.5223,5.5114,5.5422,5.5752,5.6094,5.7221,5.7918,5.8138,5.8719,5.8373,5.7146,5.6845,5.5817,5.4148,5.275,5.1487,5.0263,4.8419,4.7076,4.6202,4.5455,4.471,0.0,0.0,0.0,0.0,0.0,4.3723,4.2753,4.1682,4.1067,4.0533,3.9093,3.9007,3.9273,3.8472,3.8302,3.8322,3.7992,3.7034,3.6075,3.585,3.4767,3.3661,3.3197,3.3064,3.2908,3.2319,3.1863,3.1382,3.0671,3.0396,0.0,3.0566,3.0763,3.1169,3.208,3.1796,3.1274,3.0667,2.9978,2.894,2.7409,2.6648,2.557,2.3914,2.3919,0.0,0.0,0.0,2.1362,2.0707,2.0616,0.0,0.0,0.0,2.0331,1.9773,0.0,0.0,0.0,2.1199,2.1355,0.0,0.0,0.0,0.0,0.0,0.0,0.0,0.0,0.0,0.0,0.0,0.0,0.0,0.0,0.0,0.0,5.1637,5.4346,5.8017,5.8034,5.8051,5.9015,5.9793,5.955,5.7867,5.7764,5.73,5.6076,5.5981,5.5949,5.5807,0.0,0.0,0.0,0.0,5.871,5.9093,5.9101,5.8643,5.7713,5.6911,5.5995,5.4858,5.2863,5.1678,5.1054,4.8917,4.7443,4.6512,4.5773,4.496,4.4227,4.4254,4.4205,4.4112,4.4243,4.3328,4.1866,4.0508,0.0,0.0,3.847,3.8843,3.9676,3.8834,3.8604,3.8478,3.7691,3.6777,3.6016,3.6016,3.5237,3.4321,3.3796,3.3679,3.3522,3.2881,3.2604,3.229,3.1591,3.0868,3.0524,3.0877,3.1108,3.1642,3.2788,3.2124,3.1544,3.1766,3.0362,2.864,2.6777,0.0,0.0,2.2841,2.4468,2.4327,2.1407,2.2647,2.2795,2.1177,2.0919,2.087,2.0977,2.0963,2.0417,1.9267,1.9327,1.9564,2.0001,2.0717,2.0871,0.0,0.0,0.0,0.0,0.0,0.0,0.0,0.0,0.0,0.0,0.0,0.0,0.0,0.0,0.0,5.2972,5.5956,5.8829,6.1992,6.2821,6.2296,6.0148,6.0588,6.0623,5.9539,5.9944,5.9577,5.7852,5.7729,5.7418,5.6657,5.6733,5.7434,5.8876,5.9224,5.9823,6.0829,6.0077,5.9043,5.7674,0.0,0.0,5.2622,5.195,5.058,4.8653,4.7986,4.7177,4.6349,4.6353,4.5334,4.376,4.3965,4.3591,4.3016,4.3801,4.3371,4.2327,4.1376,4.1043,4.0783,3.9237,3.8766,3.8754,3.8164,3.8101,0.0,3.7423,3.6791,3.6175,3.6016,3.5372,3.4647,3.4308,3.4241,3.4042,3.3277,3.3066,3.2647,3.1301,3.1007,3.1084,3.1254,3.0779,3.0654,3.1516,3.147,3.1115,3.0542,2.9715,2.9101,2.8954,2.7852,2.6753,2.5744,2.5141,2.4148,2.2635,2.1997,2.1369,2.0585,2.0016,1.9666,1.958,1.958,1.9607,1.9691,2.0113,2.0579,2.1055,1.9951,1.9867,0.0,0.0,0.0,0.0,0.0,0.0,0.0,0.0,0.0,0.0,0.0,4.435,4.6158,0.0,5.3193,5.6855,5.9272,6.1501,6.3734,6.4377,6.3903,6.2026,6.2178,6.1913,6.0572,6.0666,6.0226,5.881,5.8593,5.8128,5.7333,5.7318,5.8013,5.9575,5.9603,6.0089,6.1157,6.0329,5.8897,5.6883,5.6065,5.448,5.2332,5.1386,5.0236,4.8964,4.8011,4.7287,4.6785,4.6665,4.5508,4.3889,4.4147,4.323,4.1821,4.226,4.1893,4.0943,3.9781,3.9664,3.9686,3.8197,3.8129,3.8405,3.7426,3.7206,3.7068,3.6087,3.5575,3.5345,3.5237,3.4881,3.4577,3.4439,3.4314,3.4124,3.3755,3.3454,3.2899,3.1614,3.1305,3.1306,3.1378,3.1035,3.0951,3.1557,3.1664,3.1368,3.0558,2.9897,2.9284,2.871,2.7782,2.6669,2.5304,2.4252,2.3431,2.2913,2.1947,2.1172,2.0625,2.0204,1.997,1.9899,1.9899,1.9992,2.0205,2.0482,2.073,2.0971,2.0177,2.0237,0.0,0.0,0.0,0.0,0.0,0.0,0.0,3.9484,4.1186,4.2909,4.5897,4.8848,5.0953,5.4296,5.762,6.03,6.2042,6.3497,6.485,6.5036,6.4749,6.4021,6.3818,6.3101,6.155,6.1317,6.0741,5.9491,5.932,5.8903,5.8057,5.7888,5.834,5.9475,5.9419,5.9762,6.0635,5.9891,5.8373,5.6134,5.5262,5.3992,5.2472,5.0871,5.0009,4.9651,4.8194,4.7467,4.7292,4.6574,4.5395,4.4023,4.3906,4.2438,4.0529,4.0915,4.0407,3.9367,3.8234,3.8239,3.8491,3.7201,3.7532,3.8213,3.6819,3.6436,3.6134,3.4789,3.4397,3.4397,3.4397,3.4397,3.4397,3.4356,3.4243,3.4076,3.3992,3.3654,3.3094,3.2092,3.1637,3.1468,3.1658,3.1627,3.1687,3.2059,3.2028,3.1688,3.101,3.0294,2.939,2.8216,2.7316,2.6013,2.4067,2.3311,2.2885,2.2724,2.2024,2.1387,2.0827,2.0668,2.0581,2.0581,2.0581,2.0658,2.0759,2.0754,2.0803,2.0916,2.0911,2.1103,3.488,3.4627,3.5177,3.7885,3.8323,3.9416,0.0,4.5354,4.5875,4.8572,5.0536,5.2417,5.4668,5.756,6.0385,6.2753,6.436,6.5611,6.6457,6.6559,6.6288,6.5527,6.4884,6.4042,6.2951,6.3363,6.2697,6.025,6.0626,6.0248,5.8751,5.81,5.8237,5.9205,5.8666,5.8667,5.9379,5.8494,5.7475,5.637,5.4837,5.3373,5.1941,5.0381,4.9326,4.8694,4.7739,4.7424,4.745,4.5726,4.4542,4.3655,4.2021,4.0378,3.9183,4.101,4.0664,3.922,3.9064,3.9051,3.8963,3.8039,3.7866,3.7753,3.652,3.6122,3.5899,3.474,3.4397,3.4397,3.4397,3.4397,3.4356,3.4202,3.4118,3.3992,3.3569,3.3441,3.3166,3.2323,3.1766,3.1671,3.2589,3.2331,3.2172,3.2556,3.2183,3.1727,3.1455,3.0364,2.9566,2.9407,2.7839,2.6018,2.4058,2.382,2.3298,2.2186,2.19,2.1471,2.0827,2.0668,2.0581,2.0581,2.0581,2.0839,2.1308,2.1308,2.156,2.2017,2.2017,2.1801,3.6434,3.7061,3.8171,4.0468,4.22,4.3943,4.6372,4.8374,5.026,5.2299,5.4921,5.7408,5.9252,6.1653,6.3666,6.463,6.5662,6.6457,6.6779,6.644,6.573,6.4563,6.4027,6.36,6.314,6.3198,6.2569,6.0898,6.0923,6.0497,5.9459,5.8731,5.8639,5.916,5.8403,5.8102,5.8391,5.7839,5.6902,5.5495,5.4518,5.3489,5.2503,5.088,4.9524,4.8369,4.7637,4.7019,4.6506,4.5844,4.4624,4.3178,4.2493,4.1159,3.9708,3.9932,3.936,3.8427,3.8427,3.8427,3.8395,3.8024,3.79,3.7743,3.6881,3.6619,3.6397,3.5247,3.5142,3.5247,3.4567,3.452,3.4604,3.4195,3.3907,3.3654,3.3441,3.3313,3.3021,3.2315,3.2026,3.2105,3.2793,3.2729,3.2811,3.3599,3.3161,3.2477,3.1613,3.1031,3.0422,2.9668,2.7896,2.6509,2.5966,2.4502,2.3505,2.3233,2.248,2.1918,2.1614,2.1554,2.1536,2.1536,2.1536,2.1644,2.1861,2.1861,2.1981,2.2197,2.2197,2.2077,3.7734,3.9113,4.0797,4.2894,4.5671,4.8035,4.8663,5.1481,5.4449,5.6124,5.8727,6.1264,6.2973,6.4613,6.5764,6.5967,6.6457,6.6812,6.6812,6.5814,6.46,6.3316,6.2491,6.1969,6.1786,6.2291,6.2237,6.1451,6.1175,6.0803,6.0275,5.943,5.8931,5.8887,5.8009,5.754,5.746,5.7067,5.637,5.5232,5.4464,5.3723,5.3013,5.1105,4.9524,4.8252,4.7593,4.6726,4.5779,4.5674,4.4503,4.2792,4.2633,4.1714,4.0318,3.9481,3.8736,3.8109,3.7952,3.79,3.79,3.79,3.79,3.7795,3.7181,3.6998,3.6789,3.5796,3.5796,3.5913,3.5077,3.5024,3.5029,3.4573,3.4169,3.3868,3.3768,3.3537,3.3181,3.2754,3.2428,3.2342,3.2756,3.2853,3.317,3.396,3.3874,3.3325,3.2208,3.1587,3.0814,2.972,2.8003,2.6915,2.6838,2.5069,2.3979,2.4086,2.3222,2.2681,2.263,2.2486,2.2414,2.2414,2.2414,2.2342,2.2197,2.2342,2.233,2.2197,2.2197,2.2197,3.848,3.9919,4.2047,4.4975,4.7874,5.0557,5.279,5.5598,5.8372,6.0639,6.1738,6.299,6.5189,6.5628,6.5916,6.666,6.6795,6.6812,6.6812,6.4952,6.3249,6.2416,6.0396,5.8872,5.8467,6.0788,6.2173,6.1791,6.1763,6.1658,6.1378,6.0108,5.8996,5.8054,5.7304,5.6839,5.6632,5.5998,5.5847,5.6143,5.479,5.3817,5.3118,5.0527,4.897,4.8252,4.7593,4.6726,4.5734,4.4762,4.3735,4.2695,4.1733,4.0945,4.0409,4.0383,3.9651,3.8606,3.8083,3.79,3.79,3.79,3.79,3.7795,3.7181,3.6998,3.6881,3.6253,3.6096,3.6096,3.6057,3.5921,3.5696,3.5436,3.5213,3.5002,3.472,3.4248,3.3872,3.3847,3.2968,3.2275,3.2566,3.2793,3.2987,3.3206,3.3865,3.4153,3.3532,3.1736,3.0298,2.9665,2.837,2.6992,2.5566,2.5407,2.4963,2.4054,2.3976,2.3911,2.3758,2.3264,2.2987,2.2987,2.2987,2.2702,2.2197,2.2702,2.2702,2.2197,2.2197,2.2197,4.0197,4.3076,4.6421,4.9385,5.235,5.5006,5.6765,5.9082,6.096,6.1247,6.1562,6.1898,6.213,6.2164,6.2588,6.3826,6.4779,6.551,6.6,6.4833,6.2799,5.9674,5.8779,5.7568,5.5333,5.7865,5.9881,6.045,6.0316,6.0344,6.075,5.9701,5.8899,5.8635,5.7747,5.7049,5.6626,5.6197,5.5936,5.5797,5.4424,5.3335,5.2456,5.0318,4.9194,4.8865,4.7096,4.5748,4.4716,4.3735,4.2709,4.1782,4.1461,4.1193,4.0971,4.0566,4.0174,3.9703,3.8762,3.8436,3.8383,3.8018,3.79,3.7861,3.7665,3.7599,3.7469,3.6867,3.6985,3.7071,3.6124,3.6037,3.5949,3.5366,3.4996,3.4816,3.4726,3.4286,3.3897,3.3897,3.3294,3.2857,3.307,3.2883,3.2659,3.2477,3.2772,3.2942,3.2729,3.1296,3.0082,2.9452,2.8597,2.7623,2.6475,2.5656,2.4958,2.4367,2.4053,2.386,2.3806,2.33,2.318,2.3529,2.3192,2.3095,2.3276,2.3445,2.3445,2.3264,2.2915,2.2746,4.2682,4.6243,5.014,5.3375,5.6244,5.869,6.0258,6.1535,6.2093,6.1078,6.0397,5.9704,5.8855,5.8358,5.8656,6.06,6.1646,6.2701,6.4144,6.2941,6.0926,5.8304,5.7208,5.592,5.3963,5.5858,5.7789,5.9219,5.9348,5.9674,6.0204,5.9546,5.8934,5.864,5.8023,5.743,5.6753,5.6374,5.572,5.48,5.3867,5.2916,5.1909,5.0118,4.9119,4.8666,4.6677,4.5038,4.3687,4.3081,4.2186,4.1311,4.1311,4.1311,4.1272,4.088,4.0736,4.0579,3.9429,3.9037,3.8932,3.8383,3.8187,3.8161,3.7965,3.79,3.7776,3.7293,3.7449,3.7534,3.6509,3.6347,3.6284,3.5803,3.5499,3.5316,3.5316,3.4876,3.4487,3.4487,3.3884,3.3354,3.3319,3.2718,3.2304,3.2374,3.205,3.1914,3.2173,3.1023,2.9955,2.934,2.8499,2.7562,2.6624,2.5841,2.521,2.4807,2.4494,2.4348,2.4348,2.3809,2.3688,2.4025,2.3701,2.3604,2.3806,2.3986,2.3974,2.3794,2.3457,2.3125,4.5842,4.9336,5.3157,5.6861,5.9398,6.1418,6.2946,6.2764,6.1767,6.0072,5.8199,5.6519,5.5508,5.4403,5.4546,5.7335,5.7896,5.8925,6.1658,5.9696,5.8035,5.8262,5.5815,5.4155,5.4279,5.4949,5.6219,5.8176,5.894,5.9488,5.9971,5.9652,5.9083,5.8201,5.8171,5.7842,5.7154,5.6547,5.5278,5.3399,5.3277,5.2605,5.1374,4.991,4.8679,4.7651,4.6254,4.4563,4.2792,4.2744,4.2137,4.1311,4.1311,4.1311,4.1311,4.1311,4.1261,4.1104,4.0021,3.9677,3.9547,3.8945,3.8736,3.8572,3.8096,3.788,3.7808,3.7564,3.7505,3.7413,3.7155,3.6909,3.6709,3.6675,3.6534,3.6405,3.6405,3.5931,3.5495,3.5495,3.4605,3.3721,3.3131,3.2344,3.1976,3.267,3.1713,3.1193,3.1928,3.0877,2.9865,2.9287,2.8084,2.6939,2.5959,2.5875,2.5723,2.5312,2.5312,2.5312,2.5312,2.4772,2.4496,2.452,2.4462,2.4222,2.3811,2.4224,2.4178,2.3778,2.3721,2.3317,4.91,5.2868,5.6556,5.9367,6.1326,6.2255,6.1191,6.0435,5.8959,5.548,5.3079,5.1332,5.0359,5.0911,5.2487,5.5624,5.7904,6.0122,6.251,6.1844,6.0325,5.8136,5.7491,5.6488,5.4634,5.5702,5.6662,5.7041,5.7626,5.8585,5.994,5.9491,5.9078,5.886,5.886,5.853,5.7872,5.6942,5.547,5.3399,5.3441,5.2343,5.0205,4.8822,4.7568,4.6421,4.4453,4.3259,4.2744,4.2003,4.1547,4.1311,4.1311,4.1311,4.1311,4.1311,4.1147,4.0958,4.0659,4.0431,4.0122,3.956,3.8994,3.8462,3.8494,3.7922,3.7307,3.7459,3.7366,3.7155,3.6862,3.6769,3.6675,3.6499,3.6452,3.6405,3.6405,3.5931,3.5495,3.5495,3.4605,3.3596,3.2604,3.2408,3.2084,3.1304,3.1021,3.0957,3.118,3.0441,2.9441,2.8294,2.7886,2.7135,2.5796,2.5688,2.5571,2.5312,2.5312,2.5312,2.5312,2.4772,2.4699,2.5107,2.4155,2.3793,2.4037,2.358,2.3327,2.3203,2.2797,2.2417,5.2429,5.6121,5.9555,6.1322,6.2414,6.2579,6.0471,5.8859,5.6454,5.1735,4.9259,4.7552,4.6328,4.6802,4.8593,5.232,5.4868,5.7383,6.0363,6.0446,5.9753,5.8399,5.8204,5.7562,5.5973,5.7005,5.7743,5.7516,5.7781,5.8361,5.9289,5.9165,5.9099,5.9099,5.9099,5.865,5.7678,5.6545,5.4864,5.2644,5.271,5.1447,4.901,4.7957,4.6854,4.5749,0.0,4.2954,4.2461,4.1653,4.1311,4.1311,4.1311,4.1211,4.1097,4.1097,4.0946,4.0744,4.0744,4.0588,4.0363,3.9806,3.9294,3.8888,3.8799,3.8131,3.748,3.754,3.7254,3.6862,3.6628,3.6581,3.6534,3.6452,3.6405,3.6405,3.6405,3.6119,3.5768,3.5232,3.4487,3.3621,3.2742,3.2285,3.1798,3.1077,3.0635,3.0241,2.9731,2.9639,2.9236,2.8276,2.8077,2.7459,2.6079,2.5958,2.5742,2.5324,2.5312,2.5123,2.4791,2.4402,2.4165,2.4108,2.3413,2.3184,2.3441,2.3132,2.2947,2.2824,2.2516,2.2066,5.5535,5.8782,6.1771,6.2569,6.2713,6.2047,5.9695,5.6947,5.3479,4.8464,4.6092,4.4607,4.3491,4.3391,4.4892,4.921,5.1154,5.3535,5.7544,5.7852,5.8014,5.8951,5.8471,5.8019,5.7759,5.8624,5.9085,5.8798,5.8768,5.8723,5.8618,5.8961,5.9099,5.9099,5.9099,5.8447,5.7019,5.5826,5.3975,5.1582,5.1513,5.0233,4.7879,4.7229,4.6349,4.5232,4.4074,4.3115,4.2239,4.1664,4.1378,4.1378,4.1287,4.1097,4.0833,4.0833,4.0694,4.0453,4.0453,4.0402,4.0325,3.9852,3.9647,3.9493,3.9032,3.8421,3.7852,3.7658,3.7216,3.6716,3.6465,3.6405,3.6405,3.6405,3.6405,3.6405,3.6405,3.6405,3.6078,3.4939,3.4336,3.3809,3.3138,3.2098,3.1358,3.1317,3.0311,2.9157,2.8187,2.8755,2.8963,2.8255,2.8027,2.7412,2.6153,2.6032,2.572,2.5004,2.4933,2.46,2.3891,2.3697,2.3257,2.259,2.2478,2.244,2.244,2.2574,2.2537,2.2291,2.2253,2.1773,5.7721,5.9795,6.1552,6.2497,6.1532,5.9464,5.6035,5.1847,4.7738,4.4536,4.239,4.1508,4.2959,4.4431,4.6755,5.0821,5.2275,5.4502,5.9141,5.8714,5.8405,5.9652,5.9486,5.913,5.8862,5.9678,6.0123,5.9867,6.0099,5.9967,5.9379,5.9201,5.9099,5.9099,5.9099,5.8209,5.6472,5.5727,5.3866,5.096,5.0886,4.943,4.6744,4.6609,4.5641,4.4138,4.3414,0.0,4.2827,4.2252,4.1915,4.1684,4.1178,4.0795,4.0555,4.0555,4.0389,4.0185,4.0185,4.0032,3.9878,4.0236,3.9892,3.9359,3.9431,3.875,3.7923,3.7663,3.7364,3.6971,3.6518,3.6405,3.6405,3.6405,3.6405,3.6405,3.6405,3.6405,3.6078,3.4939,3.4605,3.4172,3.2984,3.1858,3.1083,3.0931,2.9322,2.8091,2.7879,2.8148,2.7683,2.6046,2.583,2.5369,2.4187,2.4087,2.3778,2.3106,2.3073,2.2925,2.2627,2.259,2.2478,2.2366,2.1935,2.168,2.168,2.1088,2.075,2.0673,2.0469,2.0206,6.0179,6.1765,6.2825,6.3803,6.1441,5.7818,5.3765,4.9346,4.5202,4.2077,4.1067,4.1089,4.2313,4.3684,4.5675,4.8828,4.9281,5.1243,5.6942,5.6284,5.631,5.9395,5.9583,5.9611,5.9795,6.0081,6.0217,6.0111,6.006,5.9973,5.9825,5.8743,5.8003,5.7679,5.6709,5.5594,5.4464,5.378,5.2433,5.0349,5.0023,4.8693,4.6503,4.6107,4.5393,4.4278,4.3716,4.3467,4.3389,4.2385,4.193,4.1724,4.0977,4.0542,4.0287,4.0287,4.0134,3.989,3.989,3.9788,3.9736,3.9993,3.9816,3.9512,3.9639,3.9095,3.8454,3.8289,3.795,3.7487,3.6983,3.6832,3.6722,3.6303,3.6193,3.6228,3.6358,3.605,3.5519,3.4707,3.423,3.3635,3.2698,3.1882,3.1031,3.0194,2.8994,2.7725,2.6412,2.6326,2.6225,2.5746,2.5612,2.5226,2.4407,2.4223,2.3928,2.3298,2.3139,2.2752,2.201,2.1894,2.1588,2.1068,2.0808,2.0663,2.0663,2.0411,2.0186,1.9921,2.001,1.9953,6.1885,6.3436,6.4181,6.4494,6.0804,5.5973,5.1822,4.7318,4.3246,4.0704,4.0625,4.1247,4.1942,4.2797,4.4151,4.6472,4.6315,4.7947,5.4017,5.3698,5.4409,5.8595,5.9349,5.9672,6.0144,6.0197,6.0197,6.0111,5.9523,5.9404,5.9847,5.8062,5.6851,5.6427,5.4656,5.3374,5.2673,5.2059,5.1084,4.9896,4.9223,4.8076,4.646,4.6016,4.5415,4.4709,4.4251,4.4055,0.0,4.2644,4.2009,4.175,4.0901,4.0338,4.0032,4.0032,3.989,3.9697,3.9697,3.9697,3.9697,3.9697,3.9697,3.9697,3.9697,3.9396,3.907,3.8957,3.8454,3.7889,3.7324,3.705,3.6766,3.6163,3.6015,3.6051,3.6275,3.5809,3.5183,3.4466,3.3802,3.3073,3.2135,3.1508,3.0608,2.9165,2.8303,2.7063,2.4935,2.45,2.4617,2.5231,2.5221,2.4924,2.4374,2.4167,2.3845,2.3264,2.302,2.2493,2.1469,2.1339,2.0912,2.0137,2.0167,2.012,2.0044,2.0288,2.0169,1.9736,2.0105,2.0167,6.1536,6.3593,6.465,6.2635,5.8081,5.3204,4.9726,4.4329,4.0171,4.0626,4.0447,4.0689,4.2329,4.2817,4.3722,4.6087,4.6379,4.7864,5.2264,5.3328,5.4688,5.7456,5.8806,5.9452,5.9243,6.0279,6.0666,6.0141,5.8967,5.8576,5.9164,5.7485,5.647,5.6427,5.5083,5.3812,5.2629,5.203,5.1161,4.9895,4.8793,4.7647,4.6473,4.6421,4.5794,4.4668,4.467,4.4494,0.0,4.3536,4.2661,4.175,4.1112,4.0371,3.9736,3.9736,3.9749,3.9697,3.9697,3.9697,3.9697,3.9697,3.9697,3.9697,3.9697,3.9659,3.9509,3.9057,3.8454,3.7889,3.7324,3.663,3.6077,3.6028,3.6015,3.6015,3.6015,3.5966,3.5536,3.4299,3.3973,3.3217,3.1033,3.0223,2.9348,2.7723,2.6322,2.5116,2.4272,2.3464,2.2916,2.2775,2.296,2.2795,2.2155,2.2074,2.1807,2.1108,2.1038,2.0903,2.0624,2.0834,2.0908,2.0787,2.0985,2.0888,2.056,2.0673,2.054,2.0155,2.0357,2.0466,6.1743,6.356,6.4218,6.3549,5.7936,5.1793,4.8691,4.3791,3.9916,3.9896,4.0316,4.081,4.1185,4.1731,4.2396,4.3192,4.2466,4.3666,4.899,4.8179,4.9459,5.5994,5.6658,5.7428,5.9729,6.0051,5.9621,5.8408,5.789,5.7205,5.64,5.4926,5.3833,5.3121,5.1878,5.081,4.9948,4.9768,4.9369,4.8852,4.8407,4.7584,4.6473,4.6473,4.5833,4.4668,4.4518,4.4422,0.0,4.3313,4.248,4.1719,4.0938,4.0278,3.9697,3.9697,3.9697,3.9697,3.9697,3.9697,3.9634,3.9308,3.9421,3.9697,3.9697,3.9206,3.8558,3.8338,3.7292,3.6276,3.6384,3.6101,3.5812,3.5968,3.6015,3.6015,3.6015,3.5872,3.5291,3.3601,3.2972,3.2055,3.0094,2.9406,2.8586,2.7086,2.6239,2.5088,2.3317,2.2472,2.1789,2.1031,2.1898,2.2463,2.2161,2.203,2.1867,2.1612,2.142,2.1265,2.1102,2.122,2.1193,2.1066,2.114,2.1055,2.0729,2.0764,2.068,2.0366,2.0123,2.0008,6.0102,6.2073,6.2811,6.2297,5.6649,5.04,4.7331,4.3167,3.9819,3.9497,4.0324,4.0995,4.0612,4.1141,4.1522,4.1323,4.0497,4.1541,4.6323,4.5314,4.667,5.3665,5.4327,5.5558,5.8926,5.9051,5.848,5.7314,5.6508,5.5479,5.4023,5.2557,5.1529,5.0939,4.973,4.8878,4.846,4.846,4.846,4.8447,4.8094,4.7427,4.6473,4.6303,4.5676,4.4668,4.4422,4.4463,0.0,4.3316,4.2567,4.2078,4.1115,4.0325,3.9697,3.9697,3.9697,3.9697,3.9697,3.9697,3.9634,3.9245,3.927,3.9446,3.9446,3.8745,3.7808,3.7216,3.6144,3.5305,3.5809,3.5793,3.5668,3.5812,3.5668,3.5404,3.5404,3.4957,3.4097,3.2486,3.1828,3.0953,2.9208,2.8571,2.7699,2.5832,2.5303,2.4335,2.1977,2.1367,2.0835,1.9982,2.0938,2.1554,2.1482,2.1509,2.1588,2.1588,2.1731,2.1736,2.1571,2.1693,2.1682,2.1476,2.1476,2.1325,2.1025,2.0753,2.054,2.0269,1.9692,1.9142,5.5958,5.8806,6.038,5.7656,5.3227,4.8678,4.5379,4.1832,3.9309,3.9694,4.0469,4.1117,4.1102,4.1372,4.1522,4.1323,4.1886,4.3008,4.4865,4.6468,4.8219,5.0309,5.2199,5.4077,5.6057,5.7113,5.7552,5.7258,5.4946,5.3299,5.2642,5.0897,5.0254,5.0868,4.973,4.9087,4.9074,4.9074,4.9074,4.9061,4.7898,4.7035,4.646,4.5898,4.531,4.4668,4.4422,4.4763,0.0,4.3962,4.3239,4.2879,4.1732,4.0664,3.9697,3.9697,3.9697,3.9697,3.9697,3.9697,3.9697,3.9685,3.932,3.8932,3.8932,3.845,3.7512,3.563,3.5282,3.5518,3.5899,3.5783,3.562,3.562,3.4799,3.4042,3.4042,3.2978,3.1788,3.0952,3.0815,3.0212,2.8275,2.7708,2.6496,2.3496,2.2854,2.2082,2.0241,1.9998,1.995,1.9731,1.9723,1.9581,1.9281,1.9912,2.0294,2.0294,2.1445,2.1963,2.1731,2.2122,2.2299,2.2087,2.2087,2.1873,2.1497,2.0686,2.0097,1.971,1.9076,1.774,5.2102,5.3774,5.439,5.3347,4.9646,4.5651,4.3252,4.0997,3.9247,3.8698,3.9134,3.9667,3.9667,3.9958,4.0576,4.1859,4.2265,4.3059,4.4892,4.6043,4.7998,5.1519,5.5274,5.7689,5.8151,5.7704,5.6976,5.6021,5.4442,5.2715,5.085,5.097,5.1053,5.0851,5.0044,5.0056,5.089,5.0903,5.044,4.9657,4.8892,4.7787,4.646,4.5705,4.5009,4.4422,4.3903,4.4261,0.0,4.3713,4.3102,4.2879,4.1732,4.0664,3.9697,3.9697,3.9697,3.9697,3.9697,3.9697,3.9572,3.8793,3.8213,3.7451,3.5568,3.5231,3.4838,3.2008,3.2019,3.2778,3.231,3.2791,3.3438,3.3659,3.3438,3.3116,3.2978,3.2426,3.1622,3.0397,2.9322,2.802,2.6475,2.521,2.4007,2.2841,2.2445,2.175,2.0264,1.9711,1.9176,1.8371,1.7887,1.8089,1.9099,2.0044,2.0477,2.0311,2.1266,2.1874,2.1963,2.2141,2.1856,2.1105,2.106,2.0594,1.9664,1.9418,1.8479,1.7021,1.6843,1.567,4.7353,4.9213,4.9868,4.9024,4.652,4.3716,4.16,4.0119,3.8968,3.8169,3.8591,3.9169,3.9339,3.9392,3.9991,4.17,4.193,4.2523,4.4288,4.5828,4.8247,5.2245,5.6096,5.815,5.7476,5.7044,5.6208,5.4797,5.3978,5.2729,5.095,5.1841,5.2299,5.2142,5.1127,5.0962,5.1688,5.1688,5.0961,4.9589,4.9006,4.7775,4.5952,4.5213,4.4594,4.4107,4.3628,4.4029,0.0,4.3385,4.2802,4.2853,4.1504,4.0488,3.9697,3.9697,3.9697,3.9697,3.9697,3.9697,3.9546,3.863,3.7565,3.6084,3.3157,3.241,3.2275,3.0743,3.0869,3.141,3.1346,3.1922,3.2588,3.2639,3.2314,3.1938,3.1644,3.071,2.9619,2.8671,2.7269,2.5916,2.4763,2.3643,2.2645,2.1856,2.1416,2.0727,1.948,1.8914,1.8356,1.7687,1.7255,1.7365,1.8193,1.9098,1.9481,1.918,2.0158,2.0763,2.0853,2.0943,2.0656,1.9914,1.9914,1.9559,1.8788,1.8033,1.6612,1.4626,1.3843,1.2737,0.0,4.4949,4.6324,4.4678,4.367,4.2484,4.0329,3.9223,0.0,3.8028,3.8592,3.9328,3.9918,3.9578,3.9738,4.1276,4.1377,4.1797,4.3313,4.6036,4.9212,5.2791,5.5249,5.6174,5.482,5.5487,5.5299,5.3617,5.3456,5.3111,5.2469,5.3169,5.372,5.4124,5.2701,5.1917,5.196,5.1861,5.097,4.9336,4.8614,4.7201,4.5295,4.4571,4.4107,0.0,4.3572,0.0,0.0,4.3057,4.259,4.2814,4.1176,4.0174,3.9697,3.9697,3.9697,3.9697,3.9697,3.9672,3.9534,3.8779,3.7081,3.4693,3.156,3.0243,3.0137,3.1221,3.1206,3.1158,3.2232,3.2541,3.2499,3.2275,3.1276,3.0348,3.0099,2.8106,2.6291,2.6045,2.4994,2.3897,2.3228,2.2788,2.208,2.0617,2.0003,1.9277,1.8191,1.7829,1.7629,1.7589,1.7582,1.7348,1.6754,1.7386,1.7699,1.7301,1.8411,1.9001,1.8788,1.8964,1.8964,1.8703,1.8557,1.8465,1.8465,1.6518,1.453,1.2436,1.052,0.949,3.834,0.0,3.9906,4.0255,3.998,3.9437,0.0,3.8262,3.8029,3.7495,3.748,3.8107,3.9908,3.925,3.9644,4.3302,4.3324,4.329,4.4606,4.8635,5.2686,5.5893,5.7159,5.7191,5.58,5.4756,5.3951,5.3557,5.3016,5.2515,5.1918,5.3275,5.3708,5.2845,5.3319,5.3868,5.4355,5.3352,5.2442,5.1595,4.9718,4.7977,4.6353,4.4723,4.3819,4.3572,4.4152,0.0,4.4738,4.3828,4.3243,4.2814,4.1176,4.0174,3.9697,3.9697,3.9697,3.9697,3.9697,3.9421,3.8628,3.6001,3.398,3.2177,3.012,3.021,3.0734,2.9504,2.9463,2.9779,2.9947,2.9983,2.9995,3.0203,2.9009,2.7766,2.7722,2.62,2.4782,2.4727,2.3567,2.2484,2.2045,2.1149,2.0295,1.9718,1.9542,1.9224,1.8499,1.8323,1.8096,1.7635,1.7582,1.7348,1.6754,1.7577,1.7884,1.7315,1.8288,1.8834,1.8788,1.8834,1.8473,1.7645,1.6129,1.5378,1.533,1.407,1.2372,1.0324,0.9833,0.8664,3.6203,3.7227,3.8098,3.8623,3.8858,3.8825,3.8309,3.7964,3.7695,3.7408,3.7285,3.7775,3.9582,3.8701,3.8858,4.254,4.262,4.3463,4.7097,5.0104,5.3268,5.695,5.7151,5.6687,5.5798,5.502,5.4139,5.3117,5.3782,5.3834,5.2939,5.4031,5.4274,5.3259,5.3283,5.3608,5.4266,5.3548,5.2422,5.0803,4.9437,4.7622,4.5439,4.421,4.353,4.3295,4.4248,0.0,4.3563,4.3478,4.2801,4.1748,4.0599,3.9961,3.9697,3.9697,3.9697,3.9659,3.9408,3.8465,3.6906,3.417,3.2534,3.1268,2.9586,2.9654,3.0062,2.867,2.8682,2.9035,2.8947,2.8591,2.8315,2.8349,2.7086,2.5882,2.5709,2.4441,2.3231,2.3103,2.1941,2.0945,2.0651,2.004,1.9543,1.9243,1.9052,1.8798,1.8343,1.8163,1.7949,1.7615,1.7582,1.7402,1.6947,1.7282,1.7232,1.6664,1.7131,1.7404,1.7404,1.7404,1.6936,1.5954,1.4376,1.3318,1.2883,1.1799,1.0471,0.8852,0.7484,0.6217,3.5398,3.6977,3.8241,3.8066,3.8666,3.9108,3.8335,3.7752,3.745,3.748,3.7559,3.7987,3.9235,3.8466,3.8513,4.1196,4.1819,4.4087,5.0328,5.1257,5.281,5.691,5.6207,5.5275,5.496,5.5173,5.4538,5.2656,5.4686,5.5533,5.4351,5.4805,5.4745,5.4072,5.2845,5.2411,5.2875,5.2875,5.1729,4.9396,4.886,4.7085,4.43,4.3835,4.3356,4.296,0.0,0.0,4.2091,4.263,4.1917,4.0463,3.991,3.9697,3.9697,3.9697,3.9697,3.9609,3.8804,3.7017,3.4784,3.2871,3.1747,3.0794,2.9323,2.8688,2.8475,2.7897,2.8067,2.8451,2.8451,2.7726,2.6997,2.6653,2.5434,2.4283,2.4005,2.2669,2.1373,2.1066,2.0178,1.9403,1.9127,1.9243,1.9265,1.8965,1.8718,1.8437,1.8035,1.7816,1.7635,1.7589,1.7424,1.7232,1.6902,1.6493,1.5952,1.5382,1.5493,1.5493,1.5343,1.5343,1.4914,1.4052,1.2872,1.1799,1.0974,0.9735,0.8502,0.727,0.4841,0.34,3.6456,3.7312,3.7145,3.5996,3.7112,3.815,3.6845,3.682,3.7151,3.745,3.7864,3.8418,3.9188,3.9953,4.1075,4.2862,4.5378,4.8771,5.3647,5.3585,5.3997,5.6623,5.5266,5.3837,5.2865,5.309,5.3084,5.2555,5.4033,5.475,5.4308,5.431,5.4042,5.3354,5.2591,5.1977,5.1528,5.1528,5.1453,5.1351,4.982,4.81,4.624,4.5289,4.3935,4.2381,0.0,4.2986,4.1471,4.2074,4.1595,4.0463,3.991,3.9697,3.9697,3.9697,3.9697,3.9431,3.7458,3.5097,3.2738,3.1969,3.038,2.8595,2.7868,2.6943,2.6,2.5443,2.6155,2.7149,2.7149,2.6381,2.5452,2.5113,2.3894,2.2741,2.2523,2.0386,1.8538,1.8474,1.8144,1.7864,1.7812,1.8706,1.9265,1.8965,1.8885,1.8664,1.8062,1.7949,1.7876,1.7609,1.6717,1.5983,1.5548,1.4542,1.3691,1.3195,1.4046,1.4094,1.321,1.3162,1.3119,1.2926,1.1058,0.9981,0.9833,0.7859,0.5969,0.427,0.3809,0.2228,3.53,3.6269,3.6483,3.5318,3.687,3.8294,3.6842,3.6765,3.7139,3.7667,3.7965,3.8435,3.9499,4.0663,4.2408,4.525,4.8159,5.0805,5.2772,5.3153,5.3745,5.501,5.34,5.2527,5.3579,5.3537,5.3498,5.3697,5.4599,5.4908,5.4259,5.3536,5.298,5.2665,5.2007,5.1528,5.1214,5.1058,5.078,5.0369,4.881,4.7276,4.578,4.4235,4.3028,4.2242,0.0,4.2394,4.0918,4.1828,4.1338,4.0049,3.9798,3.9697,3.9633,3.8985,3.8007,3.6793,3.5167,3.3182,3.1211,3.0088,2.8512,2.6952,2.6756,2.6222,2.5546,2.5091,2.5325,2.5709,2.5709,2.4901,2.3911,2.3567,2.187,2.0221,1.9876,1.8189,1.668,1.668,1.6568,1.6469,1.6326,1.6774,1.7047,1.6632,1.6572,1.6434,1.5934,1.5887,1.5833,1.5707,1.5102,1.4582,1.4286,1.3456,1.2875,1.271,1.3167,1.3216,1.2727,1.1599,1.1009,1.1009,0.8939,0.7654,0.7205,0.5359,0.381,0.2458,0.0745,-0.0836,3.4374,3.5319,3.5946,3.5323,3.6998,3.8543,3.7515,3.7375,3.781,3.8964,3.9073,3.9275,4.0255,4.169,4.3932,4.7521,5.0417,5.2291,5.2464,5.2981,5.3584,5.4118,5.2382,5.2007,5.4261,5.4131,5.4078,5.4342,5.4917,5.4853,5.3997,5.2845,5.2202,5.2202,5.1558,5.1167,5.112,5.0902,5.0364,4.9479,4.7962,4.6504,4.513,4.3244,4.2141,4.1798,4.2224,4.1619,4.0377,4.1273,4.0863,3.9685,3.9546,3.9342,3.8943,3.7665,3.5829,3.3891,3.2885,3.1262,2.9487,2.8232,2.6837,2.5684,2.56,2.5252,2.4798,2.4448,2.4127,2.3958,2.4236,2.3407,2.2297,2.1714,1.9876,1.8085,1.7495,1.6208,1.5154,1.5154,1.5154,1.5081,1.4903,1.5093,1.5156,1.4673,1.4597,1.4461,1.4164,1.4024,1.4024,1.4024,1.3485,1.291,1.2216,1.1415,1.1012,1.1059,1.1502,1.1692,1.14,0.9629,0.8541,0.8283,0.6404,0.5014,0.4161,0.2504,0.1252,0.04,-0.2223,-0.3734,3.5129,3.5351,3.5316,3.5808,3.7151,3.8404,3.8601,3.8758,3.9572,4.2205,4.2252,4.1797,4.1686,4.382,4.6454,4.9108,5.1951,5.4267,5.552,5.4764,5.4367,5.5096,5.3536,5.2701,5.3401,5.3866,5.3881,5.3433,5.3848,5.3857,5.3313,5.2591,5.2202,5.2202,5.1558,5.1073,5.0807,5.0807,5.0695,5.039,4.8468,4.6823,4.5427,4.3715,4.2098,4.0626,4.0641,4.0314,3.9747,3.9851,3.9825,3.9647,3.9132,3.8284,3.7104,3.5584,3.375,3.1978,3.1176,2.9253,2.7188,2.6754,2.5812,2.4773,2.4204,2.326,2.2321,2.2037,2.1683,2.1702,2.2813,2.2013,2.0479,1.9022,1.8319,1.7554,1.6096,1.4738,1.3844,1.3844,1.3844,1.3782,1.3576,1.4518,1.5156,1.4673,1.4597,1.4461,1.4164,1.3863,1.3755,1.3755,1.2512,1.0695,0.8424,0.6951,0.6193,0.6228,0.7999,0.8643,0.7614,0.652,0.5411,0.4447,0.3253,0.2154,0.1101,-0.0751,-0.2054,-0.2858,-0.3854,-0.5252,3.4652,3.5319,3.588,3.657,3.7839,3.8967,3.9201,4.0006,4.1255,4.302,4.3886,4.4514,4.5272,4.6614,4.8317,5.0559,5.3651,5.558,5.5132,5.5257,5.5126,5.4444,5.3232,5.2771,5.3511,5.3416,5.3377,5.3475,5.2888,5.2341,5.1962,5.0945,5.0376,5.0376,4.9984,4.9697,4.9604,4.9341,4.9122,4.9043,4.7355,4.6201,4.541,4.2684,4.1098,4.0501,4.0162,3.9885,3.9697,3.9697,3.9697,3.9583,3.8393,3.5926,3.3071,3.2768,3.1112,2.8916,2.8652,2.7401,2.5939,2.5592,2.453,2.3436,2.3389,2.2848,2.2112,2.206,2.1767,2.1627,2.2075,2.1573,2.0558,1.8797,1.767,1.6545,1.4793,1.3435,1.2548,1.2548,1.2548,1.2423,1.2233,1.2499,1.2701,1.2493,1.2312,1.1835,1.0869,1.0555,1.0096,0.9157,0.8314,0.7382,0.6207,0.5574,0.5199,0.5199,0.6259,0.6681,0.6281,0.4541,0.3407,0.3003,0.0801,-0.0801,-0.1703,-0.3254,-0.4409,-0.5216,-0.6365,-0.7273,3.3461,3.4324,3.5313,3.5974,3.7729,3.9609,4.0885,4.203,4.3417,4.5434,4.6034,4.6634,4.8004,4.8281,4.9112,5.1621,5.433,5.5816,5.4979,5.5233,5.5065,5.3918,5.2994,5.2744,5.348,5.3051,5.2778,5.2828,5.1857,5.1088,5.0616,4.9748,4.9314,4.9314,4.9058,4.8877,4.8786,4.8387,4.7969,4.7565,4.6084,4.5243,4.4854,4.1673,4.0262,4.0224,3.9672,3.9534,3.9672,3.9308,3.8841,3.8171,3.6025,3.3315,3.0575,3.0062,2.8593,2.6803,2.656,2.5674,2.4604,2.4204,2.3357,2.247,2.264,2.2385,2.1971,2.1539,2.1185,2.0868,2.0639,2.0582,1.9997,1.7805,1.6552,1.5363,1.3523,1.2466,1.1776,1.1776,1.1776,1.1715,1.1533,1.1395,1.1273,1.1159,1.0535,0.9735,0.8779,0.8084,0.7193,0.6084,0.5361,0.4888,0.4671,0.386,0.3347,0.3347,0.3341,0.3653,0.4389,0.2076,0.0601,0.025,-0.2002,-0.3557,-0.4464,-0.5663,-0.6515,-0.7074,-0.8226,-0.8783,3.1595,3.226,3.3253,3.3795,3.6604,4.0202,4.3981,4.498,4.616,4.9951,4.9066,4.805,4.9435,4.8573,4.8743,5.2144,5.3837,5.4916,5.5506,5.4746,5.4024,5.3823,5.2914,5.2515,5.3121,5.2846,5.2199,5.1259,5.0832,5.0216,4.9344,4.9299,4.9299,4.9299,4.8998,4.8771,4.8496,4.8295,4.7489,4.6145,4.4888,4.4054,4.3597,4.09,3.9672,3.9647,3.9094,3.917,3.9597,3.8467,3.7011,3.5246,3.1978,3.0608,3.012,2.7469,2.6281,2.5878,2.5035,2.4022,2.3026,2.2678,2.2387,2.2037,2.1818,2.1701,2.1393,2.0187,1.9553,1.9102,1.8386,1.8638,1.8445,1.5611,1.4699,1.4033,1.2332,1.1894,1.1776,1.1776,1.1776,1.1719,1.1533,1.15,1.1378,1.1029,0.9656,0.8633,0.8488,0.6864,0.5641,0.5361,0.4247,0.3525,0.3525,0.1344,0.0,-0.0056,-0.1157,-0.0805,0.1552,-0.1217,-0.3316,-0.442,-0.5214,-0.6169,-0.7235,-0.8035,-0.8432,-0.8432,-0.9229,-0.9628,3.2579,3.3361,3.4905,3.6524,3.8996,4.1957,4.5456,4.633,4.7329,5.071,5.0159,4.9343,5.0236,5.0051,5.0266,5.1759,5.3144,5.4159,5.4688,5.4319,5.3954,5.3674,5.3233,5.2847,5.2498,5.2369,5.1785,5.0569,5.0004,4.9359,4.8655,4.8132,4.779,4.7599,4.7377,4.7154,4.6871,4.6674,4.5821,4.4307,4.3183,4.248,4.2017,4.0265,3.9113,3.8504,3.8329,3.8354,3.8429,3.7317,3.5016,3.2082,3.1085,2.8981,2.6363,2.5624,2.4684,2.3853,2.3416,2.3029,2.2707,2.2369,2.2154,2.2082,2.2083,2.127,2.0312,1.9891,1.89,1.7713,1.6632,1.6451,1.6222,1.513,1.458,1.381,1.2206,1.1813,1.1776,1.1776,1.1776,1.1696,1.1391,1.0495,0.9707,0.9483,0.8058,0.6306,0.4298,0.268,0.1342,0.0447,0.0,-0.0224,-0.0224,-0.0839,-0.1511,-0.2123,-0.3677,-0.3656,-0.163,-0.3153,-0.4626,-0.5805,-0.7356,-0.846,-0.916,-0.9957,-1.0355,-1.0404,-1.113,-1.1517,3.2146,3.3428,3.5404,3.7094,4.0075,4.3551,4.7163,4.863,4.9916,5.2375,5.1405,5.0451,5.1682,5.1021,5.0774,5.2267,5.3191,5.3853,5.4294,5.3937,5.3501,5.3215,5.272,5.2247,5.1843,5.1573,5.099,4.9927,4.9,4.8312,4.7923,4.7279,4.6776,4.653,4.6313,4.5976,4.5449,4.5258,4.4271,4.2518,4.204,4.11,3.9736,3.91,3.8554,3.799,3.7357,3.6937,3.6591,3.4661,3.2498,3.019,2.8858,2.6892,2.4723,2.4287,2.3624,2.2958,2.2683,2.2513,2.2374,2.2065,2.1844,2.1765,2.1796,2.0756,1.9475,1.8998,1.7805,1.6414,1.5095,1.4555,1.4302,1.4146,1.3821,1.3184,1.2113,1.1825,1.1591,1.0914,1.0793,1.0543,0.9684,0.882,0.8156,0.7948,0.6045,0.3837,0.1622,0.0112,-0.1008,-0.1735,-0.2347,-0.268,-0.268,-0.3624,-0.451,-0.5006,-0.6496,-0.6929,-0.597,-0.6543,-0.719,-0.7796,-0.9251,-1.0154,-1.0498,-1.0944,-1.1194,-1.1194,-1.1673,-1.2004,3.1115,3.2924,3.5227,3.6616,4.0693,4.5333,4.9108,5.139,5.3037,5.4176,5.259,5.1513,5.3298,5.1621,5.079,5.3314,5.3668,5.376,5.4172,5.348,5.2804,5.2522,5.173,5.1199,5.1124,5.0539,4.9912,4.9194,4.7982,4.7249,4.713,4.6561,4.609,4.5862,4.5633,4.5138,4.4265,4.4008,4.2887,4.0933,4.1204,3.9811,3.7048,3.7648,3.7849,3.7627,3.6112,3.5125,3.428,3.1164,2.9684,2.911,2.5982,2.4671,2.4458,2.3392,2.2958,2.2901,2.2626,2.2343,2.2002,2.1717,2.136,2.0988,2.0988,1.9984,1.8577,1.7465,1.6256,1.5028,1.3737,1.2964,1.2496,1.2677,1.2549,1.2254,1.1819,1.1573,1.0914,0.9383,0.9076,0.8584,0.7109,0.674,0.6547,0.6046,0.3646,0.1286,-0.0336,-0.1511,-0.2237,-0.2516,-0.3734,-0.4505,-0.4505,-0.6769,-0.8207,-0.8262,-0.938,-1.0228,-1.0724,-1.054,-1.0351,-1.0199,-1.0988,-1.134,-1.134,-1.1389,-1.1389,-1.134,-1.1389,-1.1819,3.2728,3.385,3.5833,3.9712,4.4577,4.9061,5.1498,5.2406,5.2652,5.2406,5.2729,5.3037,5.2944,5.2452,5.2421,5.3545,5.3283,5.3069,5.3468,5.2748,5.2107,5.186,5.1445,5.1005,5.045,5.027,4.9493,4.7848,4.7459,4.6845,4.5783,4.5589,4.5347,4.491,4.4868,4.4554,4.4065,4.3224,4.2024,0.0,3.9731,3.8141,3.5906,3.6816,3.6544,3.5324,3.4281,3.3256,3.2199,2.988,2.7873,2.6149,2.4843,2.3787,2.302,2.3023,2.2853,2.2626,2.2343,2.2002,2.1725,2.1439,2.0323,1.9135,1.9135,1.7404,1.5337,1.5046,1.4188,1.3264,1.2953,1.179,1.0706,1.0509,1.0435,1.0282,0.9978,0.9092,0.8155,0.7548,0.7426,0.7215,0.6529,0.5614,0.4123,0.1793,0.0114,-0.1757,-0.4242,-0.4792,-0.5733,-0.7837,-0.8388,-0.8553,-0.8553,-0.9106,-0.9717,-1.0378,-1.1097,-1.18,-1.2447,-1.1189,-1.0793,-1.1541,-1.2301,-1.2597,-1.2467,-1.3039,-1.3039,-1.2467,-1.3039,-1.342,3.2835,3.4623,3.767,4.3215,4.7382,5.062,5.2313,5.2713,5.2606,5.2252,5.2744,5.3129,5.2775,5.2713,5.2821,5.3175,5.2944,5.2731,5.2826,5.2368,5.1774,5.1196,5.0874,5.0496,4.9838,4.9209,4.8401,4.7384,4.6411,4.5708,4.5319,4.5005,4.4661,4.4329,4.3909,4.3211,4.2136,4.1227,3.9931,3.8212,3.7719,3.6522,3.4763,3.5557,3.5236,3.3924,3.251,3.1542,3.0756,2.7625,2.5929,2.5188,2.3889,2.3023,2.2529,2.2887,2.2845,2.257,2.223,2.1831,2.1439,2.1081,1.9754,1.8348,1.8348,1.6429,1.4176,1.4176,1.2998,1.1593,1.1394,1.0232,0.8959,0.8664,0.8526,0.8477,0.8176,0.7585,0.6815,0.589,0.5681,0.5212,0.3609,0.2194,0.0525,-0.1547,-0.3009,-0.4557,-0.6619,-0.7334,-0.8222,-0.9665,-1.0441,-1.0824,-1.0824,-1.1642,-1.2257,-1.2544,-1.3121,-1.3419,-1.342,-1.2725,-1.2466,-1.2716,-1.3559,-1.3944,-1.3859,-1.4238,-1.4238,-1.3859,-1.3619,-1.3769,3.2413,3.5573,3.9967,4.5819,4.8804,5.0728,5.2206,5.2544,5.2575,5.2698,5.2713,5.2713,5.2713,5.2621,5.2544,5.2544,5.2436,5.227,5.206,5.1804,5.1349,5.0593,5.0109,4.9643,4.8985,4.7848,4.704,4.68,4.514,4.4332,4.4766,4.4167,4.3688,4.346,4.2765,4.1627,4.0114,3.9126,3.7867,3.6318,3.5909,3.503,3.3771,3.3945,3.3633,3.2777,3.0851,2.9907,2.9421,2.5401,2.4217,2.4775,2.2922,2.2251,2.2347,2.2648,2.259,2.2363,2.2012,2.1526,2.0937,2.0402,1.9015,1.7528,1.7359,1.5558,1.3495,1.3315,1.1793,1.009,0.9565,0.8368,0.7166,0.6791,0.6334,0.5994,0.6061,0.5852,0.5158,0.359,0.3253,0.2443,0.006,-0.1745,-0.3244,-0.4254,-0.5826,-0.7381,-0.8643,-0.9702,-1.0433,-1.0655,-1.181,-1.2526,-1.2526,-1.3835,-1.457,-1.437,-1.4761,-1.4738,-1.4115,-1.4338,-1.4211,-1.3711,-1.4508,-1.4949,-1.4997,-1.5134,-1.5255,-1.5341,-1.4022,-1.4027,3.2452,3.7124,4.2014,4.5087,4.7388,4.9404,5.139,5.1836,5.2006,5.259,5.2713,5.2713,5.2713,5.2236,5.1836,5.1836,5.1344,5.0959,5.0915,5.0537,5.0241,5.0106,4.9163,4.8282,4.7638,4.689,4.5935,4.4811,4.3902,4.3254,4.2815,4.2132,4.162,4.1233,4.1106,4.073,4.0101,3.8435,3.7475,3.7207,3.5153,3.384,3.3169,3.1957,3.1317,3.1108,2.9592,2.8461,2.7519,2.4328,2.3261,2.3474,2.1791,2.1262,2.1579,2.1712,2.1751,2.1628,2.1071,2.0656,2.0209,1.8903,1.7061,1.5248,1.4256,1.2744,1.1218,1.0126,0.9556,0.8971,0.7852,0.6334,0.5071,0.4772,0.2866,0.1504,0.2792,0.1997,0.053,-0.0945,-0.1458,-0.1788,-0.2193,-0.4133,-0.5802,-0.6239,-0.8225,-1.0257,-1.1946,-1.2276,-1.2886,-1.4159,-1.4487,-1.46,-1.46,-1.4821,-1.4917,-1.4883,-1.4965,-1.4999,-1.4931,-1.4954,-1.4834,-1.4524,-1.4667,-1.4825,-1.4997,-1.571,-1.6306,-1.6773,-1.5386,-1.5501,3.4387,3.7624,4.0851,4.4194,4.6265,4.8019,5.0112,5.0867,5.1113,5.1036,5.1313,5.1821,5.2575,5.2159,5.1698,5.1698,5.1144,5.0639,5.0493,4.997,4.9387,4.8732,4.7882,4.7034,4.6247,4.5274,4.4421,4.3768,4.2821,4.1953,4.1294,4.0995,4.0539,3.9869,3.9402,3.8961,3.8552,3.675,3.5409,3.4451,3.3428,3.2399,3.1374,3.0446,2.9887,2.9613,2.8202,2.7206,2.6338,2.3654,2.2773,2.3035,2.1526,2.0924,2.1006,2.1463,2.1418,2.0916,1.9862,1.9175,1.8548,1.7123,1.535,1.3719,1.3225,1.1521,0.9665,0.9109,0.7874,0.6544,0.598,0.449,0.292,0.2096,0.0777,-0.0658,-0.1952,-0.1685,-0.1525,-0.2393,-0.3739,-0.4837,-0.5062,-0.7249,-0.9201,-1.0015,-1.1185,-1.2462,-1.3825,-1.404,-1.4261,-1.4928,-1.4987,-1.4987,-1.4987,-1.5719,-1.6011,-1.5704,-1.6749,-1.7171,-1.6703,-1.6998,-1.6775,-1.5868,-1.5789,-1.6031,-1.6621,-1.7132,-1.7814,-1.8659,-1.7315,-1.6995,3.5149,3.7079,3.9096,4.2294,4.4386,4.6189,4.8214,4.9297,4.982,4.9481,4.9959,5.0743,5.1759,5.1528,5.1128,5.0944,5.0343,4.9793,4.9423,4.8909,4.821,4.7314,4.6403,4.5556,4.484,4.3629,4.2865,4.2836,4.1773,4.0846,4.0187,3.9978,3.948,3.8572,3.7955,3.7441,3.7058,3.5358,3.3648,3.2001,3.1793,3.1023,2.9863,2.9,2.8382,2.7901,2.6914,2.6119,2.5369,2.3045,2.2371,2.2595,2.0838,2.0084,2.0054,2.0217,1.9957,1.941,1.8155,1.7353,1.6691,1.53,1.3886,1.2704,1.2432,1.0706,0.8639,0.8034,0.6143,0.415,0.3331,0.2007,0.0569,-0.0449,-0.1434,-0.2881,-0.5586,-0.5208,-0.4473,-0.4989,-0.6491,-0.7816,-0.8145,-1.0136,-1.1959,-1.2881,-1.3496,-1.4164,-1.5089,-1.525,-1.5357,-1.5618,-1.5672,-1.5779,-1.6033,-1.7028,-1.7414,-1.6978,-1.8393,-1.8906,-1.8238,-1.8671,-1.8419,-1.7353,-1.7271,-1.7526,-1.8015,-1.8495,-1.929,-2.0411,-1.9002,-1.8589,3.3107,3.5266,3.7544,3.8739,4.1043,4.3499,4.538,4.6819,4.7942,4.8543,4.9235,4.9758,4.982,4.982,4.9574,4.8881,4.8204,4.7542,4.6896,4.6588,4.6356,4.6123,4.4785,4.3732,4.3434,4.2252,4.1489,4.1489,4.0846,4.0172,3.9514,3.8856,3.8037,3.7063,3.6969,3.6743,3.6367,3.4756,3.3079,3.1436,3.0587,2.988,2.9292,2.7583,2.6491,2.5937,2.5874,2.5348,2.443,2.2495,2.1934,2.1977,1.9103,1.8168,1.8279,1.7055,1.6574,1.6429,1.5809,1.5352,1.4916,1.344,1.2713,1.2214,1.1139,0.986,0.8309,0.5854,0.4018,0.2069,-0.0653,-0.1656,-0.207,-0.2461,-0.44,-0.6339,-0.6767,-0.8441,-1.0111,-1.0879,-1.113,-1.1243,-1.1298,-1.2349,-1.3285,-1.3593,-1.4648,-1.5476,-1.5838,-1.5838,-1.6258,-1.7371,-1.7477,-1.7891,-1.8916,-1.9072,-1.9057,-1.9073,-1.9154,-1.9206,-1.9155,-1.9184,-1.9052,-1.868,-1.892,-1.8818,-1.8289,-1.9326,-2.0549,-2.1846,-2.011,-2.0191,3.3594,3.4466,3.5694,3.7748,3.9546,4.1334,4.3355,4.4756,4.5726,4.5972,4.6573,4.7065,4.7065,4.8112,4.9066,4.9266,4.8343,4.7527,4.7281,4.6337,4.541,4.4786,4.3717,4.2634,4.1534,4.0651,3.9933,3.9499,3.8856,3.8197,3.7569,3.7182,3.658,3.5672,3.5521,3.5062,3.4112,3.312,3.185,3.0369,2.9483,2.8497,2.7347,2.6252,2.5471,2.4904,2.3784,2.3404,2.3507,2.2022,2.0785,1.9641,1.7985,1.6987,1.6459,1.6185,1.5917,1.5534,1.4439,1.3872,1.3331,1.1905,1.1396,1.1232,1.0798,0.9291,0.7272,0.5437,0.3096,0.0696,-0.1231,-0.2243,-0.3286,-0.5273,-0.8199,-1.0784,-1.1309,-1.0875,-1.062,-1.1508,-1.2312,-1.3036,-1.3649,-1.4733,-1.5494,-1.5595,-1.5986,-1.6311,-1.6418,-1.6418,-1.6524,-1.6743,-1.7417,-1.7937,-1.8146,-1.9487,-2.0169,-1.991,-2.0817,-2.1255,-2.1028,-2.1231,-2.0982,-2.0135,-2.0974,-2.0806,-1.9732,-2.025,-2.1186,-2.2397,-2.1718,-2.1658,3.3743,3.4026,3.4738,3.6856,3.82,3.9431,4.1081,4.2832,4.3962,4.3635,4.4468,4.5275,4.5275,4.6159,4.7219,4.8158,4.7527,4.685,4.6619,4.5501,4.445,4.3738,4.2554,4.1339,4.0194,3.926,3.8556,3.8093,3.7659,0.0,3.6455,3.6261,3.568,3.4452,3.4283,3.348,3.1968,3.151,3.0469,2.8808,2.7921,2.6869,2.5667,2.4891,2.4352,2.3969,2.2464,2.222,2.2814,2.09,1.9434,1.8182,1.6504,1.5426,1.4806,1.4723,1.4417,1.3875,1.3048,1.2427,1.1932,1.1017,1.0692,1.0637,1.0194,0.8635,0.6566,0.4283,0.1753,-0.0695,-0.2657,-0.4134,-0.5939,-0.8801,-1.1372,-1.3414,-1.4415,-1.3303,-1.238,-1.3267,-1.4079,-1.4821,-1.5435,-1.6193,-1.6677,-1.6677,-1.6677,-1.6836,-1.7199,-1.7252,-1.7509,-1.8028,-1.8805,-1.9324,-1.9539,-2.0877,-2.1601,-2.137,-2.2298,-2.2741,-2.249,-2.2715,-2.2485,-2.1607,-2.2333,-2.2214,-2.1204,-2.1391,-2.1869,-2.2594,-2.2474,-2.2158,0.0,0.0,0.0,3.5883,3.688,3.7779,3.8573,4.0906,4.2617,4.1653,4.3068,4.4484,4.4516,4.4024,4.4009,4.5318,4.5549,4.5295,4.4671,4.3972,4.3376,4.297,4.1201,3.9793,3.937,3.8153,3.7375,3.736,3.7345,3.7007,3.6227,3.613,3.5331,3.3555,3.3262,3.2146,3.0121,3.0035,2.8931,2.6852,2.5984,2.5187,2.4456,2.3585,2.3174,2.3103,2.2002,2.1919,2.2343,1.9123,1.7803,1.7593,1.457,1.3364,1.3236,1.2377,1.1753,1.1309,1.1494,1.1177,1.0684,1.0633,1.0637,1.0417,0.9199,0.7986,0.6165,0.2281,-0.0107,-0.2222,-0.5341,-0.7774,-1.0151,-1.3043,-1.3747,-1.4165,-1.5643,-1.5759,-1.5793,-1.6561,-1.6717,-1.6723,-1.673,-1.673,-1.673,-1.673,-1.673,-1.7147,-1.8283,-1.844,-1.9317,-2.143,-2.1684,-2.2156,-2.3247,-2.3397,-2.3397,-2.3397,-2.3397,-2.3397,-2.3397,-2.3397,-2.3297,-2.2996,-2.2996,-2.2896,-2.2594,-2.2603,-2.2594,-2.2585,-2.2184,-2.1807,3.3309,0.0,0.0,0.0,0.0,0.0,3.787,3.9068,4.0086,4.0479,4.106,4.1834,4.2942,4.3012,4.3117,4.3826,4.3936,4.3913,4.3879,4.3057,4.2041,4.0942,4.0192,3.9124,3.7469,3.6971,3.6552,0.0,3.6028,3.5854,3.5495,3.4685,3.3968,3.3297,3.2169,3.1063,3.0121,2.8572,2.7287,2.6298,2.4895,2.4106,2.3886,2.3061,2.2533,2.2145,2.0429,1.9632,1.9557,1.7951,1.6495,1.5066,1.3494,1.2548,1.1973,1.1541,1.1268,1.1046,1.0807,1.0605,1.0309,0.9387,0.9258,0.914,0.7747,0.5898,0.3781,0.1269,-0.1433,-0.4397,-0.8075,-1.0745,-1.2796,-1.4024,-1.5151,-1.6076,-1.6931,-1.6944,-1.676,-1.6788,-1.6762,-1.6873,-1.7279,-1.7371,-1.7371,-1.7371,-1.7982,-1.8603,-1.8968,-1.9694,-2.0357,-2.0743,-2.1489,-2.2064,-2.2156,-2.2937,-2.3397,-2.3397,-2.3397,-2.3397,-2.3397,-2.3397,-2.3356,-2.3297,-2.3297,-2.3247,-2.3197,-2.2795,-2.2594,-2.2594,-2.2491,-2.2388,0.0,0.0,3.4223,3.551,0.0,0.0,3.7002,3.7891,3.859,3.8049,3.8456,3.9239,4.0469,4.069,4.0995,4.1894,4.2255,4.2443,4.2612,4.1887,4.0934,3.9747,3.8985,3.8028,3.663,3.6237,3.5923,3.5534,3.5504,3.5261,3.4654,3.3607,3.2695,3.1921,3.0817,2.9819,2.8949,2.7348,2.6115,2.5238,2.3985,2.3243,2.2873,2.1976,2.1412,2.1099,1.9008,1.7803,1.7167,1.5921,1.4832,1.3888,1.2485,1.1629,1.1197,1.1134,1.0935,1.0591,0.9918,0.9598,0.9248,0.7977,0.7654,0.7529,0.619,0.4431,0.2404,0.0053,-0.3362,-0.7096,-1.0612,-1.2745,-1.4333,-1.5381,-1.647,-1.7371,-1.7845,-1.8146,-1.815,-1.7427,-1.7594,-1.7895,-1.8224,-1.867,-1.8975,-1.8975,-1.9487,-2.0055,-2.0518,-2.114,-2.1641,-2.1979,-2.256,-2.2929,-2.2769,-2.3338,-2.3746,-2.3746,-2.3746,-2.3746,-2.3746,-2.3746,-2.3696,-2.3555,-2.3555,-2.3497,-2.3397,-2.2946,-2.2745,-2.2745,-2.2745,-2.2846,0.0,0.0,0.0,3.6921,3.7526,0.0,3.6303,3.7373,3.7978,3.5735,3.6274,3.7388,3.8097,3.8274,3.8737,4.0003,4.0641,4.1071,4.1287,4.0909,4.0163,3.9051,3.7843,3.6907,3.6349,3.5744,3.537,3.5295,3.5183,3.4648,3.3616,3.2613,3.1446,3.0066,2.9376,2.8418,2.7174,2.6275,2.5224,2.3975,2.3117,2.2354,2.1606,2.0518,1.9973,1.9731,1.7817,1.639,1.5299,1.3601,1.3171,1.3409,1.1584,1.0826,1.0829,1.0911,1.0575,0.9888,0.885,0.8144,0.7556,0.6229,0.5704,0.5394,0.4335,0.2963,0.1132,-0.1856,-0.5918,-1.0066,-1.2746,-1.4196,-1.5345,-1.7012,-1.786,-1.8433,-1.8722,-1.9502,-1.9789,-1.867,-1.8975,-1.9428,-1.9383,-2.021,-2.0885,-2.0885,-2.1019,-2.1503,-2.2435,-2.2696,-2.3149,-2.4167,-2.4229,-2.4202,-2.4202,-2.4202,-2.4202,-2.4202,-2.4202,-2.4202,-2.4202,-2.4202,-2.4102,-2.3854,-2.3854,-2.3696,-2.3447,-2.3197,-2.3046,-2.3046,-2.3046,-2.3147,0.0,0.0,0.0,0.0,3.6466,0.0,3.7142,3.7852,3.8521,3.8233,3.8428,3.8884,3.9572,3.9686,3.9693,3.9664,4.0008,4.0591,4.1343,4.1303,4.0471,3.8662,3.8065,3.7061,3.5219,3.4836,3.4457,3.3918,3.312,3.2526,3.2118,3.0713,2.9768,2.9476,2.8084,2.7042,2.6324,2.4952,2.3891,2.3213,2.168,2.0798,2.0479,1.9571,1.8571,1.7504,1.7162,1.5947,1.4158,1.2935,1.2363,1.2164,1.101,1.0681,1.0757,1.0358,0.9462,0.8378,0.7875,0.6535,0.4846,0.3498,0.2584,0.1904,0.1185,-0.0535,-0.2969,-0.6592,-0.9704,-1.2392,-1.4127,-1.6085,-1.7896,-1.8873,-1.9783,-2.0604,-2.1255,-2.1085,-2.0905,-2.1212,-2.1073,-2.0826,-2.0629,-2.0731,-2.0885,-2.0885,-2.1897,-2.2757,-2.2972,-2.3766,-2.4454,-2.4656,-2.4404,-2.4202,-2.4202,-2.4202,-2.4202,-2.4202,-2.4202,-2.4202,-2.4202,-2.4202,-2.4202,-2.4102,-2.4102,-2.4003,-2.3705,-2.3447,-2.3297,-2.3297,-2.3297,-2.3347,0.0,0.0,0.0,3.5938,0.0,0.0,0.0,3.7467,3.7648,3.7377,3.6751,3.6567,3.7661,3.7855,3.8134,3.9009,3.9061,3.9339,4.0314,3.947,3.8107,3.6364,3.5428,3.456,3.3697,3.3546,3.3334,3.293,3.1778,3.0856,3.0285,2.8865,2.7861,2.7464,2.6089,2.5238,2.495,2.3478,2.2451,2.1988,2.0785,1.9976,1.9532,1.8532,1.7576,1.6665,1.6084,1.4624,1.2722,1.2159,1.1429,1.0561,1.0287,1.0192,1.0277,0.9936,0.8966,0.7621,0.6541,0.4755,0.2732,0.1253,0.0106,-0.075,-0.1171,-0.3108,-0.597,-0.98,-1.2299,-1.4202,-1.5703,-1.7633,-1.935,-1.9862,-2.0761,-2.1576,-2.1927,-2.23,-2.2641,-2.2868,-2.3103,-2.3003,-2.2038,-2.235,-2.2729,-2.2834,-2.3318,-2.3764,-2.4214,-2.4398,-2.4606,-2.4757,-2.4459,-2.4284,-2.4496,-2.4514,-2.4606,-2.4799,-2.4624,-2.4606,-2.4799,-2.4624,-2.4514,-2.4514,-2.4514,-2.4313,-2.4003,-2.3854,-2.3746,-2.3596,-2.3596,-2.3646,0.0,0.0,0.0,0.0,0.0,3.9135,0.0,0.0,0.0,3.6377,3.5199,3.4619,3.5797,3.6016,3.6477,3.7891,3.7898,3.7836,3.8121,3.6602,3.5196,3.4407,3.2755,3.1872,3.2346,3.2167,3.1854,3.153,3.0364,2.9247,2.8304,2.7083,2.6058,2.533,2.4082,2.3424,2.3403,2.198,2.1052,2.0657,1.9905,1.9154,1.8351,1.7403,1.6613,1.596,1.4988,1.3414,1.1517,1.1484,1.0568,0.9196,0.9535,0.966,0.9658,0.951,0.8424,0.6831,0.5316,0.304,0.0615,-0.0721,-0.1923,-0.2993,-0.3566,-0.5536,-0.832,-1.1958,-1.4195,-1.5799,-1.7328,-1.9026,-2.0462,-2.0695,-2.1605,-2.2435,-2.2505,-2.3456,-2.426,-2.4115,-2.4784,-2.4932,-2.3552,-2.3967,-2.4579,-2.4813,-2.4542,-2.4615,-2.5433,-2.4891,-2.4597,-2.4968,-2.4689,-2.4542,-2.4757,-2.4785,-2.4886,-2.5176,-2.4964,-2.4931,-2.5295,-2.5074,-2.4895,-2.4895,-2.4895,-2.478,-2.444,-2.444,-2.4258,-2.3904,-2.3904,-2.4003,0.0,0.0,0.0,0.0,3.828,0.0,3.8605,0.0,3.8587,3.8608,0.0,3.7401,3.7458,0.0,0.0,3.58,3.6502,3.6356,3.398,3.3217,3.3572,3.5298,3.2992,3.1472,3.2014,3.0875,2.9723,2.8812,2.8111,2.7329,2.6378,2.5517,2.4778,2.4192,2.2834,2.2103,2.2039,2.0678,1.9837,1.9489,1.8702,1.7707,1.6568,1.6032,1.5247,1.4311,1.4493,1.33,1.113,1.1027,1.0089,0.8734,0.9108,0.9238,0.9149,0.9084,0.7333,0.491,0.4845,0.1859,-0.2018,-0.2424,-0.3639,-0.5207,-0.6954,-0.8322,-0.9922,-1.3104,-1.5485,-1.7375,-1.8872,-2.0531,-2.1832,-2.2053,-2.3102,-2.4217,-2.464,-2.486,-2.5063,-2.5412,-2.5586,-2.543,-2.4784,-2.4578,-2.4619,-2.5028,-2.4873,-2.4996,-2.5846,-2.5561,-2.5433,-2.5837,-2.5515,-2.5166,-2.4812,-2.4785,-2.4689,-2.4358,-2.4652,-2.4803,-2.4849,-2.5194,-2.5307,-2.5307,-2.5307,-2.5332,-2.5286,-2.5286,-2.4858,-2.4152,-2.4152,-2.4152,0.0,0.0,0.0,0.0,0.0,0.0,3.9318,0.0,3.8425,0.0,0.0,0.0,0.0,0.0,0.0,0.0,3.4568,3.3889,3.3121,3.1073,3.0426,3.2497,3.0817,0.0,2.9565,2.8232,2.732,2.7208,2.5865,2.4864,2.445,2.3727,2.3098,2.2577,2.1264,2.0549,2.053,1.949,1.8596,1.7793,1.7605,1.6839,1.5589,1.5288,1.4678,1.3845,1.3874,1.2634,1.0558,1.0539,0.954,0.8028,0.775,0.8094,0.864,0.7904,0.6328,0.4399,0.2953,0.0149,-0.3118,-0.4824,-0.6226,-0.7602,-0.9166,-1.0849,-1.2689,-1.4924,-1.7196,-1.9177,-2.0141,-2.1419,-2.2509,-2.2723,-2.3416,-2.417,-2.46,-2.4893,-2.5205,-2.5596,-2.5693,-2.5635,-2.5391,-2.5137,-2.5159,-2.566,-2.5464,-2.5605,-2.6491,-2.5807,-2.5367,-2.5626,-2.5093,-2.4744,-2.4776,-2.4785,-2.4955,-2.524,-2.5601,-2.572,-2.5534,-2.5858,-2.5968,-2.5773,-2.5764,-2.5653,-2.5424,-2.5194,-2.5019,-2.4909,-2.4909,-2.479,3.7374,0.0,0.0,0.0,0.0,0.0,0.0,0.0,0.0,0.0,0.0,0.0,0.0,0.0,0.0,0.0,0.0,3.2078,3.2187,2.9812,2.8736,3.0551,2.9286,0.0,0.0,2.6064,2.5563,2.589,2.437,2.3384,2.3361,2.2711,2.2093,2.1544,2.0139,1.9401,1.9372,1.8482,1.7548,1.656,1.6711,1.609,1.4835,1.4659,1.4219,1.3543,1.3168,1.1917,1.0094,0.9815,0.8718,0.7137,0.6492,0.6743,0.7306,0.6377,0.5142,0.3589,0.146,-0.148,-0.466,-0.6933,-0.8421,-0.9583,-1.0823,-1.2661,-1.4652,-1.6429,-1.8593,-2.0548,-2.123,-2.2148,-2.2955,-2.3247,-2.3643,-2.4072,-2.4502,-2.4941,-2.5352,-2.5625,-2.5693,-2.5693,-2.5693,-2.5586,-2.5618,-2.6069,-2.5901,-2.6045,-2.6861,-2.61,-2.5605,-2.5804,-2.5273,-2.4946,-2.5087,-2.5157,-2.5405,-2.5975,-2.6243,-2.6334,-2.6195,-2.6426,-2.6444,-2.6195,-2.6186,-2.6048,-2.5702,-2.5417,-2.5362,-2.558,-2.5359,-2.5115,0.0,0.0,0.0,3.9118,0.0,0.0,0.0,0.0,3.8254,0.0,0.0,0.0,0.0,0.0,0.0,0.0,0.0,0.0,0.0,2.9538,2.9736,3.1049,2.9532,2.754,0.0,2.5096,2.4919,2.4687,2.4042,2.3639,2.3493,2.2808,2.214,2.1602,1.9854,1.8902,1.8828,1.7648,1.6773,1.6209,1.6035,1.5282,1.4139,1.4074,1.3739,1.3155,1.2316,1.1156,0.982,0.8841,0.7453,0.5916,0.5729,0.527,0.4706,0.4628,0.3548,0.2005,0.0824,-0.2853,-0.727,-0.8371,-0.9671,-1.092,-1.1918,-1.3371,-1.5074,-1.7304,-1.9404,-2.1186,-2.2113,-2.274,-2.3208,-2.3672,-2.4092,-2.4521,-2.4998,-2.54,-2.5674,-2.5684,-2.5693,-2.5693,-2.5693,-2.5827,-2.5958,-2.5918,-2.605,-2.6314,-2.6725,-2.6533,-2.6505,-2.6905,-2.6681,-2.6353,-2.6002,-2.5975,-2.5984,-2.6012,-2.6021,-2.6214,-2.6554,-2.6582,-2.6582,-2.6564,-2.6564,-2.6564,-2.6554,-2.6536,-2.6325,-2.5975,-2.5161,-2.5005,0.0,0.0,3.7834,3.8978,0.0,0.0,0.0,0.0,0.0,0.0,0.0,0.0,0.0,0.0,0.0,0.0,0.0,0.0,0.0,2.8366,2.7464,2.626,2.633,2.5969,2.4615,0.0,2.2832,2.2682,2.2075,2.1755,2.1828,2.1531,2.1106,2.0566,1.9415,1.8834,1.8805,1.8216,1.7223,1.5858,1.6075,1.5254,1.3575,1.3506,1.3145,1.2569,1.1721,1.0645,0.9448,0.8571,0.7207,0.5629,0.4963,0.4069,0.3192,0.3192,0.2726,0.167,-0.1358,-0.4988,-0.8416,-0.8934,-1.0776,-1.2917,-1.3585,-1.5536,-1.7815,-1.8941,-2.0551,-2.2015,-2.2299,-2.274,-2.313,-2.3276,-2.3691,-2.4121,-2.4541,-2.498,-2.5381,-2.5635,-2.5693,-2.5693,-2.5693,-2.6229,-2.6645,-2.6645,-2.6953,-2.7274,-2.7487,-2.704,-2.6661,-2.6633,-2.61,-2.5825,-2.5845,-2.6129,-2.6277,-2.6277,-2.6332,-2.6444,-2.6582,-2.6591,-2.6591,-2.6591,-2.6791,-2.6791,-2.6591,-2.6532,-2.6458,-2.6362,-2.5812,-2.569,3.6168,3.6381,0.0,3.7839,3.7834,0.0,3.8194,0.0,0.0,0.0,0.0,0.0,0.0,0.0,0.0,0.0,0.0,0.0,0.0,2.7153,2.5952,2.385,2.4553,2.4741,2.3539,2.2262,2.1508,2.1505,2.0881,2.0563,2.0784,2.0651,2.0499,2.0372,1.9347,1.8885,1.9097,1.8451,1.7404,1.5867,1.5999,1.515,1.3484,1.3143,1.2592,1.1805,1.0864,0.9814,0.8694,0.761,0.6274,0.4874,0.3903,0.2662,0.1447,0.1379,0.064,-0.08,-0.3977,-0.6969,-0.9617,-1.0661,-1.2575,-1.4636,-1.549,-1.7394,-1.9345,-1.9875,-2.1159,-2.2397,-2.2397,-2.274,-2.3169,-2.3481,-2.3809,-2.417,-2.4766,-2.5107,-2.5391,-2.5635,-2.5693,-2.5732,-2.5947,-2.6553,-2.6963,-2.6816,-2.7412,-2.7877,-2.7835,-2.7482,-2.714,-2.6971,-2.6427,-2.6163,-2.6321,-2.6617,-2.6767,-2.6767,-2.6868,-2.6845,-2.6736,-2.6736,-2.681,-2.6948,-2.6955,-2.7019,-2.7122,-2.6758,-2.6639,-2.6727,-2.6361,-2.6188]},{"header":{"parameterUnit":"m.s-1","parameterCategory":1,"la1":30.6,"la2":29.2853,"lo1":-89.7004,"lo2":-87.6739,"dy":0.0162,"dx":0.0183,"nx":112,"ny":82,"refTime":"2023-11-10T18:00:00:Z","depth":0,"parameterNumber":3,"parameterNumberName":"V-component_of_WINDS"},"data":[0.0,0.0,0.0,0.0,0.0,0.0,0.0,0.0,0.0,0.0,0.0,0.0,0.0,0.0,0.0,0.0,0.0,0.0,0.0,0.0,0.0,0.0,0.0,0.0,0.0,0.0,0.0,0.0,0.0,0.0,0.0,0.0,0.0,0.0,0.0,0.0,0.0,0.0,0.0,0.0,0.0,0.0,0.0,0.0,0.0,0.0,0.0,0.0,0.0,0.0,0.0,0.0,0.0,0.0,0.0,0.0,0.0,0.0,0.0,0.0,0.0,0.0,0.0,0.0,0.0,0.0,0.0,0.0,0.0,0.0,0.0,0.0,0.0,0.0,0.0,0.0,0.0,0.0,0.0,0.0,0.0,0.0,0.0,0.0,0.0,0.0,0.0,0.0,0.0,0.0,1.6186,1.7486,1.8974,2.0072,2.0447,2.0487,2.0122,1.921,0.0,0.0,0.0,0.0,0.0,0.0,0.0,0.0,0.0,0.0,0.0,0.0,0.0,0.0,0.0,0.0,0.0,0.0,0.0,0.0,0.0,0.0,0.0,0.0,0.0,0.0,0.0,0.0,0.0,0.0,0.0,0.0,0.0,0.0,0.0,0.0,0.0,0.0,0.0,0.0,0.0,0.0,0.0,0.0,0.0,0.0,0.0,0.0,0.0,0.0,0.0,0.0,0.0,0.0,0.0,0.0,0.0,0.0,0.0,0.0,0.0,0.0,0.0,0.0,0.0,0.0,0.0,0.0,0.0,0.0,0.0,0.0,0.0,0.0,0.0,0.0,0.0,0.0,0.0,0.0,0.0,0.0,0.0,0.0,0.0,0.0,0.0,0.0,0.0,0.0,0.0,0.0,0.0,0.0,0.0,0.0,0.0,0.0,0.0,0.0,0.0,0.0,0.0,0.0,1.7137,1.8821,1.9553,1.9915,2.0018,1.9759,1.9674,1.9839,0.0,0.0,0.0,0.0,0.0,0.0,0.0,0.0,0.0,0.0,0.0,0.0,0.0,0.0,0.0,0.0,0.0,0.0,0.0,0.0,0.0,0.0,0.0,0.0,0.0,0.0,0.0,0.0,0.0,0.0,0.0,0.0,0.0,0.0,0.0,0.0,0.0,0.0,0.0,0.0,0.0,0.0,0.0,0.0,0.0,0.0,0.0,0.0,0.0,0.0,0.0,0.0,0.0,0.0,0.0,0.0,0.0,0.0,0.0,0.0,0.0,0.0,0.0,0.0,0.0,0.0,0.0,0.0,0.0,0.0,0.0,0.0,0.0,0.0,0.0,0.0,0.0,0.0,0.0,0.0,0.0,0.0,0.0,0.0,0.0,0.0,0.0,0.0,0.0,0.0,0.0,0.0,0.0,0.0,0.0,0.0,0.0,0.0,0.0,0.0,0.0,0.0,0.0,1.7101,1.818,1.9199,1.9668,1.9885,1.991,1.9585,1.9599,2.0074,1.922,0.0,0.0,0.0,0.0,0.0,0.0,0.0,0.0,0.0,0.0,0.0,0.0,0.0,0.0,0.0,0.0,0.0,0.0,0.0,0.0,0.0,0.0,0.0,0.0,0.0,0.0,0.0,0.0,0.0,0.0,0.0,0.0,0.0,0.0,0.0,0.0,0.0,0.0,0.0,0.0,0.0,0.0,0.0,0.0,0.0,0.0,0.0,0.0,0.0,0.0,0.0,0.0,0.0,0.0,0.0,0.0,0.0,0.0,0.0,0.0,0.0,0.0,0.0,0.0,0.0,0.0,0.0,0.0,0.0,0.0,0.0,0.0,0.0,0.0,0.0,0.0,0.0,0.0,0.0,0.0,0.0,0.0,0.0,0.0,0.0,0.0,0.0,0.0,0.0,0.0,0.0,0.0,0.0,0.0,0.0,0.0,0.0,0.0,0.0,0.0,0.0,0.0,1.8183,1.864,1.9238,1.9394,1.9464,1.9576,1.904,1.9104,1.9976,1.9078,0.0,0.0,0.0,0.0,0.0,0.0,0.0,0.0,0.0,0.0,0.0,0.0,0.0,0.0,0.0,0.0,0.0,0.0,0.0,0.0,0.0,0.0,0.0,0.0,0.0,0.0,0.0,0.0,0.0,0.0,0.0,0.0,0.0,0.0,0.0,0.0,0.0,0.0,0.0,0.0,0.0,0.0,0.0,0.0,0.0,0.0,0.0,0.0,0.0,0.0,0.0,0.0,0.0,0.0,0.0,0.0,0.0,0.0,0.0,0.0,0.0,0.0,0.0,0.0,0.0,0.0,0.0,0.0,0.0,0.0,0.0,0.0,0.0,0.0,0.0,0.0,0.0,0.0,0.0,0.0,0.0,0.0,0.0,0.0,0.0,0.0,0.0,0.0,0.0,0.0,0.0,0.0,0.0,0.0,0.0,0.0,0.0,0.0,0.0,0.0,0.0,0.0,1.7782,1.8012,1.9165,1.8603,1.8275,1.8586,1.7429,1.7489,1.934,1.8734,0.0,0.0,0.0,0.0,0.0,0.0,0.0,0.0,0.0,0.0,0.0,0.0,0.0,0.0,0.0,0.0,0.0,0.0,0.0,0.0,0.0,0.0,0.0,0.0,0.0,0.0,0.0,0.0,0.0,0.0,0.0,0.0,0.0,0.0,0.0,0.0,0.0,0.0,0.0,0.0,0.0,0.0,0.0,0.0,0.0,0.0,0.0,0.0,0.0,0.0,0.0,0.0,0.0,0.0,0.0,0.0,0.0,0.0,0.0,0.0,0.0,0.0,0.0,0.0,0.0,0.0,0.0,0.0,0.0,0.0,0.0,0.0,0.0,0.0,0.0,0.0,0.0,0.0,0.0,0.0,0.0,0.0,0.0,0.0,0.0,0.0,0.0,0.0,0.0,0.0,0.0,0.0,0.0,0.0,0.0,0.0,0.0,0.0,0.0,0.0,0.0,0.0,1.8325,1.8418,1.8461,1.8203,1.8067,1.8238,1.7561,1.7848,1.954,0.0,0.0,0.0,0.0,0.0,0.0,0.0,0.0,0.0,0.0,0.0,0.0,0.0,0.0,0.0,0.0,0.0,0.0,0.0,0.0,0.0,0.0,0.0,0.0,0.0,0.0,0.0,0.0,0.0,0.0,0.0,0.0,0.0,0.0,0.0,0.0,0.0,0.0,0.0,0.0,0.0,0.0,0.0,0.0,0.0,0.0,0.0,0.0,0.0,0.0,0.0,0.0,0.0,0.0,0.0,0.0,0.0,0.0,0.0,0.0,0.0,0.0,0.0,0.0,0.0,0.0,0.0,0.0,0.0,0.0,0.0,0.0,0.0,0.0,0.0,0.0,0.0,0.0,0.0,0.0,0.0,0.0,0.0,0.0,0.0,0.0,0.0,0.0,0.0,0.0,0.0,0.0,0.0,0.0,0.0,0.0,0.0,0.0,0.0,0.0,0.0,0.0,1.8321,1.8443,1.8311,1.8027,1.7931,1.794,1.8101,1.7256,1.7586,1.9554,0.0,0.0,0.0,0.0,0.0,0.0,0.0,0.0,0.0,0.0,0.0,0.0,0.0,0.0,0.0,0.0,0.0,0.0,0.0,0.0,0.0,0.0,0.0,0.0,0.0,0.0,0.0,0.0,0.0,0.0,0.0,0.0,0.0,0.0,0.0,0.0,0.0,0.0,0.0,0.0,0.0,0.0,0.0,0.0,0.0,0.0,0.0,0.0,0.0,0.0,0.0,0.0,0.0,0.0,0.0,0.0,0.0,0.0,0.0,0.0,0.0,0.0,0.0,0.0,0.0,0.0,0.0,0.0,0.0,0.0,0.0,0.0,0.0,0.0,0.0,0.0,0.0,0.0,0.0,0.0,0.0,0.0,0.0,0.0,0.0,0.0,0.0,0.0,0.0,0.0,0.0,0.0,0.0,0.0,0.0,0.0,0.0,0.0,0.0,0.0,0.0,0.0,1.8387,1.79,1.7539,1.7959,1.7767,1.7715,1.8053,1.6255,1.6338,0.0,0.0,0.0,0.0,0.0,0.0,0.0,0.0,0.0,0.0,0.0,0.0,0.0,0.0,0.0,0.0,0.0,0.0,0.0,0.0,0.0,0.0,0.0,0.0,0.0,0.0,0.0,0.0,0.0,0.0,0.0,0.0,0.0,0.0,0.0,0.0,0.0,0.0,0.0,0.0,0.0,0.0,0.0,0.0,0.0,0.0,0.0,0.0,0.0,0.0,0.0,0.0,0.0,0.0,0.0,0.0,0.0,0.0,0.0,0.0,0.0,0.0,0.0,0.0,0.0,0.0,0.0,0.0,0.0,0.0,0.0,0.0,0.0,0.0,0.0,0.0,0.0,0.0,0.0,0.0,0.0,0.0,0.0,0.0,0.0,0.0,0.0,0.0,0.0,0.0,0.0,0.0,0.0,0.0,0.0,0.0,0.0,0.0,0.0,0.0,0.0,0.0,0.0,1.8032,1.7418,1.7005,1.7283,1.7297,1.7331,1.7311,1.6487,1.7051,1.9672,0.0,0.0,0.0,0.0,0.0,0.0,0.0,0.0,0.0,0.0,0.0,0.0,0.0,0.0,0.0,0.0,0.0,0.0,0.0,0.0,0.0,0.0,0.0,0.0,0.0,0.0,0.0,0.0,0.0,0.0,0.0,0.0,0.0,0.0,0.0,0.0,0.0,0.0,0.0,0.0,0.0,0.0,0.0,0.0,0.0,0.0,0.0,0.0,0.0,0.0,0.0,0.0,0.0,0.0,0.0,0.0,0.0,0.0,0.0,0.0,0.0,0.0,0.0,0.0,0.0,0.0,0.0,0.0,0.0,0.0,0.0,0.0,0.0,0.0,0.0,0.0,0.0,0.0,0.0,0.0,0.0,0.0,0.0,0.0,0.0,0.0,0.0,0.0,0.0,0.0,0.0,0.0,0.0,0.0,0.0,0.0,0.0,0.0,0.0,0.0,0.0,0.0,1.8049,1.7238,1.6773,1.7368,1.7575,1.7569,1.7389,1.6692,1.7032,1.8781,0.0,0.0,0.0,0.0,0.0,0.0,0.0,0.0,0.0,0.0,0.0,0.0,0.0,0.0,0.0,0.0,0.0,0.0,0.0,0.0,0.0,0.0,0.0,0.0,0.0,0.0,0.0,0.0,0.0,0.0,0.0,0.0,0.0,0.0,0.0,0.0,0.0,0.0,0.0,0.0,0.0,0.0,0.0,0.0,0.0,0.0,0.0,0.0,0.0,0.0,0.0,0.0,0.0,0.0,0.0,0.0,0.0,0.0,0.0,0.0,0.0,0.0,0.0,0.0,0.0,0.0,0.0,0.0,0.0,0.0,0.0,0.0,0.0,0.0,0.0,0.0,0.0,0.0,0.0,0.0,0.0,0.0,0.0,0.0,0.0,0.0,0.0,0.0,0.0,0.0,0.0,0.0,0.0,0.0,0.0,0.0,0.0,0.0,0.0,0.0,0.0,0.0,1.8372,1.7278,1.6809,1.7983,1.8251,1.8207,1.7877,1.6948,1.6638,1.7182,0.0,0.0,0.0,0.0,0.0,0.0,0.0,0.0,0.0,0.0,0.0,0.0,0.0,0.0,0.0,0.0,0.0,0.0,0.0,0.0,0.0,0.0,0.0,0.0,0.0,0.0,0.0,0.0,0.0,0.0,0.0,0.0,0.0,0.0,0.0,0.0,0.0,0.0,0.0,0.0,0.0,0.0,0.0,0.0,0.0,0.0,0.0,0.0,0.0,0.0,0.0,0.0,0.0,0.0,0.0,0.0,0.0,0.0,0.0,0.0,1.9717,0.0,0.0,0.0,0.0,0.0,0.0,0.0,0.0,0.0,0.0,0.0,0.0,0.0,0.0,0.0,0.0,0.0,0.0,0.0,0.0,0.0,0.0,0.0,0.0,0.0,0.0,0.0,0.0,0.0,0.0,0.0,0.0,0.0,0.0,0.0,0.0,0.0,0.0,0.0,0.0,0.0,1.8867,1.7678,1.7098,1.8144,1.8459,1.8281,1.7505,1.728,1.7227,1.7353,1.6504,0.0,0.0,0.0,0.0,0.0,0.0,0.0,0.0,0.0,0.0,0.0,0.0,0.0,0.0,0.0,0.0,0.0,0.0,0.0,0.0,0.0,0.0,0.0,0.0,0.0,0.0,0.0,0.0,0.0,0.0,0.0,0.0,0.0,0.0,0.0,0.0,0.0,0.0,0.0,0.0,0.0,0.0,0.0,0.0,0.0,0.0,0.0,0.0,0.0,0.0,0.0,0.0,0.0,0.0,0.0,0.0,0.0,0.0,0.0,0.0,2.0459,0.0,0.0,0.0,0.0,0.0,0.0,0.0,0.0,0.0,0.0,0.0,0.0,0.0,0.0,0.0,0.0,0.0,0.0,0.0,0.0,0.0,0.0,0.0,0.0,0.0,0.0,0.0,0.0,0.0,0.0,0.0,0.0,0.0,0.0,0.0,0.0,0.0,0.0,0.0,0.0,1.9616,1.811,1.7538,1.9181,1.9064,1.853,1.7812,1.7528,1.7172,1.6631,1.6304,0.0,0.0,0.0,0.0,0.0,0.0,0.0,0.0,0.0,0.0,0.0,0.0,0.0,0.0,0.0,0.0,0.0,0.0,0.0,0.0,0.0,0.0,0.0,0.0,0.0,0.0,0.0,0.0,0.0,0.0,0.0,0.0,0.0,0.0,0.0,0.0,0.0,0.0,0.0,0.0,0.0,0.0,0.0,0.0,0.0,0.0,0.0,0.0,0.0,0.0,0.0,0.0,0.0,2.4365,2.5232,2.6171,2.6386,2.5779,2.4408,2.2965,2.1678,2.0619,2.1869,0.0,0.0,0.0,0.0,0.0,0.0,0.0,0.0,0.0,0.0,0.0,0.0,0.0,0.0,0.0,0.0,0.0,0.0,0.0,0.0,0.0,0.0,0.0,0.0,2.4409,2.4123,0.0,0.0,0.0,0.0,0.0,0.0,0.0,0.0,0.0,0.0,0.0,0.0,2.007,1.8536,1.8148,2.0265,1.9679,1.8875,1.8244,1.779,1.6999,1.5768,1.6169,1.6562,0.0,0.0,0.0,0.0,0.0,0.0,0.0,0.0,0.0,0.0,0.0,0.0,0.0,0.0,0.0,0.0,0.0,0.0,0.0,0.0,0.0,0.0,0.0,0.0,0.0,0.0,0.0,0.0,0.0,0.0,0.0,0.0,2.0803,2.1708,0.0,0.0,0.0,0.0,0.0,0.0,0.0,0.0,0.0,0.0,0.0,0.0,0.0,2.3467,2.425,2.4823,2.5227,2.5392,2.5869,2.6241,2.6358,2.673,2.6603,2.6084,2.5859,0.0,2.1938,2.1959,0.0,0.0,0.0,0.0,0.0,0.0,0.0,0.0,0.0,0.0,0.0,0.0,0.0,0.0,0.0,0.0,0.0,0.0,0.0,0.0,0.0,0.0,2.3501,2.3772,2.361,2.3553,0.0,2.473,2.504,2.5094,2.4018,0.0,0.0,0.0,0.0,0.0,0.0,0.0,1.9329,1.8903,1.9062,2.037,2.002,1.9296,1.8292,1.8141,1.7413,1.5793,1.5356,1.5995,1.7887,1.8219,0.0,0.0,0.0,0.0,0.0,0.0,0.0,0.0,0.0,0.0,0.0,0.0,0.0,0.0,0.0,0.0,0.0,0.0,0.0,0.0,0.0,0.0,0.0,0.0,0.0,0.0,0.0,0.0,0.0,2.1063,2.1691,2.1828,2.1926,2.1874,0.0,0.0,0.0,0.0,0.0,0.0,0.0,0.0,0.0,2.3505,2.4785,2.545,2.5372,2.6355,2.6943,2.7178,2.7607,2.7939,2.8237,2.9086,2.9023,2.8198,2.8426,2.7638,2.6094,2.4951,2.4247,2.3862,0.0,0.0,0.0,0.0,2.3514,2.4285,2.3636,2.4127,0.0,2.4226,0.0,0.0,0.0,0.0,0.0,0.0,0.0,0.0,0.0,0.0,2.5637,2.511,2.5517,2.6104,2.6405,2.6539,2.6524,0.0,2.6288,2.6161,2.5769,0.0,0.0,0.0,0.0,1.9268,2.0205,1.9773,1.9686,2.0524,1.9868,1.9033,1.8279,1.7915,1.7287,1.622,1.5663,1.5937,1.7304,1.806,1.8966,0.0,0.0,0.0,0.0,0.0,0.0,0.0,0.0,0.0,0.0,0.0,0.0,0.0,0.0,0.0,0.0,0.0,0.0,0.0,0.0,0.0,0.0,0.0,0.0,0.0,0.0,0.0,0.0,2.1777,2.2419,2.1993,2.2906,2.3162,0.0,0.0,0.0,0.0,0.0,0.0,2.4465,2.5633,2.6369,2.6515,2.7135,2.7508,2.7499,2.8166,2.8701,2.9121,2.9434,2.9756,3.0125,3.0999,3.0979,3.0227,3.0304,3.0214,2.9758,2.7675,2.6282,2.5502,2.6346,2.6388,2.5938,2.5571,2.612,2.6961,2.6627,2.7268,2.8032,2.6814,2.6499,2.619,2.4058,0.0,0.0,0.0,0.0,2.5025,2.5479,2.6591,2.748,2.7064,2.7807,2.8578,2.8556,2.8571,2.8298,0.0,2.782,2.8224,2.7476,0.0,0.0,0.0,0.0,1.9917,2.0932,2.0437,2.0207,2.0851,1.9761,1.8782,1.8254,1.7702,1.7159,1.6581,1.6048,1.6101,1.6884,1.7907,1.868,1.9107,0.0,0.0,0.0,0.0,0.0,0.0,0.0,0.0,0.0,0.0,0.0,0.0,0.0,0.0,0.0,0.0,0.0,0.0,0.0,0.0,0.0,0.0,0.0,0.0,0.0,0.0,0.0,0.0,0.0,2.2391,2.375,0.0,0.0,0.0,0.0,2.5564,2.6789,2.8282,3.0081,2.9204,2.974,3.2189,2.999,2.9993,3.2442,3.1309,3.0937,3.1357,3.1377,3.1396,3.1426,3.1475,3.1636,3.1833,3.1357,3.1285,3.1396,2.8791,2.8209,2.894,2.8862,2.8976,2.908,2.829,2.8376,2.8644,2.7041,2.6397,2.6379,2.7021,2.7534,2.7768,2.6911,2.6632,0.0,0.0,2.5445,2.5755,2.5857,2.6876,2.8202,2.9548,2.9656,2.9763,3.087,3.1213,3.0598,0.0,2.7263,2.6574,2.5523,0.0,2.3631,2.1336,2.1374,2.1397,2.0703,2.0533,2.071,2.1387,1.9973,1.8782,1.8254,1.7702,1.7194,1.6713,1.6177,1.6347,1.7407,1.754,1.8232,1.9623,2.0854,0.0,0.0,0.0,0.0,0.0,0.0,0.0,0.0,0.0,0.0,0.0,0.0,0.0,0.0,0.0,0.0,0.0,0.0,0.0,0.0,0.0,0.0,0.0,0.0,0.0,0.0,0.0,0.0,2.4287,2.5785,0.0,2.5228,2.5189,2.6094,2.8143,2.8692,2.9979,3.2274,3.2516,3.3182,3.4395,3.2985,3.2701,3.3651,3.2615,3.1914,3.1523,3.1807,3.165,3.1172,3.2683,3.3001,3.2498,3.3236,3.3537,3.3463,3.1889,3.0906,3.0399,3.0648,3.0798,3.083,3.0546,3.0793,3.1061,2.9772,2.9493,2.9455,2.8036,2.7188,2.6673,2.6045,2.6117,2.6382,2.6358,2.7053,2.7928,2.8399,2.9351,3.0283,3.0561,3.0957,3.1344,3.1424,3.1464,3.1245,3.0319,2.9035,2.795,2.7528,2.5031,2.3351,2.397,2.3247,2.2396,2.1786,2.1972,2.1873,2.1079,1.9798,1.8782,1.8254,1.7443,1.6869,1.6709,1.6591,1.6733,1.7165,1.7478,1.7898,1.8465,1.9866,2.0493,0.0,0.0,0.0,0.0,0.0,0.0,0.0,0.0,0.0,0.0,0.0,0.0,0.0,0.0,0.0,0.0,0.0,0.0,0.0,0.0,0.0,0.0,0.0,0.0,0.0,2.4419,2.5863,2.5898,2.7699,2.8647,2.8058,2.8078,2.9176,3.1793,3.2267,3.3411,3.5628,3.6105,3.6522,3.7088,3.5473,3.4776,3.5184,3.3758,3.2725,3.2158,3.2451,3.2217,3.1583,3.3413,3.3944,3.3593,3.4634,3.5219,3.5308,3.4566,3.3618,3.2535,3.2488,3.2358,3.2259,3.2259,3.2442,3.2611,3.1517,3.1296,3.1127,2.9148,2.8029,2.738,2.7031,2.7164,2.7512,2.7897,2.8874,2.9972,3.052,3.1647,3.2521,3.2104,3.2521,3.2857,3.2293,3.199,3.1859,3.1859,3.0358,2.8911,2.8452,2.5832,2.432,2.5948,2.4772,2.3627,2.3573,2.3294,2.2543,2.1131,1.9949,1.8995,1.8325,1.7842,1.736,1.6833,1.726,1.7399,1.7078,1.7881,1.8368,1.841,1.9936,2.0827,2.0986,0.0,0.0,0.0,0.0,0.0,0.0,0.0,0.0,0.0,0.0,0.0,0.0,0.0,0.0,0.0,0.0,0.0,0.0,0.0,0.0,0.0,0.0,0.0,2.3262,2.5944,2.7693,2.7107,2.9358,3.072,3.0084,3.1397,3.358,3.6561,3.7599,3.8751,4.0382,3.9872,3.9779,4.0362,3.7281,3.6125,3.7259,3.4715,3.3428,3.3408,3.3408,3.3174,3.2858,3.3607,3.4376,3.5148,3.566,3.6223,3.6779,3.6492,3.61,3.5511,3.4461,3.3765,3.3379,3.3379,3.332,3.3152,3.2126,3.1416,3.0874,3.0332,3.0152,3.0152,3.014,3.0128,3.0128,3.0128,3.091,3.1769,3.1984,3.3426,3.4715,3.4351,3.4374,3.4298,3.3692,3.3021,3.2539,3.2556,3.0982,2.925,2.7991,2.7192,2.6746,2.6794,2.5681,0.0,2.5866,2.4305,2.2744,2.171,2.0591,1.9548,1.8594,1.9045,1.8685,1.7153,1.8136,1.8324,1.7316,1.8762,1.9637,1.9673,2.119,2.2346,2.3105,0.0,0.0,0.0,0.0,0.0,0.0,0.0,0.0,0.0,0.0,0.0,0.0,0.0,0.0,0.0,0.0,0.0,0.0,0.0,0.0,0.0,2.4689,2.5786,2.5737,2.7709,2.9293,2.9771,3.1288,3.2604,3.343,3.4198,3.5859,3.9023,3.9451,4.0328,4.2074,4.1994,4.1507,4.0615,3.8814,3.7354,3.6352,3.4749,3.3584,3.2969,3.2969,3.3059,3.3199,3.4276,3.5318,3.6194,3.6867,3.7085,3.7031,3.6591,3.61,3.5548,3.5257,3.4967,3.4702,3.4702,3.4305,3.3741,3.324,3.275,3.2144,3.1198,3.1034,3.1113,3.0739,3.0492,3.0313,3.0313,3.1295,3.2436,3.2765,3.4128,3.5508,3.5676,3.5767,3.5619,3.5014,3.4341,3.3779,3.3445,3.208,3.055,2.9231,2.8039,2.7115,2.6667,2.6269,0.0,2.5219,2.4676,2.4173,2.3773,2.3061,2.2262,2.1302,2.072,1.9778,1.839,1.8306,1.8496,1.8983,1.9425,2.0235,2.147,2.1603,2.213,0.0,0.0,0.0,0.0,0.0,0.0,0.0,0.0,0.0,0.0,0.0,0.0,0.0,0.0,0.0,0.0,0.0,0.0,0.0,0.0,0.0,0.0,2.7043,2.8455,2.9356,3.0353,3.125,3.2119,3.3037,3.4385,3.6324,3.6691,3.8146,4.1322,4.161,4.1992,4.306,4.3301,4.2587,4.0755,3.9603,3.8153,3.6328,3.4848,3.4127,3.4168,3.3987,3.4289,3.4996,3.5832,3.6556,3.7278,3.7829,3.7952,3.7665,3.7221,3.6774,0.0,0.0,0.0,0.0,0.0,3.4701,3.4007,3.3905,3.333,3.2531,3.2012,3.187,3.1945,3.1997,3.1926,3.1872,3.2234,3.3272,3.4309,3.4545,3.5689,3.6734,3.6707,3.6722,3.6548,3.5894,3.5543,3.5161,3.4591,3.3684,0.0,3.0366,2.8812,2.7759,2.7338,2.6858,2.6417,2.6135,2.5378,2.4608,2.3932,2.3318,2.2474,2.1251,2.1069,0.0,0.0,0.0,1.9877,2.0752,2.0843,0.0,0.0,0.0,2.2929,2.3616,0.0,0.0,0.0,2.3751,2.3874,0.0,0.0,0.0,0.0,0.0,0.0,0.0,0.0,0.0,0.0,0.0,0.0,0.0,0.0,0.0,0.0,2.9663,3.1377,3.3496,3.3506,3.3516,3.4072,3.4521,3.5781,3.8301,3.8597,3.9936,4.3126,4.3345,4.3418,4.3601,0.0,0.0,0.0,0.0,3.8584,3.6568,3.5161,3.4976,3.5976,3.5821,3.6276,3.7352,3.762,3.7892,3.8211,3.865,3.8677,3.8427,3.8154,3.7726,3.7111,3.5757,3.532,3.5404,3.5271,3.4852,3.4359,3.4521,0.0,0.0,3.3148,3.3102,3.3145,3.3832,3.4004,3.4118,3.4841,3.5749,3.657,3.657,3.7376,3.8034,3.7535,3.7404,3.723,3.6598,3.661,3.6497,3.5785,3.5354,3.4199,3.1352,2.9585,2.849,2.8252,2.7255,2.6822,2.7613,2.6161,2.4569,2.3379,0.0,0.0,2.0253,2.0943,2.0777,1.9191,2.0616,2.1774,2.2365,2.2581,2.3128,2.4078,2.4115,2.4171,2.433,2.4407,2.4817,2.5542,2.547,2.5773,0.0,0.0,0.0,0.0,0.0,0.0,0.0,0.0,0.0,0.0,0.0,0.0,0.0,0.0,0.0,3.0123,3.2144,3.3965,3.5791,3.6269,3.5967,3.4726,3.498,3.5888,3.7476,3.8005,3.9433,4.2322,4.2522,4.2974,4.4067,4.4225,4.3083,4.037,4.0136,3.8664,3.5653,3.6456,3.6537,3.6039,0.0,0.0,3.7622,3.7918,3.8288,3.87,3.9032,3.9063,3.8805,3.8466,3.804,3.754,3.6081,3.6013,3.6577,3.5787,3.5911,3.6391,3.6206,3.5994,3.5845,3.6191,3.6467,3.6536,3.6137,3.592,0.0,3.5358,3.5762,3.6413,3.657,3.7275,3.7976,3.802,3.8028,3.7891,3.7448,3.7375,3.7145,3.6246,3.5906,3.4903,3.2294,3.0512,2.8899,2.7276,2.6819,2.6633,2.655,2.5774,2.5409,2.5899,2.5023,2.4141,2.3538,2.2837,2.1839,2.0425,2.1476,2.2371,2.2912,2.3436,2.3857,2.418,2.418,2.4484,2.509,2.5628,2.628,2.6949,2.5308,2.5201,0.0,0.0,0.0,0.0,0.0,0.0,0.0,0.0,0.0,0.0,0.0,2.4774,2.5982,0.0,3.0325,3.2578,3.4135,3.5508,3.6797,3.7168,3.6894,3.581,3.5898,3.6469,3.7666,3.8835,4.0432,4.2532,4.3555,4.4302,4.4693,4.4681,4.332,4.0279,4.0203,3.9116,3.6747,3.7242,3.7793,3.8368,3.8803,3.922,3.9435,3.9164,3.9248,3.9562,3.9402,3.9328,3.9258,3.8639,3.844,3.8405,3.7539,3.7497,3.7821,3.7389,3.7391,3.7682,3.7668,3.7394,3.717,3.7454,3.7551,3.7576,3.7345,3.7206,3.7068,3.6802,3.7,3.7246,3.7376,3.7734,3.8066,3.8165,3.8277,3.8316,3.8069,3.823,3.8014,3.6852,3.6654,3.5698,3.2635,3.1443,3.0086,2.7674,2.7283,2.7148,2.6799,2.6219,2.5852,2.585,2.507,2.4118,2.3035,2.2764,2.2578,2.2467,2.3331,2.4089,2.4635,2.5006,2.5218,2.5299,2.5299,2.5474,2.5804,2.6157,2.6534,2.6842,2.5826,2.5903,0.0,0.0,0.0,0.0,0.0,0.0,0.0,2.183,2.283,2.403,2.5769,2.7496,2.9049,3.0954,3.2932,3.4814,3.582,3.666,3.7441,3.7549,3.7383,3.6963,3.6846,3.7262,3.8275,3.9915,4.1551,4.3123,4.4701,4.5505,4.5257,4.5125,4.3763,4.0876,4.0647,3.9932,3.8629,3.8523,3.9373,4.1065,4.0799,4.0964,4.1366,4.0555,4.0226,4.0296,3.964,3.9478,3.9595,3.8993,3.9114,3.9638,3.9534,3.9574,3.9567,3.9168,3.8935,3.8855,3.8992,3.8658,3.824,3.8607,3.8612,3.8464,3.8378,3.8312,3.8328,3.8216,3.8202,3.8202,3.8202,3.8202,3.8202,3.824,3.8366,3.8516,3.859,3.8885,3.8748,3.7575,3.7371,3.636,3.3071,3.2395,3.1344,2.8551,2.8026,2.7851,2.7556,2.692,2.6174,2.5406,2.4596,2.3474,2.1957,2.2365,2.3186,2.4316,2.5003,2.5601,2.6184,2.6335,2.6402,2.6402,2.6402,2.6441,2.6511,2.6565,2.6626,2.6711,2.6765,2.7011,2.2167,2.0755,2.0361,2.1763,2.1627,2.2074,0.0,2.5856,2.6087,2.7902,2.903,3.0187,3.1562,3.3232,3.4863,3.623,3.7158,3.7881,3.8369,3.8428,3.8271,3.7832,3.7461,3.7818,3.9241,3.9979,4.1302,4.3574,4.4351,4.5092,4.5798,4.5393,4.4385,4.2818,4.2331,4.1558,4.043,4.1531,4.2142,4.219,4.294,4.2837,4.1968,4.1163,4.0571,4.014,3.9792,3.953,3.9376,3.9925,4.0548,4.1246,4.1838,4.2271,4.2295,4.0388,3.996,4.0349,4.0364,4.035,4.0435,4.1331,4.1596,4.1381,4.0206,3.9855,3.9609,3.8498,3.8202,3.8202,3.8202,3.8202,3.824,3.8404,3.8478,3.859,3.8958,3.9068,3.8918,3.8351,3.7774,3.6675,3.4342,3.348,3.2102,2.9314,2.8411,2.8131,2.826,2.734,2.6621,2.6536,2.5066,2.3789,2.3081,2.3103,2.3657,2.4912,2.5138,2.5531,2.6184,2.6335,2.6402,2.6402,2.6402,2.6672,2.7272,2.7272,2.7596,2.8181,2.8181,2.7904,2.383,2.2656,2.2205,2.3188,2.3936,2.4862,2.6437,2.7578,2.8726,3.0119,3.1709,3.3144,3.4209,3.5596,3.6758,3.7314,3.791,3.8369,3.8555,3.8359,3.7949,3.7275,3.7997,3.8783,3.9454,4.0748,4.2303,4.4144,4.5494,4.6316,4.635,4.5886,4.4792,4.318,4.2725,4.231,4.1843,4.2603,4.3171,4.3651,4.3657,4.3315,4.2516,4.1756,4.1006,4.0317,3.9884,3.9981,4.0427,4.056,4.1612,4.3084,4.3241,4.3657,4.3907,4.2264,4.1568,4.1479,4.1479,4.1479,4.1535,4.1953,4.2092,4.1918,4.096,4.067,4.0423,3.9146,3.903,3.9146,3.8391,3.8591,3.8856,3.8566,3.8664,3.8885,3.9068,3.9177,3.9092,3.8512,3.8167,3.7177,3.4633,3.3965,3.2955,3.0519,2.9663,2.9051,2.8464,2.8001,2.7452,2.6771,2.5786,2.5266,2.5406,2.5483,2.5933,2.6904,2.703,2.7187,2.7479,2.7526,2.7565,2.7565,2.7565,2.7703,2.798,2.798,2.8134,2.8411,2.8411,2.8258,2.4446,2.3793,2.3673,2.4454,2.5971,2.7385,2.7743,2.9424,3.1199,3.2322,3.3906,3.5371,3.6357,3.7305,3.7969,3.8086,3.8369,3.8574,3.8574,3.7998,3.7485,3.7203,3.8014,3.9005,4.0124,4.2016,4.3883,4.5471,4.6941,4.7612,4.7304,4.6641,4.5629,4.4173,4.3812,4.3655,4.3793,4.3888,4.4339,4.5227,4.4499,4.3894,4.3313,4.2128,4.1189,4.0488,3.9936,4.0262,4.1219,4.1306,4.2509,4.4312,4.4438,4.4636,4.4777,4.3848,4.3021,4.2324,4.215,4.2092,4.2092,4.2092,4.2092,4.1976,4.1294,4.1091,4.0858,3.9755,3.9755,3.9886,3.8957,3.9241,3.968,3.9249,3.9394,3.9654,3.9713,3.9704,3.9544,3.9035,3.8646,3.7618,3.5203,3.4469,3.3534,3.1599,3.0769,3.0006,2.9,2.8754,2.8298,2.7293,2.6925,2.6974,2.749,2.7599,2.8014,2.8768,2.887,2.8901,2.8965,2.8781,2.8688,2.8688,2.8688,2.8596,2.8411,2.8596,2.8581,2.8411,2.8411,2.8411,2.3293,2.328,2.385,2.5575,2.7431,2.9189,3.0478,3.21,3.3701,3.501,3.5644,3.6367,3.7637,3.7891,3.8057,3.8486,3.8564,3.8574,3.8574,3.75,3.7164,3.8248,3.7283,3.8049,4.1704,4.3963,4.6006,4.806,4.8255,4.8389,4.8713,4.7705,4.7033,4.6802,4.6301,4.613,4.6477,4.5956,4.6139,4.7005,4.5974,4.5158,4.4473,4.2304,4.1,4.0488,3.9936,4.0262,4.1269,4.2293,4.3355,4.4406,4.5444,4.5474,4.4879,4.485,4.4037,4.2876,4.2295,4.2092,4.2092,4.2092,4.2092,4.1976,4.1294,4.1091,4.096,4.0263,4.0089,4.0089,4.0046,4.0246,4.0524,4.0674,4.0867,4.1073,4.1287,4.0816,4.0367,4.0337,3.929,3.7957,3.6487,3.5089,3.3715,3.2277,3.1442,3.0751,3.0127,2.9659,2.9131,2.8522,2.8557,2.8694,2.8833,2.8843,2.9228,3.0105,3.0143,3.0195,3.034,2.971,2.9356,2.9356,2.9356,2.9058,2.8411,2.9058,2.9058,2.8411,2.8411,2.8411,2.4753,2.5501,2.6666,2.8369,3.0148,3.1758,3.2773,3.4111,3.5195,3.5361,3.5364,3.5288,3.551,3.553,3.5772,3.648,3.7212,3.7822,3.8105,3.8667,3.8483,3.6927,3.8905,4.0404,4.0572,4.2138,4.431,4.7017,4.7442,4.7785,4.8215,4.7808,4.7589,4.7482,4.7181,4.6923,4.6576,4.6635,4.6522,4.62,4.5163,4.4457,4.4016,4.2128,4.1188,4.1003,4.076,4.1282,4.2341,4.3355,4.442,4.5398,4.5745,4.575,4.5503,4.5053,4.4618,4.4095,4.305,4.2687,4.2629,4.2223,4.2092,4.2049,4.1831,4.1758,4.1613,4.0945,4.1076,4.1262,4.0562,4.0822,4.1263,4.1045,4.1156,4.1308,4.1384,4.0861,4.0397,4.0397,3.9679,3.8641,3.7215,3.6201,3.4946,3.3121,3.1855,3.1056,3.0856,3.0822,3.0545,2.9905,3.0267,3.0477,3.0322,3.0306,3.048,3.0979,3.058,3.0334,3.0402,2.9756,2.9602,3.0048,2.9617,2.9494,2.9725,2.994,2.994,2.971,2.9264,2.9048,2.7586,2.8826,3.0053,3.1912,3.3545,3.4744,3.4965,3.5527,3.585,3.5264,3.4958,3.4557,3.3724,3.3608,3.3951,3.4724,3.5412,3.6475,3.8067,3.8476,3.8535,3.8135,3.9965,4.119,4.1035,4.2092,4.3844,4.6371,4.6997,4.7467,4.8211,4.8219,4.8259,4.8125,4.8044,4.7658,4.7097,4.7094,4.6962,4.6598,4.51,4.45,4.4629,4.2335,4.149,4.1841,4.1387,4.1999,4.3402,4.4031,4.4943,4.588,4.588,4.588,4.5837,4.5401,4.5242,4.5068,4.379,4.3355,4.3239,4.2629,4.2411,4.2382,4.2165,4.2092,4.2046,4.1692,4.1867,4.2053,4.1448,4.172,4.211,4.1828,4.1933,4.2087,4.2087,4.1564,4.11,4.11,4.0382,3.9399,3.8244,3.69,3.5408,3.3818,3.2828,3.2194,3.1963,3.2055,3.1913,3.1258,3.1582,3.1707,3.138,3.1347,3.1482,3.1751,3.1351,3.1094,3.1094,3.0474,3.032,3.0751,3.0335,3.0212,3.0402,3.0632,3.0617,3.0386,2.9956,2.9867,3.1506,3.2965,3.3864,3.579,3.7296,3.8007,3.6986,3.6328,3.5751,3.4858,3.4539,3.396,3.2371,3.2286,3.2694,3.327,3.351,3.4883,3.8435,3.7483,3.7868,4.1654,4.0739,4.0716,4.3079,4.3806,4.4719,4.6275,4.6883,4.7637,4.8563,4.8955,4.903,4.8837,4.8812,4.8535,4.7958,4.7344,4.7421,4.8081,4.5704,4.5228,4.6359,4.291,4.1945,4.2905,4.183,4.2474,4.4312,4.4359,4.4989,4.588,4.588,4.588,4.588,4.588,4.5925,4.5751,4.4545,4.4066,4.3921,4.3253,4.3021,4.2932,4.231,4.2162,4.2175,4.2366,4.2392,4.2474,4.2648,4.2835,4.2981,4.3036,4.3155,4.329,4.329,4.2821,4.2396,4.2396,4.1332,4.0187,3.9484,3.7125,3.5125,3.4427,3.4307,3.4041,3.3353,3.3403,3.3242,3.2527,3.2521,3.239,3.2057,3.2025,3.2122,3.2398,3.2398,3.2398,3.2398,3.1778,3.1424,3.1455,3.1451,3.1142,3.0546,3.1215,3.1226,3.0572,3.0567,3.0803,3.462,3.642,3.7522,3.7639,3.8414,3.8807,3.7406,3.6583,3.5777,3.45,3.3329,3.1998,3.0409,3.0515,3.1304,3.2521,3.4878,3.7205,3.9061,4.142,4.2831,4.2627,4.3816,4.4631,4.4539,4.5207,4.5884,4.6501,4.7082,4.776,4.8539,4.915,4.9463,4.9389,4.9389,4.9113,4.856,4.7358,4.7167,4.8081,4.5543,4.5501,4.7538,4.4056,4.3113,4.4148,4.3684,4.3829,4.4359,4.5141,4.564,4.588,4.588,4.588,4.588,4.588,4.6001,4.6091,4.5756,4.52,4.456,4.3935,4.3498,4.3188,4.2845,4.2675,4.2541,4.2433,4.2514,4.2648,4.2875,4.2955,4.3036,4.321,4.325,4.329,4.329,4.2821,4.2396,4.2396,4.1332,4.0038,3.8856,3.7199,3.6026,3.5932,3.4986,3.423,3.4027,3.4559,3.4547,3.3497,3.3381,3.3064,3.2214,3.215,3.2219,3.2398,3.2398,3.2398,3.2398,3.1778,3.1613,3.2136,3.2055,3.2154,3.2484,3.3057,3.3237,3.3061,3.2558,3.2465,3.8619,3.9846,4.017,4.0014,3.9762,3.8914,3.6785,3.5716,3.4595,3.2642,3.1837,3.0881,2.8949,2.8962,2.9705,3.105,3.3706,3.6645,3.9482,4.2423,4.4417,4.4912,4.5988,4.6509,4.614,4.6575,4.6969,4.7308,4.7631,4.8002,4.8441,4.9207,4.959,4.959,4.959,4.9213,4.8397,4.7133,4.7274,4.8877,4.6328,4.6425,4.8797,4.5509,4.4657,4.565,0.0,4.4969,4.5435,4.5755,4.588,4.588,4.588,4.597,4.6046,4.6046,4.618,4.6358,4.6358,4.6079,4.5522,4.4894,4.4512,4.4246,4.3855,4.348,4.3116,4.3089,4.295,4.2875,4.3076,4.3115,4.3155,4.325,4.329,4.329,4.329,4.3045,4.2626,4.2081,4.11,4.0068,3.902,3.7718,3.6823,3.6873,3.5711,3.4942,3.5275,3.5479,3.523,3.4225,3.4212,3.3834,3.2713,3.2634,3.2581,3.2413,3.2398,3.252,3.2749,3.2456,3.2583,3.3182,3.3128,3.3265,3.3633,3.3894,3.402,3.4078,3.3697,3.3737,4.2709,4.3002,4.2157,4.2303,4.0921,3.8771,3.5691,3.4386,3.3094,3.0431,3.0436,3.0301,2.8311,2.8179,2.8806,3.023,3.2354,3.5434,4.02,4.2322,4.4516,4.7525,4.756,4.7403,4.7719,4.7898,4.8167,4.8577,4.8553,4.8515,4.8428,4.9146,4.959,4.959,4.959,4.9152,4.827,4.726,4.7964,5.0249,4.7827,4.7878,5.0015,4.7126,4.6349,4.725,4.6141,4.6134,4.6911,4.6272,4.6056,4.6056,4.5954,4.6046,4.6254,4.6254,4.6403,4.6639,4.6639,4.6683,4.6594,4.5945,4.5709,4.5532,4.5001,4.4394,4.393,4.3994,4.3575,4.318,4.3265,4.329,4.329,4.329,4.329,4.329,4.329,4.329,4.2901,4.1639,4.092,4.0292,3.958,3.8337,3.7454,3.7488,3.6445,3.5926,3.6569,3.615,3.5607,3.5048,3.5156,3.4772,3.355,3.347,3.3218,3.266,3.2641,3.2868,3.3339,3.3453,3.3761,3.4211,3.4284,3.4309,3.4309,3.4268,3.4292,3.4406,3.4431,3.4759,4.4894,4.4753,4.3803,4.2652,4.1114,3.8894,3.527,3.3912,3.2886,3.0752,3.0306,3.0227,2.9871,3.004,3.1167,3.4118,3.618,3.8786,4.2674,4.4951,4.677,4.8305,4.8602,4.8851,4.9173,4.9414,4.9672,5.0012,4.9763,4.9433,4.8948,4.9346,4.959,4.959,4.959,4.9825,5.0182,4.952,5.0231,5.2198,4.9788,4.9537,5.1236,4.8689,4.7886,4.8379,4.7691,0.0,4.7564,4.6925,4.6756,4.6909,4.634,4.6314,4.655,4.655,4.6668,4.6844,4.6844,4.6975,4.7106,4.6594,4.6195,4.588,4.556,4.527,4.4896,4.4195,4.4039,4.3962,4.3424,4.329,4.329,4.329,4.329,4.329,4.329,4.329,4.2901,4.1639,4.1332,4.0905,3.9836,3.8561,3.7707,3.7857,3.7195,3.6692,3.6829,3.66,3.6488,3.66,3.6633,3.6146,3.4946,3.4802,3.4516,3.3935,3.3887,3.3987,3.4186,3.4211,3.4284,3.4358,3.4681,3.4864,3.4864,3.527,3.5492,3.5538,3.5633,3.5805,4.5865,4.4978,4.3381,4.193,3.9615,3.6834,3.3596,3.2739,3.1946,2.9668,2.9837,3.0335,3.0112,3.0164,3.0954,3.309,3.4668,3.723,4.1943,4.3974,4.6007,4.8528,4.9007,4.9249,4.9731,4.9417,4.9528,5.0328,4.9841,4.9548,4.9756,5.0282,5.0422,5.014,5.0503,5.072,5.0677,5.0151,5.0634,5.2138,5.0682,5.0533,5.1534,5.0098,4.9322,4.9175,4.8551,4.8275,4.8188,4.7384,4.7082,4.7161,4.6622,4.6535,4.6756,4.6756,4.6887,4.7121,4.7121,4.7207,4.7251,4.7033,4.6825,4.6673,4.6514,4.6181,4.5726,4.5329,4.5027,4.4676,4.3977,4.3798,4.3763,4.3553,4.3518,4.3463,4.3329,4.3154,4.2707,4.1731,4.134,4.0894,4.002,3.9022,3.8405,3.8473,3.7871,3.7554,3.7895,3.786,3.7716,3.7548,3.7616,3.7311,3.6356,3.6338,3.6065,3.5451,3.5462,3.5457,3.5394,3.5466,3.5402,3.5237,3.5413,3.5521,3.5521,3.5711,3.5861,3.6031,3.6473,3.6749,4.6001,4.4418,4.2279,4.1186,3.8179,3.4891,3.254,3.1766,3.099,2.8767,2.9515,3.0451,3.0194,3.0036,3.0415,3.1865,3.2808,3.5318,4.0705,4.2618,4.4752,4.8302,4.8923,4.9299,4.98,4.9183,4.9183,5.0328,5.0057,4.9956,5.0218,5.0919,5.1077,5.0584,5.1415,5.1768,5.1536,5.0935,5.1308,5.2464,5.1757,5.1442,5.1599,5.1106,5.0438,4.9654,4.9146,4.8928,0.0,4.7989,4.7587,4.7502,4.7051,4.6918,4.6975,4.6975,4.7121,4.7309,4.7309,4.7309,4.7309,4.7309,4.7309,4.7309,4.7309,4.695,4.6459,4.6324,4.5828,4.5155,4.4481,4.4252,4.4108,4.3771,4.369,4.3636,4.3423,4.3151,4.268,4.1904,4.1464,4.1024,4.0399,3.97,3.9265,3.9234,3.8777,3.856,3.8952,3.9113,3.9016,3.8575,3.8652,3.8472,3.7804,3.7844,3.7609,3.696,3.702,3.6977,3.6814,3.6867,3.6775,3.6515,3.6476,3.639,3.6254,3.6319,3.6385,3.6444,3.7222,3.7632,4.5224,4.3401,4.1087,4.1359,3.8261,3.4799,3.3541,3.2059,3.0616,2.9381,2.9725,3.0384,3.0824,3.0682,3.1331,3.3792,3.4318,3.5986,4.065,4.28,4.4781,4.7258,4.8476,4.9227,4.9601,4.936,4.9566,5.0353,5.1486,5.137,4.9755,5.0302,5.0624,5.0584,5.1817,5.2996,5.4144,5.3527,5.3795,5.505,5.3835,5.2685,5.1614,5.1556,5.0859,4.9717,4.9611,4.9742,0.0,4.9209,4.886,4.8667,4.803,4.7583,4.7251,4.7251,4.7266,4.7309,4.7309,4.7309,4.7309,4.7309,4.7309,4.7309,4.7309,4.7264,4.7085,4.6444,4.5828,4.5155,4.4481,4.4043,4.3765,4.3705,4.369,4.369,4.369,4.363,4.3301,4.2167,4.1954,4.1759,4.1276,4.0565,4.0118,4.0242,4.0148,3.9902,3.9415,3.9833,4.0196,4.0254,4.0171,3.9883,3.9258,3.9214,3.8938,3.8277,3.8248,3.83,3.8384,3.8271,3.8208,3.8185,3.8054,3.7684,3.6995,3.778,3.783,3.7217,3.8084,3.8491,4.3939,4.3277,4.1903,4.0778,3.7984,3.5017,3.3464,3.167,3.0079,2.932,2.9969,3.0613,3.0337,3.0319,3.0732,3.196,3.1855,3.328,3.8018,3.8668,4.05,4.5343,4.6291,4.7445,4.9566,4.9392,4.9696,5.0998,5.1556,5.1734,5.1343,5.2351,5.2556,5.1748,5.3022,5.3777,5.3915,5.3603,5.3759,5.4255,5.3762,5.2847,5.1614,5.1614,5.0902,4.9717,4.9878,4.999,0.0,4.9716,4.9301,4.8847,4.8358,4.779,4.7309,4.7309,4.7309,4.7309,4.7309,4.7309,4.7234,4.6845,4.698,4.7309,4.7309,4.7666,4.8042,4.7768,4.7625,4.7276,4.6153,4.488,4.3832,4.3729,4.369,4.369,4.369,4.3808,4.3776,4.3494,4.3164,4.2926,4.278,4.2094,4.1593,4.1609,4.1687,4.1753,4.1742,4.1604,4.1856,4.2764,4.1401,4.0317,4.0082,4.0155,4.0065,3.9804,3.9864,3.968,3.917,3.9083,3.8831,3.83,3.8236,3.8083,3.7883,3.8242,3.8287,3.8102,3.9177,3.9696,4.2673,4.3061,4.2467,4.0843,3.8121,3.5454,3.3839,3.1796,3.0142,2.9628,3.0317,3.0822,3.0258,3.0166,3.0306,3.0578,3.0379,3.1589,3.5625,3.5964,3.7708,4.2878,4.3895,4.5291,4.8145,4.9221,5.0168,5.138,5.2236,5.2763,5.3088,5.4187,5.4064,5.2519,5.3798,5.4284,5.382,5.382,5.382,5.3805,5.3413,5.2673,5.1614,5.1425,5.0728,4.9717,4.999,4.9926,0.0,5.005,4.951,4.8512,4.8567,4.8057,4.7309,4.7309,4.7309,4.7309,4.7309,4.7309,4.7234,4.677,4.68,4.701,4.701,4.774,4.861,4.8721,4.8624,4.815,4.6772,4.52,4.3949,4.3832,4.3949,4.4112,4.4112,4.4442,4.4738,4.4816,4.4519,4.4205,4.4024,4.3578,4.3166,4.2992,4.317,4.3343,4.3602,4.3209,4.3316,4.4359,4.281,4.1626,4.1377,4.1099,4.0924,4.0924,4.0871,4.0558,3.9937,3.9849,3.9521,3.8944,3.8944,3.887,3.8723,3.9134,3.9247,3.9145,4.0375,4.1049,4.1501,4.2237,4.2279,4.1794,3.9117,3.6267,3.5057,3.2904,3.1058,3.0596,3.0773,3.0984,3.0972,3.0544,3.0306,3.0578,3.1065,3.2043,3.3962,3.598,3.7927,3.9661,4.1428,4.3208,4.489,4.8672,5.1142,5.1442,5.3877,5.5072,5.4512,5.506,5.4484,5.256,5.3798,5.4517,5.4502,5.4502,5.4502,5.4487,5.3196,5.2238,5.1599,5.0975,5.0322,4.9717,4.999,4.9605,0.0,5.0239,4.9522,4.7727,4.8862,4.8461,4.7309,4.7309,4.7309,4.7309,4.7309,4.7309,4.7309,4.7294,4.686,4.6294,4.6294,4.7376,4.8666,4.8929,4.8119,4.692,4.564,4.4684,4.3988,4.3988,4.4541,4.5073,4.5073,4.5809,4.636,4.5888,4.5793,4.5538,4.4814,4.4776,4.4757,4.4423,4.4493,4.4533,4.4414,4.4395,4.4417,4.4578,4.4561,4.4239,4.3432,4.222,4.1494,4.1494,4.0977,4.0769,4.0871,4.0638,4.0541,4.068,4.068,4.0285,3.9489,4.0819,4.1091,4.0411,4.1618,4.2564,3.7508,3.8092,3.7996,3.8052,3.5905,3.3626,3.3114,3.1175,2.9441,2.9294,2.9624,2.9891,2.9891,2.95,2.9616,3.0904,3.1275,3.2008,3.3829,3.5731,3.7923,4.0523,4.4462,4.7344,4.8043,5.0051,5.1754,5.2815,5.4442,5.5308,5.513,5.4539,5.3681,5.2658,5.262,5.2176,5.1336,5.135,5.1778,5.2556,5.1747,5.147,5.1599,5.1096,5.0539,4.999,5.0394,5.0028,0.0,5.0508,4.9693,4.7727,4.8862,4.8461,4.7309,4.7309,4.7309,4.7309,4.7309,4.7309,4.716,4.6232,4.646,4.6977,4.6145,4.6966,4.8393,4.9288,4.9305,4.8709,4.7232,4.6184,4.5499,4.5384,4.5499,4.5685,4.5809,4.6202,4.6662,4.7144,4.7154,4.7214,4.7517,4.7538,4.75,4.7487,4.759,4.7589,4.7307,4.6863,4.6726,4.709,4.6147,4.4912,4.3534,4.274,4.2101,4.1529,4.1071,4.0817,4.0769,4.0673,4.0782,4.1088,4.1111,4.1193,4.1343,4.1761,4.2121,4.2394,4.2759,4.3348,3.4642,3.6002,3.6398,3.5864,3.4423,3.2793,3.1705,3.0232,2.9032,2.8762,2.9014,2.9382,2.9644,2.9215,2.9323,3.0856,3.1169,3.1681,3.3071,3.5404,3.8206,4.1558,4.5123,4.7829,4.9089,5.0802,5.253,5.4084,5.4929,5.5322,5.5117,5.3683,5.2413,5.1352,5.1127,5.0629,4.9915,4.9915,5.0408,5.1351,5.0747,5.0787,5.1372,5.088,5.0515,5.0294,5.0632,5.0206,0.0,5.0351,4.9565,4.7698,4.8595,4.8252,4.7309,4.7309,4.7309,4.7309,4.7309,4.7309,4.713,4.6037,4.6183,4.6708,4.6378,4.7377,4.8763,4.9559,4.9642,4.9185,4.7925,4.6883,4.6111,4.6076,4.6256,4.647,4.6694,4.729,4.7981,4.8553,4.8818,4.8998,4.9263,4.9291,4.9263,4.9234,4.9107,4.8978,4.8983,4.8325,4.7975,4.8267,4.7407,4.6137,4.4469,4.3662,4.2871,4.2086,4.1561,4.1305,4.126,4.1214,4.1316,4.1635,4.1635,4.1825,4.2198,4.2483,4.2996,4.3712,4.3904,4.4055,0.0,3.5039,3.6355,3.475,3.4042,3.3118,3.0667,2.9894,0.0,2.8787,2.8818,2.9234,3.0012,2.9487,2.9338,3.0543,3.0898,3.1282,3.2123,3.5325,3.897,4.2749,4.4243,4.5896,4.8394,5.1067,5.3402,5.5281,5.5355,5.5118,5.4571,5.2592,5.0757,4.9055,4.936,4.9592,4.9632,4.9538,4.987,5.0535,4.9903,5.0067,5.086,5.0379,5.0294,0.0,5.068,0.0,0.0,4.9861,4.9103,4.7654,4.8104,4.7878,4.7309,4.7309,4.7309,4.7309,4.7309,4.7279,4.7115,4.6524,4.5996,4.583,4.701,4.8398,4.9542,4.9722,4.9339,4.8674,4.7899,4.6908,4.6198,4.6308,4.6918,4.7523,4.7704,4.8927,4.9971,5.0033,5.0544,5.0813,5.0242,5.0293,5.033,5.0082,4.951,4.9252,4.9643,4.8985,4.8434,4.8324,4.8306,4.7664,4.603,4.4854,4.3806,4.2955,4.2342,4.2059,4.2198,4.2098,4.2098,4.2257,4.23,4.234,4.234,4.3032,4.3743,4.4465,4.4897,4.4647,2.837,0.0,2.9799,3.0472,3.0059,2.9382,0.0,2.8964,2.8657,2.7935,2.7988,2.852,2.9666,2.911,2.9268,3.1678,3.1912,3.2253,3.3461,3.7488,4.1441,4.4658,4.7433,4.9062,4.8936,5.2417,5.4901,5.5339,5.502,5.4499,5.3881,5.1223,4.9106,4.7791,4.6966,4.6724,4.7146,4.6276,4.6601,4.8113,4.7907,4.8503,4.9817,5.0218,5.0519,5.068,5.0124,0.0,4.947,4.9106,4.845,4.7654,4.8104,4.7878,4.7309,4.7309,4.7309,4.7309,4.7309,4.698,4.6548,4.66,4.6555,4.6708,4.7853,4.8464,4.8828,4.9103,4.94,4.9439,4.8513,4.81,4.7885,4.7754,4.8398,4.9076,4.9124,4.993,5.067,5.0697,5.1268,5.171,5.1622,5.2017,5.2356,5.2389,5.2267,5.176,5.0653,5.0343,4.9719,4.8453,4.8306,4.7664,4.603,4.5345,4.4405,4.2992,4.2438,4.2177,4.2198,4.2177,4.2358,4.2731,4.3284,4.3577,4.3594,4.3955,4.4423,4.4943,4.5053,4.4834,2.6363,2.7047,2.7743,2.8579,2.8557,2.8337,2.8347,2.8156,2.783,2.7429,2.7464,2.7952,2.9089,2.8637,2.8885,3.1263,3.1681,3.2901,3.622,3.9322,4.2562,4.6117,4.8597,5.0263,5.1017,5.3016,5.4495,5.5004,5.3665,5.2443,5.1571,4.9186,4.7388,4.6502,4.5307,4.4982,4.5535,4.4932,4.547,4.7271,4.7325,4.8249,4.9915,5.0411,5.0742,5.0917,5.0013,0.0,4.9783,4.8607,4.8059,4.792,4.7851,4.7623,4.7309,4.7309,4.7309,4.7264,4.6965,4.6455,4.6087,4.6924,4.7007,4.7017,4.8162,4.851,4.858,4.8916,4.9181,4.9291,4.8776,4.8781,4.892,4.8855,4.9499,5.0118,5.0185,5.0814,5.1421,5.1436,5.2006,5.2499,5.2595,5.2893,5.2975,5.269,5.2344,5.1646,5.0398,4.9903,4.9315,4.8398,4.8306,4.781,4.6562,4.5918,4.4892,4.3269,4.2939,4.2808,4.2808,4.2808,4.2995,4.339,4.3918,4.425,4.4379,4.4618,4.4909,4.5275,4.5027,4.4588,2.5777,2.6927,2.7911,2.772,2.8157,2.8479,2.7916,2.7554,2.7272,2.7231,2.7288,2.7663,2.8571,2.8528,2.889,3.0553,3.1513,3.3982,3.932,4.123,4.3437,4.7122,4.9183,5.1096,5.319,5.328,5.3595,5.4526,5.2009,5.0002,4.9153,4.7223,4.5937,4.5372,4.4342,4.3978,4.4367,4.4367,4.5166,4.6773,4.708,4.8229,5.0072,5.0427,5.0763,5.0971,0.0,0.0,4.994,4.8185,4.7798,4.8222,4.7563,4.7309,4.7309,4.7309,4.7309,4.7204,4.6554,4.6123,4.6055,4.7273,4.7401,4.7305,4.8322,4.8702,4.8827,4.9182,4.9107,4.8909,4.8909,4.9256,4.9593,4.9734,5.0324,5.0911,5.1043,5.1672,5.2242,5.2304,5.2736,5.313,5.3272,5.323,5.2931,5.2105,5.1426,5.0655,4.9721,4.8948,4.8453,4.8324,4.8363,4.7996,4.7077,4.6414,4.5363,4.3741,4.3599,4.3599,4.3631,4.3631,4.3779,4.4064,4.4341,4.4618,4.4849,4.5074,4.5323,4.5576,4.5112,4.444,2.6547,2.7296,2.7424,2.6514,2.7337,2.8101,2.714,2.737,2.7679,2.7272,2.7699,2.8298,2.8866,2.9834,3.0812,3.1716,3.3962,3.7086,4.1351,4.3878,4.5914,4.7618,5.1536,5.372,5.298,5.3555,5.4137,5.4542,5.1052,4.8973,4.9114,4.69,4.5347,4.4769,4.4129,4.3614,4.3237,4.3237,4.3751,4.4737,4.5253,4.6348,4.7988,4.8993,4.9769,5.0284,0.0,4.9016,4.9314,4.7556,4.743,4.8222,4.7563,4.7309,4.7309,4.7309,4.7309,4.7201,4.6671,4.6894,4.7412,4.7063,4.7688,4.8666,4.9131,4.9622,5.0079,5.0342,4.9976,4.9487,4.9487,4.9879,5.0359,5.0507,5.1095,5.1683,5.1799,5.2593,5.3273,5.3274,5.345,5.3585,5.3623,5.338,5.2931,5.2105,5.1885,5.1279,4.9794,4.9482,4.9114,4.8379,4.855,4.8118,4.6637,4.6653,4.6035,4.4368,4.4045,4.403,4.4242,4.4256,4.4289,4.4346,4.4768,4.502,4.5053,4.5439,4.5725,4.5915,4.5838,4.5355,2.5647,2.6472,2.6873,2.6313,2.7532,2.8661,2.77,2.7705,2.7923,2.7999,2.8285,2.8766,2.9495,3.0711,3.2321,3.4487,3.6954,3.9693,4.3021,4.5097,4.7133,4.9531,5.2133,5.3452,5.2537,5.2496,5.2229,5.1404,4.8731,4.7103,4.7167,4.5522,4.4455,4.4192,4.3639,4.3237,4.2974,4.3129,4.3755,4.4759,4.5715,4.6967,4.8453,4.9344,4.9937,5.012,0.0,4.8341,4.8656,4.7278,4.7137,4.7728,4.7429,4.7309,4.7337,4.7822,4.7782,4.7518,4.7743,4.8055,4.8292,4.8034,4.8647,4.9639,5.0321,5.0777,5.1099,5.1302,5.0794,5.0185,5.0185,5.0634,5.1131,5.1268,5.1994,5.2678,5.2809,5.3393,5.3924,5.3924,5.3979,5.3867,5.34,5.3199,5.2661,5.1379,5.1193,5.0766,4.9593,4.9444,4.9277,4.8886,4.9015,4.8642,4.7467,4.712,4.6229,4.451,4.4275,4.426,4.4383,4.4651,4.478,4.478,4.5199,4.5434,4.5488,4.5702,4.5857,4.595,4.5502,4.509,2.486,2.572,2.6417,2.6437,2.7817,2.9045,2.8591,2.8356,2.8492,2.9428,2.951,2.9663,3.0472,3.1845,3.3863,3.7044,3.9302,4.1688,4.4611,4.6463,4.8459,5.1132,5.2496,5.2923,5.2171,5.1033,4.9771,4.8609,4.6491,4.5318,4.5309,4.4342,4.3802,4.3802,4.3263,4.303,4.3085,4.3283,4.3878,4.4845,4.6014,4.7322,4.8714,4.931,4.9668,4.9702,4.836,4.7877,4.8013,4.7167,4.7007,4.7294,4.713,4.7199,4.7452,4.8101,4.842,4.8514,4.8754,4.9071,4.9318,4.9396,4.9946,5.068,5.1487,5.1919,5.2137,5.2281,5.1741,5.1087,5.0955,5.1363,5.1897,5.2101,5.2809,5.3469,5.3645,5.4068,5.4413,5.4413,5.4413,5.415,5.3287,5.3071,5.2423,5.0753,5.0491,5.0225,4.9396,4.9314,4.9314,4.9314,4.9464,4.9254,4.8545,4.7776,4.6768,4.5411,4.4878,4.4606,4.4682,4.5057,4.5256,4.5244,4.5568,4.5781,4.5827,4.5869,4.5901,4.5877,4.5258,4.4943,2.5115,2.5743,2.6252,2.68,2.7679,2.8612,2.9486,2.9473,2.9887,3.1876,3.1912,3.1639,3.1914,3.3624,3.5807,3.8281,4.0224,4.2685,4.6381,4.8986,5.0809,5.1603,5.3303,5.3746,5.2021,4.9251,4.7775,4.8217,4.5485,4.4101,4.4636,4.4129,4.3802,4.3802,4.3263,4.3141,4.3394,4.3394,4.3585,4.3997,4.4705,4.5813,4.7144,4.7602,4.8003,4.8416,4.8327,4.7938,4.7369,4.7282,4.7252,4.7249,4.6636,4.6857,4.7598,4.7653,4.8992,5.056,4.9173,4.9661,5.0865,5.0985,5.149,5.2084,5.2351,5.2863,5.3393,5.3532,5.3002,5.2233,5.1694,5.2018,5.2662,5.3164,5.339,5.3626,5.4122,5.4528,5.4761,5.4761,5.4761,5.4515,5.3701,5.3252,5.2423,5.0753,5.0491,5.0225,4.9396,4.936,4.939,4.939,4.9719,4.9782,4.9345,4.8686,4.8257,4.8114,4.6247,4.5256,4.55,4.567,4.5716,4.5663,4.5802,4.5887,4.5885,4.5892,4.5891,4.5907,4.5775,4.5656,2.4774,2.572,2.6671,2.7184,2.8063,2.9098,3.0148,3.0767,3.1513,3.316,3.3827,3.4389,3.5132,3.6174,3.758,3.9501,4.1729,4.4111,4.6569,4.8459,5.0073,5.1328,5.197,5.152,4.9465,4.7886,4.6604,4.5773,4.3986,4.3146,4.3601,4.2748,4.2271,4.2271,4.2221,4.2258,4.2366,4.2703,4.2984,4.3104,4.5037,4.6302,4.7024,4.7719,4.8119,4.8267,4.7863,4.7534,4.7309,4.7309,4.7309,4.7278,4.7095,4.7567,4.8345,4.881,4.979,5.0849,5.0258,5.0729,5.1601,5.1752,5.2307,5.3105,5.4276,5.4485,5.4388,5.443,5.3874,5.3193,5.2967,5.273,5.2694,5.3265,5.3587,5.3905,5.4493,5.4903,5.5173,5.5173,5.5173,5.4901,5.4063,5.334,5.265,5.2037,5.1036,5.0507,5.0863,5.047,5.0186,5.0326,5.0017,4.9768,4.9653,4.8922,4.8452,4.8452,4.7145,4.6436,4.6531,4.6105,4.585,4.582,4.5872,4.5891,4.5906,4.5822,4.5784,4.5778,4.5652,4.5595,2.3922,2.4995,2.619,2.6741,2.7982,2.9577,3.1514,3.2396,3.3315,3.5337,3.5966,3.6435,3.7505,3.7721,3.8371,4.0331,4.2447,4.4598,4.6749,4.7803,4.8825,5.006,4.9961,4.897,4.6901,4.6116,4.5176,4.3936,4.2843,4.2301,4.2472,4.1743,4.1288,4.1288,4.1531,4.1745,4.1851,4.2341,4.2814,4.3205,4.4697,4.574,4.6448,4.7519,4.7982,4.7938,4.7279,4.7115,4.7279,4.6845,4.6701,4.6823,4.759,4.8248,4.8812,4.9541,5.0538,5.1488,5.102,5.1494,5.2316,5.2502,5.2927,5.3585,5.4826,5.4888,5.455,5.468,5.4127,5.3663,5.4296,5.3794,5.3306,5.3995,5.4352,5.47,5.5264,5.5372,5.5403,5.5403,5.5403,5.5116,5.4256,5.3607,5.3034,5.2499,5.1492,5.0973,5.1424,5.1043,5.0782,5.0927,5.0478,5.0192,5.0232,4.9733,4.9418,4.9418,4.8537,4.7751,4.7199,4.6379,4.5914,4.5898,4.5855,4.5839,4.5838,4.5705,4.5631,4.5627,4.5493,4.5448,2.2536,2.3384,2.4606,2.5351,2.7334,3.0089,3.3672,3.4359,3.526,3.8851,3.8334,3.7541,3.8623,3.795,3.8082,4.0739,4.2062,4.3878,4.7094,4.7381,4.7377,4.7723,4.7539,4.6666,4.4772,4.3854,4.3317,4.3011,4.2182,4.1579,4.1313,4.1275,4.1275,4.1275,4.1572,4.1839,4.2157,4.2446,4.323,4.4465,4.3348,4.3671,4.5245,4.6637,4.7279,4.7249,4.6591,4.6681,4.7189,4.5843,4.54,4.5727,4.7858,4.8746,4.8911,4.9556,5.1164,5.2765,5.1329,5.1811,5.3114,5.3264,5.3387,5.3532,5.3664,5.3711,5.3793,5.4173,5.372,5.3571,5.5552,5.5303,5.4729,5.5584,5.5832,5.6023,5.6502,5.5957,5.5403,5.5403,5.5403,5.5135,5.4256,5.4104,5.3531,5.1888,5.1783,5.1587,5.072,5.0847,5.0997,5.1008,5.1113,5.1207,5.1207,5.133,5.1406,5.1406,5.0514,4.9193,4.7396,4.6468,4.5974,4.5901,4.5759,4.5699,4.568,4.5566,4.5495,4.5495,4.536,4.5297,2.2971,2.4127,2.5887,2.7212,2.9385,3.1977,3.4958,3.5551,3.6399,3.953,3.9188,3.8551,3.9248,3.9104,3.9272,4.0439,4.1521,4.2791,4.4286,4.4677,4.4873,4.5238,4.5365,4.5036,4.4148,4.3846,4.3357,4.2527,4.1773,4.1234,4.0736,4.0388,4.0278,4.0474,4.0733,4.0991,4.1286,4.1567,4.1987,4.26,4.2995,4.3989,4.5554,4.5113,4.5293,4.5888,4.5678,4.5708,4.59,4.6082,4.6785,4.7788,4.8443,4.9323,5.0241,5.0425,5.1174,5.204,5.1681,5.1876,5.2379,5.3182,5.3484,5.364,5.4315,5.4345,5.4147,5.4283,5.3933,5.3717,5.4613,5.5096,5.5429,5.5737,5.5378,5.5133,5.563,5.5575,5.5403,5.5403,5.5403,5.532,5.5065,5.4626,5.4355,5.4474,5.3123,5.1825,5.105,5.1141,5.1252,5.1228,5.125,5.1269,5.1269,5.1302,5.1286,5.1186,5.0217,4.92,4.8195,4.7317,4.645,4.5628,4.5483,4.537,4.5274,4.5145,4.5076,4.5065,4.485,4.4733,2.3142,2.4567,2.6558,2.8079,3.0612,3.3494,3.6518,3.7654,3.8736,4.092,4.0162,3.9417,4.0379,3.9862,3.9669,4.0836,4.1557,4.2264,4.3091,4.3289,4.3518,4.3867,4.3944,4.384,4.3501,4.3275,4.2785,4.1894,4.1116,4.0538,4.0212,3.9672,3.9511,3.9741,3.9994,4.0143,4.021,4.0483,4.1103,4.2057,4.204,4.3121,4.5112,4.4683,4.4744,4.5274,4.5318,4.5208,4.5086,4.6416,4.7506,4.8431,4.9236,5.0049,5.083,5.1061,5.1393,5.1715,5.1858,5.1932,5.2077,5.278,5.3062,5.32,5.3778,5.3895,5.3873,5.4022,5.3995,5.4108,5.4896,5.5284,5.5552,5.5954,5.5693,5.5446,5.579,5.5632,5.5422,5.5499,5.5523,5.5531,5.5628,5.5297,5.4984,5.4817,5.3055,5.1635,5.1263,5.1308,5.1338,5.1299,5.1196,5.1141,5.1141,5.1024,5.0914,5.0828,5.0187,4.9301,4.8186,4.7303,4.6379,4.537,4.5216,4.5102,4.5023,4.4936,4.4895,4.4895,4.4732,4.4604,2.3129,2.4754,2.6727,2.8415,3.1508,3.5021,3.8281,4.015,4.1437,4.2422,4.1088,4.0246,4.1641,4.0331,3.9681,4.1653,4.193,4.2191,4.2994,4.2922,4.2951,4.3295,4.3119,4.2961,4.2898,4.2502,4.1882,4.1188,4.0262,3.9647,3.9546,3.9069,3.8932,3.917,3.9407,3.9411,3.9249,3.9538,4.0609,4.2388,4.1025,4.1678,4.4152,4.4669,4.4908,4.4941,4.5096,4.4857,4.4573,4.664,4.7619,4.7972,4.9912,5.0724,5.0849,5.1477,5.1715,5.174,5.1882,5.2005,5.215,5.2269,5.2374,5.244,5.244,5.2747,5.3197,5.3552,5.4013,5.4651,5.5875,5.5598,5.5225,5.6025,5.6314,5.6439,5.6512,5.5944,5.5499,5.5699,5.573,5.5769,5.5878,5.5904,5.5317,5.3586,5.2138,5.1253,5.1346,5.1286,5.124,5.1208,5.0996,5.0855,5.0855,5.0564,5.0391,5.0382,5.0305,4.9441,4.7636,4.6816,4.5978,4.5071,4.4905,4.4858,4.4858,4.4846,4.4846,4.4858,4.4846,4.4694,2.367,2.5048,2.7125,3.0541,3.4593,3.8245,4.0234,4.0944,4.1136,4.0944,4.1196,4.1437,4.1365,4.098,4.0956,4.1834,4.1629,4.1649,4.2436,4.243,4.2384,4.2655,4.2881,4.2798,4.2426,4.2275,4.1622,4.0149,3.9823,3.9308,3.8417,3.8253,3.8389,3.8868,3.8917,3.9159,3.9503,4.0307,4.1027,0.0,4.2051,4.2453,4.2791,4.2166,4.204,4.2284,4.2809,4.334,4.3913,4.5359,4.6619,4.7786,4.9288,5.0152,5.0659,5.1408,5.1783,5.1882,5.2005,5.215,5.2287,5.2405,5.2261,5.2043,5.2043,5.2585,5.3266,5.3348,5.4128,5.4985,5.528,5.488,5.4445,5.4703,5.5293,5.5819,5.5874,5.5827,5.5814,5.5919,5.5935,5.5746,5.5162,5.5145,5.4669,5.3016,5.248,5.1943,5.1054,5.0927,5.081,5.0548,5.046,5.0432,5.0432,5.0355,5.0281,5.0168,5.0054,4.915,4.7276,4.7288,4.6518,4.4827,4.4544,4.4481,4.4578,4.4374,4.4374,4.4578,4.4374,4.424,2.4186,2.5972,2.858,3.3386,3.6936,3.9549,4.0872,4.1184,4.11,4.0824,4.1208,4.1509,4.1232,4.1184,4.1268,4.1545,4.1365,4.1384,4.1926,4.203,4.2113,4.2109,4.2406,4.2371,4.1819,4.1291,4.0614,3.976,3.8944,3.8354,3.8027,3.7764,3.7808,3.8197,3.8085,3.823,3.878,3.9123,3.9757,4.0798,4.1254,4.1462,4.1429,4.1266,4.1439,4.1893,4.1893,4.2724,4.4129,4.508,4.63,4.7748,4.9389,5.0229,5.0602,5.1405,5.1765,5.1907,5.2054,5.2222,5.2405,5.2508,5.2312,5.1994,5.1994,5.2305,5.2676,5.2676,5.3623,5.4543,5.4186,5.4219,5.4265,5.3937,5.4216,5.4679,5.5119,5.5283,5.5501,5.6039,5.5805,5.54,5.5058,5.4331,5.3474,5.2516,5.1983,5.1439,5.0702,5.0584,5.0487,5.031,5.0195,5.0114,5.0114,4.993,4.9622,4.9167,4.94,4.8591,4.6419,4.6878,4.6321,4.4528,4.4177,4.4057,4.4124,4.3983,4.3983,4.4124,4.4199,4.4173,2.4425,2.7111,3.0529,3.5637,3.813,3.9633,4.0787,4.1052,4.1076,4.1172,4.1184,4.1184,4.1184,4.1112,4.1052,4.1052,4.0968,4.1022,4.1225,4.1577,4.1768,4.152,4.1768,4.1656,4.1103,4.0149,3.9471,3.927,3.7877,3.7199,3.7563,3.7061,3.6902,3.72,3.693,3.7072,3.7571,3.7619,3.8366,3.9809,3.9969,4.0121,4.0247,4.0815,4.1349,4.1858,4.1315,4.2123,4.3929,4.4669,4.5787,4.7215,4.9156,4.9977,5.0191,5.1019,5.1493,5.1741,5.17,5.1968,5.2313,5.2294,5.2066,5.1823,5.188,5.1898,5.1947,5.1954,5.2921,5.3788,5.3229,5.3589,5.3979,5.3378,5.3021,5.312,5.4252,5.4531,5.4816,5.5705,5.5158,5.4594,5.4707,5.3311,5.2106,5.1877,5.1134,5.0518,5.0298,5.0204,5.0157,5.013,4.9911,4.9776,4.9776,4.9469,4.8992,4.8318,4.8854,4.8207,4.5988,4.6533,4.6122,4.4498,4.3998,4.3726,4.371,4.3642,4.3682,4.3776,4.4135,4.4153,2.3849,2.7975,3.2385,3.5147,3.7024,3.8599,4.015,4.0499,4.0631,4.1088,4.1184,4.1184,4.1184,4.0812,4.0499,4.0499,4.0114,3.9813,3.9869,4.0379,4.0684,4.0665,4.0707,4.0513,3.9973,3.9346,3.863,3.76,3.692,3.6295,3.5846,3.5353,3.5234,3.5686,3.5654,3.5876,3.6345,3.7853,3.8722,3.8952,3.9909,4.0062,3.9529,3.964,3.9726,3.9816,3.9719,4.0179,4.1089,4.2673,4.3862,4.4854,4.6731,4.7895,4.8609,4.949,5.0325,5.0951,5.0402,5.0805,5.1468,5.1067,5.0806,5.0665,5.0974,5.1352,5.1667,5.1793,5.2517,5.3253,5.3331,5.3021,5.2666,5.2557,5.1463,5.1052,5.3267,5.383,5.3962,5.4113,5.3437,5.2841,5.2865,5.1788,5.092,5.081,5.0506,5.0133,4.9758,4.9698,4.9603,4.9377,4.9302,4.9289,4.9289,4.9244,4.9174,4.9062,4.9139,4.8679,4.7534,4.7609,4.6869,4.5204,4.4316,4.383,4.371,4.3458,4.3614,4.4127,4.3905,4.3927,2.5503,2.8545,3.1559,3.445,3.6146,3.7517,3.9152,3.9741,3.9934,3.9874,4.009,4.0487,4.1076,4.0751,4.0391,4.0391,3.9958,3.9652,3.9806,3.9837,3.9815,3.9816,3.9559,3.9204,3.8806,3.799,3.7274,3.6807,3.5931,3.5203,3.465,3.4399,3.4243,3.4277,3.4101,3.4545,3.5637,3.675,3.7723,3.86,3.9053,3.9128,3.8831,3.8448,3.8687,3.9387,3.9356,3.9957,4.1046,4.2022,4.317,4.4487,4.6295,4.7553,4.8455,4.9215,4.9851,5.0339,5.0261,5.061,5.1134,5.1176,5.1002,5.0757,5.0908,5.0659,5.031,5.0374,5.1155,5.1894,5.149,5.1974,5.2438,5.1911,5.0873,5.0249,5.1115,5.1476,5.1755,5.2191,5.1838,5.1413,5.1392,5.0774,5.0258,5.0063,4.9935,4.9752,4.9431,4.937,4.9327,4.9211,4.9214,4.9214,4.9214,4.8923,4.8376,4.7449,4.796,4.7499,4.5737,4.6544,4.6562,4.5599,4.5213,4.4651,4.3871,4.4198,4.437,4.436,4.4525,4.4418,2.6247,2.8132,2.9932,3.2821,3.4522,3.5925,3.7584,3.8515,3.8924,3.8659,3.9032,3.9645,4.0439,4.0258,3.9946,3.9801,3.9333,3.899,3.905,3.8817,3.8692,3.8743,3.8252,3.7805,3.7626,3.6609,3.5968,3.5943,3.5052,3.4274,3.3721,3.3545,3.3348,3.3089,3.2848,3.3344,3.4633,3.5435,3.664,3.8138,3.8312,3.8311,3.8137,3.7964,3.8356,3.9116,3.9068,3.9744,4.0895,4.1468,4.2521,4.3989,4.5858,4.7172,4.8117,4.8959,4.955,4.9913,5.0051,5.0397,5.0805,5.1037,5.0934,5.0718,5.0806,5.0099,4.9307,4.933,5.0034,5.0611,4.9987,5.1074,5.2145,5.1443,5.0546,4.978,4.951,4.9551,4.9878,5.0653,5.0581,5.0413,5.0361,5.0098,4.9815,4.9585,4.9502,4.9396,4.9162,4.9113,4.9079,4.8976,4.8959,4.8925,4.8801,4.8421,4.7681,4.6489,4.7145,4.6794,4.4999,4.6067,4.6463,4.5954,4.6193,4.5658,4.431,4.4789,4.4899,4.4658,4.4767,4.4602,2.4442,2.6155,2.8099,2.9659,3.1565,3.3529,3.5375,3.6579,3.7457,3.7926,3.8467,3.8876,3.8924,3.8924,3.8731,3.819,3.7661,3.7144,3.6639,3.6809,3.7039,3.7266,3.6591,3.621,3.6445,3.5454,3.4813,3.4813,3.4274,3.3709,3.3156,3.2604,3.2272,3.2147,3.2137,3.2365,3.2817,3.4379,3.5942,3.7464,3.8111,3.8073,3.7492,3.867,3.8908,3.8363,3.8359,3.8755,3.9478,4.0478,4.136,4.233,4.4596,4.5974,4.6853,4.8163,4.9177,4.9822,4.9202,4.9633,5.0357,4.9942,4.983,4.9914,5.0245,4.9854,4.9324,4.9459,4.9662,4.9879,4.9898,5.0578,5.1267,5.123,5.0296,4.9399,4.9323,4.9124,4.9146,4.9842,4.9947,4.9941,4.9929,4.976,4.9579,4.9435,4.9255,4.9083,4.8926,4.8926,4.8767,4.8382,4.8344,4.8172,4.7715,4.7653,4.7617,4.7505,4.7557,4.7536,4.7409,4.7482,4.7156,4.6379,4.7125,4.6724,4.5126,4.4713,4.4702,4.504,4.4001,4.405,2.4802,2.5561,2.6593,2.8575,3.0276,3.186,3.3493,3.481,3.5725,3.5918,3.6386,3.6771,3.6771,3.7589,3.8334,3.8491,3.7769,3.7132,3.694,3.6529,3.6283,3.6186,3.5798,3.5301,3.4851,3.411,3.3508,3.3144,3.2604,3.2051,3.1524,3.1407,3.1242,3.1009,3.1151,3.1988,3.3669,3.4673,3.5529,3.6193,3.6818,3.6971,3.6789,3.7578,3.83,3.8903,3.8247,3.8663,3.9808,4.0559,4.1688,4.3099,4.4237,4.5736,4.7296,4.7679,4.8448,4.9269,4.9337,4.96,4.9971,5.0069,5.0107,5.0144,5.0259,4.9527,4.8659,4.8662,4.8867,4.9097,4.9066,5.0125,5.0988,5.0173,4.9323,4.8643,4.8504,4.7341,4.6698,4.7935,4.8037,4.823,4.9217,4.9148,4.8954,4.8902,4.8837,4.875,4.8714,4.8714,4.8678,4.8624,4.8345,4.8134,4.8055,4.7485,4.6944,4.6482,4.6618,4.6506,4.6008,4.6452,4.6715,4.6725,4.6697,4.6323,4.5516,4.5886,4.5957,4.5793,4.5405,4.5153,2.4798,2.5006,2.5588,2.7584,2.8721,2.9781,3.1451,3.257,3.3278,3.3256,3.3967,3.4584,3.4584,3.574,3.6892,3.7625,3.7132,3.6603,3.6423,3.579,3.5357,3.5339,3.4691,3.4077,3.3652,3.2943,3.2353,3.1964,3.1599,0.0,3.0725,3.0833,3.088,3.0885,3.1073,3.205,3.3908,3.4387,3.4743,3.5102,3.5737,3.6146,3.6318,3.6902,3.7679,3.8546,3.8042,3.8681,4.0119,4.0688,4.1796,4.3226,4.429,4.5606,4.6959,4.7599,4.8284,4.8991,4.9561,4.9841,4.9942,5.0212,5.0302,5.0314,5.0385,4.9605,4.8641,4.8346,4.8679,4.9018,4.8658,4.975,5.0649,4.9596,4.877,4.8167,4.7897,4.6778,4.6202,4.7437,4.7529,4.7732,4.8768,4.8748,4.8605,4.8605,4.8605,4.855,4.8402,4.8383,4.827,4.8058,4.7738,4.753,4.7464,4.689,4.6324,4.5829,4.5971,4.5863,4.5355,4.581,4.6228,4.6602,4.6301,4.6055,4.5863,4.64,4.6501,4.6196,4.5951,4.5431,0.0,0.0,0.0,2.6371,2.6795,2.7385,2.9199,2.9925,3.0189,3.0193,3.1435,3.2543,3.2566,3.3325,3.4306,3.5327,3.5507,3.5388,3.4823,3.4354,3.4195,3.4642,3.3289,3.2513,3.2963,3.2014,3.1361,3.1348,3.1336,3.1191,3.0873,3.0926,3.119,3.1773,3.2051,3.2569,3.338,3.3431,3.3724,3.4292,3.4955,3.5557,3.6088,3.6755,3.7085,3.7153,3.7634,3.8741,4.0205,4.0778,4.1562,4.2604,4.4676,4.5479,4.5781,4.7859,4.872,4.8985,4.9784,5.0156,5.0264,5.0294,5.0314,5.0359,5.0557,5.007,4.9323,4.8599,4.9101,4.9657,4.8771,4.9431,5.0175,4.9542,4.8743,4.8013,4.7613,4.7616,4.7893,4.8439,4.855,4.8569,4.8587,4.8587,4.8587,4.8587,4.8587,4.8421,4.7941,4.7881,4.7512,4.6619,4.6501,4.6321,4.5871,4.5795,4.5795,4.5795,4.5795,4.5795,4.5795,4.5795,4.5846,4.5998,4.5998,4.6048,4.6196,4.6214,4.6196,4.6179,4.5484,4.4711,2.42,0.0,0.0,0.0,0.0,0.0,2.7325,2.7867,2.8593,2.9748,3.0244,3.0674,3.1343,3.2559,3.3385,3.3101,3.4019,3.4618,3.4282,3.4096,3.3741,3.3081,3.2765,3.2251,3.137,3.1022,3.067,0.0,3.0231,3.0286,3.0316,3.1094,3.1676,3.2015,3.3094,3.3604,3.338,3.3825,3.3923,3.366,3.4662,3.5239,3.5412,3.6024,3.677,3.7595,3.7045,3.7914,3.9767,4.0796,4.1742,4.2693,4.4136,4.5245,4.6087,4.6721,4.739,4.8083,4.8998,4.9362,4.9564,5.0343,5.0566,5.0547,5.07,4.9828,4.8721,4.846,4.8631,4.9022,4.9581,4.9231,4.8819,4.9111,4.8795,4.8396,4.8145,4.8182,4.8163,4.7739,4.7666,4.7813,4.8291,4.8382,4.8382,4.8382,4.8096,4.7838,4.7695,4.7399,4.7097,4.6864,4.6613,4.6387,4.6321,4.6005,4.5795,4.5795,4.5795,4.5795,4.5795,4.5795,4.5838,4.5846,4.5846,4.5871,4.5897,4.6097,4.6196,4.6196,4.5986,4.5775,0.0,0.0,2.4468,2.5388,0.0,0.0,2.5849,2.5799,2.5846,2.6396,2.6802,2.7285,2.7944,2.9292,3.0266,3.016,3.1124,3.2274,3.3367,3.3244,3.278,3.2043,3.1711,3.1278,3.0668,3.0407,3.0143,2.9817,2.9792,3.0049,3.0659,3.1203,3.185,3.2626,3.3192,3.3336,3.301,3.3622,3.3728,3.3341,3.4254,3.4785,3.5053,3.5599,3.6259,3.6915,3.6807,3.7535,3.89,4.0289,4.1595,4.2742,4.3721,4.4764,4.5759,4.6156,4.6666,4.7285,4.8209,4.8811,4.9296,5.0012,5.0458,5.0753,5.0875,5.0019,4.8925,4.8574,4.8086,4.7836,4.8621,4.8409,4.8003,4.8232,4.8346,4.8382,4.8209,4.8055,4.7907,4.7718,4.7532,4.7545,4.7942,4.7854,4.7713,4.7713,4.7485,4.7248,4.7049,4.6794,4.6543,4.6341,4.6126,4.5988,4.6045,4.5803,4.5615,4.5615,4.5615,4.5615,4.5615,4.5615,4.5641,4.5736,4.5736,4.5744,4.5795,4.6023,4.6122,4.6122,4.6122,4.6073,0.0,0.0,0.0,2.6033,2.5431,0.0,2.466,2.3924,2.2989,2.2276,2.2887,2.3647,2.4096,2.5333,2.6499,2.7173,2.7867,2.9296,3.2112,3.1961,3.152,3.1412,3.0577,3.0087,3.0365,2.9993,2.9679,2.9616,2.9719,3.0252,3.1279,3.1289,3.1861,3.3245,3.2841,3.2619,3.2601,3.3255,3.3474,3.3303,3.3951,3.4505,3.5001,3.5537,3.5757,3.5779,3.6835,3.7471,3.7866,3.9501,4.1146,4.269,4.3423,4.4241,4.5105,4.5889,4.6268,4.6519,4.7463,4.8342,4.909,4.9394,5.0067,5.0788,5.0831,5.0245,4.9401,4.8597,4.7346,4.6361,4.6751,4.7168,4.7402,4.7058,4.7453,4.7862,4.7834,4.7373,4.7191,4.7854,4.7713,4.7488,4.7527,4.7182,4.6908,4.6908,4.6934,4.6779,4.6383,4.6277,4.6052,4.5571,4.5449,4.5397,4.5397,4.5397,4.5397,4.5397,4.5397,4.5397,4.5397,4.5397,4.545,4.5581,4.5581,4.5641,4.577,4.5897,4.5972,4.5972,4.5972,4.5922,0.0,0.0,0.0,0.0,2.3852,0.0,2.3378,2.3196,2.3375,2.4065,2.4305,2.4534,2.5089,2.6455,2.728,2.6628,2.7304,2.8555,3.0453,3.0703,3.0705,3.0616,3.055,3.0146,2.9097,2.9038,2.8913,2.8461,2.9238,2.987,3.0279,3.1459,3.2274,3.2593,3.3469,3.3693,3.3242,3.4187,3.4438,3.3933,3.4864,3.5397,3.556,3.6045,3.6154,3.5988,3.6908,3.7343,3.7494,3.8799,4.0437,4.2248,4.335,4.4277,4.5022,4.5316,4.5491,4.5763,4.6744,4.7245,4.7605,4.8507,4.9307,4.9846,4.938,4.904,4.8542,4.7277,4.5899,4.5065,4.6209,4.6061,4.5724,4.6132,4.6047,4.6007,4.6506,4.6133,4.5871,4.6547,4.6781,4.6913,4.7022,4.6976,4.6908,4.6908,4.7092,4.7181,4.7099,4.6769,4.6479,4.6372,4.5776,4.5397,4.5397,4.5397,4.5397,4.5397,4.5397,4.5397,4.5397,4.5397,4.5397,4.545,4.545,4.5502,4.5658,4.577,4.5846,4.5846,4.5846,4.5821,0.0,0.0,0.0,2.3731,0.0,0.0,0.0,2.2513,2.2287,2.2625,2.2301,2.219,2.291,2.3712,2.4294,2.4554,2.4765,2.5669,2.8032,2.848,2.865,2.8925,2.8625,2.8299,2.7964,2.8024,2.8033,2.7816,2.8426,2.9027,2.9566,3.0417,3.1078,3.1455,3.2002,3.2158,3.1863,3.2914,3.36,3.3858,3.4678,3.5397,3.6066,3.6568,3.654,3.6148,3.688,3.7126,3.7077,3.8128,3.9533,4.1207,4.2644,4.371,4.4513,4.505,4.5333,4.5539,4.618,4.6712,4.7206,4.7835,4.8554,4.9096,4.8794,4.822,4.734,4.5859,4.4726,4.4036,4.4498,4.4337,4.4106,4.4349,4.4777,4.5235,4.5587,4.547,4.5411,4.5865,4.5835,4.5885,4.6334,4.6207,4.6217,4.6688,4.6514,4.6639,4.7395,4.6619,4.6155,4.6562,4.588,4.5552,4.5949,4.5983,4.6155,4.6517,4.619,4.6155,4.6517,4.619,4.5983,4.5983,4.5983,4.5847,4.5502,4.5581,4.5615,4.5693,4.5693,4.5667,0.0,0.0,0.0,0.0,0.0,2.3982,0.0,0.0,0.0,2.1055,2.0322,2.0038,2.0771,2.0899,2.1273,2.2375,2.2324,2.296,2.5352,2.5808,2.6282,2.7369,2.6525,2.6156,2.6962,2.6872,2.6788,2.6869,2.7399,2.7998,2.8677,2.917,2.9649,3.012,3.0208,3.0253,3.0294,3.1318,3.2417,3.3544,3.4132,3.5004,3.6113,3.6795,3.6666,3.5953,3.6749,3.6853,3.6528,3.7418,3.8599,4.0031,4.1717,4.291,4.3791,4.4743,4.5178,4.5367,4.5766,4.6385,4.7008,4.7182,4.7617,4.8071,4.7993,4.7216,4.6011,4.4435,4.3689,4.326,4.2755,4.2733,4.278,4.2668,4.357,4.4509,4.4649,4.4819,4.5033,4.5354,4.5059,4.4978,4.5606,4.5433,4.5505,4.6421,4.6035,4.6173,4.7707,4.669,4.6138,4.6958,4.631,4.6035,4.6562,4.6613,4.6803,4.7224,4.6828,4.6889,4.7448,4.7034,4.682,4.682,4.682,4.6483,4.5845,4.5845,4.5743,4.5554,4.5554,4.5502,0.0,0.0,0.0,0.0,2.3804,0.0,2.3311,0.0,2.2616,2.2347,0.0,2.1703,2.1955,0.0,0.0,2.1458,2.2259,2.2939,2.2866,2.3151,2.4336,2.7085,2.6009,2.5316,2.5982,2.5339,2.4831,2.4608,2.61,2.6973,2.6901,2.8589,2.9334,2.8831,2.9623,3.0076,3.0195,3.1167,3.2214,3.3334,3.3826,3.438,3.503,3.622,3.6028,3.4873,3.6442,3.6541,3.5708,3.6638,3.7818,3.9195,4.0872,4.2104,4.3042,4.3914,4.4418,4.483,4.5622,4.6037,4.6225,4.6245,4.6244,4.6152,4.5843,4.5455,4.4753,4.3029,4.2688,4.2736,4.2139,4.2096,4.2163,4.2026,4.2328,4.2804,4.344,4.3607,4.3851,4.4574,4.4654,4.472,4.5059,4.515,4.5461,4.6217,4.6411,4.701,4.8482,4.7948,4.7707,4.8465,4.7862,4.7207,4.6665,4.6613,4.631,4.569,4.6242,4.6648,4.6734,4.7258,4.7596,4.7596,4.7596,4.7517,4.7431,4.7431,4.6751,4.5423,4.5423,4.5423,0.0,0.0,0.0,0.0,0.0,0.0,2.3566,0.0,2.2352,0.0,0.0,0.0,0.0,0.0,0.0,0.0,2.108,2.1176,2.2183,2.1306,2.1652,2.4767,2.4131,0.0,2.4102,2.3325,2.2924,2.3238,2.3753,2.4327,2.4935,2.6179,2.6865,2.6847,2.7775,2.8284,2.8322,2.9657,3.1026,3.2432,3.311,3.4052,3.522,3.5798,3.5546,3.4703,3.5448,3.5432,3.4944,3.5866,3.7053,3.8388,3.964,4.0926,4.2231,4.3169,4.3981,4.4667,4.5059,4.5566,4.6027,4.5899,4.5376,4.4829,4.5053,4.4336,4.3357,4.2887,4.2429,4.1958,4.1525,4.1255,4.1028,4.0888,4.1282,4.1863,4.2608,4.3115,4.3656,4.4445,4.4615,4.4626,4.4765,4.4886,4.5388,4.6651,4.6535,4.7037,4.9045,4.7905,4.721,4.8068,4.7069,4.6414,4.6596,4.6613,4.681,4.7345,4.8148,4.8372,4.7896,4.8631,4.8838,4.8344,4.8327,4.812,4.7689,4.7258,4.6931,4.6724,4.6724,4.65,2.6844,0.0,0.0,0.0,0.0,0.0,0.0,0.0,0.0,0.0,0.0,0.0,0.0,0.0,0.0,0.0,0.0,2.024,2.1507,2.0346,2.0355,2.297,2.2727,0.0,0.0,2.1533,2.1403,2.2015,2.1943,2.2288,2.3208,2.4248,2.4917,2.5059,2.6127,2.6704,2.6725,2.8123,2.9717,3.1476,3.2102,3.3266,3.4844,3.5173,3.4974,3.4382,3.4757,3.4731,3.4491,3.5241,3.6312,3.759,3.8539,3.9764,4.1173,4.2355,4.3447,4.4367,4.4605,4.521,4.5779,4.5372,4.4622,4.3908,4.4021,4.3263,4.2403,4.2522,4.2007,4.1326,4.1001,4.058,4.0264,4.0367,4.095,4.1694,4.2439,4.32,4.391,4.4496,4.4615,4.4615,4.4615,4.4879,4.5512,4.6669,4.6607,4.7107,4.9088,4.7946,4.7281,4.815,4.7283,4.6793,4.7182,4.7189,4.7655,4.8723,4.9355,4.9528,4.9137,4.97,4.9735,4.9137,4.912,4.8861,4.8338,4.7803,4.77,4.7982,4.7569,4.7234,0.0,0.0,0.0,2.6634,0.0,0.0,0.0,0.0,2.3213,0.0,0.0,0.0,0.0,0.0,0.0,0.0,0.0,0.0,0.0,2.0539,2.1308,2.2559,2.2406,2.1662,0.0,2.0186,2.0405,2.0715,2.1224,2.1614,2.186,2.367,2.4428,2.3782,2.5185,2.5956,2.6034,2.6918,2.8474,3.0645,3.0803,3.1683,3.3209,3.4189,3.422,3.3611,3.4778,3.4983,3.4529,3.4813,3.5635,3.6832,3.7771,3.8725,3.9761,4.1422,4.2704,4.3723,4.4445,4.5027,4.526,4.4354,4.3848,4.3393,4.2258,4.2087,4.213,4.1392,4.1142,4.1024,4.0621,4.0296,4.0299,4.1001,4.1728,4.2472,4.3189,4.3995,4.4581,4.4598,4.4615,4.4615,4.4615,4.5303,4.5881,4.5926,4.6635,4.7472,4.8338,4.8489,4.8815,4.9554,4.9786,4.9562,4.8775,4.8723,4.8741,4.8792,4.881,4.9172,4.9942,4.9993,4.9993,4.9959,4.9959,4.9959,4.9942,4.9907,4.951,4.8723,4.732,4.7027,0.0,0.0,2.7174,2.806,0.0,0.0,0.0,0.0,0.0,0.0,0.0,0.0,0.0,0.0,0.0,0.0,0.0,0.0,0.0,1.9862,1.9817,1.9609,2.0067,2.0153,1.9536,0.0,1.8821,1.9032,1.9616,2.0287,2.1033,2.2541,2.3441,2.3555,2.5132,2.5982,2.6002,2.7784,2.9093,2.9903,3.1046,3.1891,3.2472,3.3429,3.3803,3.373,3.4282,3.4549,3.4653,3.486,3.6024,3.7668,3.8017,3.9125,4.0558,4.1126,4.2295,4.3718,4.4432,4.4212,4.355,4.3187,4.2624,4.2086,4.2121,4.1691,4.1217,4.1443,4.1106,4.0652,4.0541,4.0296,4.0163,4.0417,4.1035,4.1779,4.2506,4.3267,4.3961,4.4513,4.4615,4.4615,4.4615,4.5659,4.6501,4.6501,4.7157,4.7963,4.883,4.8655,4.8597,4.8924,4.8701,4.8316,4.7973,4.8375,4.865,4.865,4.9263,4.9735,4.9993,5.0011,5.0011,5.0011,4.986,4.986,5.0011,4.9378,4.924,4.9579,4.8545,4.8189,2.8258,2.779,0.0,2.8063,2.7174,0.0,2.6496,0.0,0.0,0.0,0.0,0.0,0.0,0.0,0.0,0.0,0.0,0.0,0.0,1.9279,1.8942,1.7972,1.8629,1.9027,1.8724,1.8068,1.7848,1.8367,1.8637,1.9217,2.0202,2.1572,2.2568,2.3127,2.4987,2.6113,2.6345,2.8143,2.9326,2.992,3.1063,3.1941,3.2552,3.3259,3.368,3.3923,3.4195,3.451,3.487,3.5422,3.6278,3.7339,3.8337,3.9304,4.0189,4.0777,4.189,4.3157,4.3804,4.3389,4.25,4.2169,4.1618,4.1188,4.1708,4.1227,4.0673,4.1437,4.1082,4.051,4.051,4.0296,4.0231,4.0773,4.1238,4.1863,4.2895,4.3487,4.3978,4.4513,4.4615,4.4682,4.4942,4.5991,4.6701,4.6447,4.7479,4.8406,4.87,4.8698,4.8711,4.8783,4.8546,4.8312,4.8226,4.8643,4.8917,4.8917,4.9485,4.983,4.9889,4.9889,5.0027,5.0285,4.9904,4.9892,5.0214,4.9411,4.932,4.9872,4.9447,4.9252]}]]